Date StartTime U_cm/s V_cm/s W_cm/s Ustd_cm/s Vstd_cm/s Wstd_cm/s Uvar_(cm/s)^2 Vvar_(cm/s)^2 Wvar_(cm/s)^2 KE_(m/s)^2 TurbulentKE_(m/s)^2 HorizWindSpeed_cm/s FrictionSpeec_cm/s DragCoef SpeedOfSound_m/s SonicTemperature_C Pressure_mb 
07/16/2014  00:00:00     -135.214       -6.055       -1.847       60.554       50.863       31.977     3666.785     2587.085     1022.506        1.280        0.364      135.349       28.270        0.044      347.930       27.256      862.997
07/16/2014  00:01:00     -198.178       -4.292       -8.474       53.839       65.519       28.261     2898.624     4292.771      798.658        2.368        0.400      198.224       28.304        0.020      348.116       27.573      862.999
07/16/2014  00:02:00     -169.233      -17.109       -6.877       65.527       67.660       31.493     4293.797     4577.808      991.795        1.942        0.493      170.095       33.524        0.039      347.996       27.371      862.995
07/16/2014  00:03:00      -85.026      -36.260        1.778       64.096       42.695       31.779     4108.322     1822.888     1009.886        0.774        0.347       92.435       22.942        0.062      347.899       27.202      862.958
07/16/2014  00:04:00     -183.745        4.170       -0.627       77.699       67.428       34.023     6037.157     4546.525     1157.579        2.276        0.587      183.793       36.858        0.040      348.007       27.386      862.925
07/16/2014  00:05:00     -208.091      -60.979      -15.055       66.238       84.067       39.992     4387.491     7067.233     1599.320        3.015        0.653      216.841       33.155        0.023      348.028       27.423      862.887
07/16/2014  00:06:00     -324.833        7.070      -30.072      104.344       87.422       50.057    10887.726     7642.615     2505.683        6.375        1.052      324.910       43.881        0.018      348.034       27.433      862.865
07/16/2014  00:07:00     -234.000       -2.268      -18.040       85.829       82.471       53.404     7366.567     6801.451     2851.977        3.605        0.851      234.011       48.812        0.044      347.925       27.243      862.846
07/16/2014  00:08:00     -247.467      -12.156      -14.922      120.991      104.224       55.268    14638.895    10862.580     3054.581        4.508        1.428      247.765       57.040        0.053      347.975       27.331      862.820
07/16/2014  00:09:00     -331.361      -18.484      -41.366      119.215       97.782       54.413    14212.116     9561.323     2960.741        6.929        1.337      331.876       59.343        0.032      348.020       27.407      862.793
07/16/2014  00:10:00     -299.816      -60.401       -9.358      110.660       97.348       52.729    12245.589     9476.692     2780.302        5.906        1.225      305.840       49.895        0.027      347.949       27.285      862.778
07/16/2014  00:11:00     -325.932      -13.956      -18.316      132.334      130.390       62.352    17512.349    17001.601     3887.740        7.257        1.920      326.231       55.343        0.029      347.986       27.349      862.767
07/16/2014  00:12:00     -324.954      -57.372      -18.106      118.190       97.826       64.192    13968.933     9569.941     4120.631        6.843        1.383      329.980       64.838        0.039      347.976       27.331      862.758
07/16/2014  00:13:00     -297.667      -51.923       -5.873      102.278      109.845       52.988    10460.747    12065.970     2807.740        5.833        1.267      302.162       41.440        0.019      347.979       27.338      862.735
07/16/2014  00:14:00     -234.054      -16.349        8.300      137.736      117.321       53.541    18971.074    13764.320     2866.651        4.535        1.780      234.625       56.281        0.058      347.908       27.215      862.720
07/16/2014  00:15:00     -212.429      -57.397        1.736      129.391      102.530       51.958    16742.028    10512.353     2699.683        3.918        1.498      220.046       55.775        0.064      347.949       27.286      862.688
07/16/2014  00:16:00     -291.436      -29.730      -19.090      118.260       90.940       54.396    13985.349     8270.006     2958.919        5.569        1.261      292.949       61.311        0.044      347.954       27.295      862.678
07/16/2014  00:17:00     -246.267      -25.970      -18.976       92.437       88.184       64.504     8544.606     7776.437     4160.741        4.108        1.024      247.633       55.223        0.050      347.922       27.237      862.661
07/16/2014  00:18:00     -378.891      -11.546      -40.338      127.174       92.884       58.547    16173.352     8627.385     3427.809        8.677        1.411      379.067       54.420        0.021      347.941       27.271      862.656
07/16/2014  00:19:00     -345.705      -25.944      -16.428      136.267       87.759       62.056    18568.780     7701.730     3851.002        7.528        1.506      346.678       71.079        0.042      347.967       27.316      862.664
07/16/2014  00:20:00     -234.198      -38.439       -9.135      131.961       82.498       50.063    17413.696     6805.959     2506.274        4.156        1.336      237.332       59.284        0.062      347.988       27.352      862.648
07/16/2014  00:21:00     -340.956      -91.203        5.565      142.249      111.928       73.865    20234.684    12527.817     5456.017        8.140        1.911      352.943       77.571        0.048      347.975       27.332      862.650
07/16/2014  00:22:00     -396.639      -54.712      -18.971      138.820      159.049       70.827    19271.040    25296.732     5016.401       10.512        2.479      400.395       62.911        0.025      348.084       27.516      862.641
07/16/2014  00:23:00     -328.141      -18.585      -27.246      111.511       92.909       58.213    12434.616     8632.103     3388.719        6.660        1.223      328.667       56.980        0.030      348.043       27.445      862.636
07/16/2014  00:24:00     -232.641      -27.710      -18.051       99.897      105.381       42.231     9979.462    11105.098     1783.443        3.904        1.143      234.286       39.458        0.028      347.969       27.320      862.648
07/16/2014  00:25:00     -233.599      -14.358       -9.733       98.143       66.522       45.780     9631.975     4425.150     2095.805        3.551        0.808      234.039       41.780        0.032      348.004       27.381      862.644
07/16/2014  00:26:00     -194.054      -22.551       -1.561      104.294       59.836       43.073    10877.175     3580.346     1855.266        2.724        0.816      195.360       53.676        0.075      347.934       27.259      862.637
07/16/2014  00:27:00     -129.726      -45.467        6.246       90.414       90.859       52.209     8174.682     8255.330     2725.830        1.904        0.958      137.463       39.702        0.083      347.916       27.231      862.624
07/16/2014  00:28:00     -224.228      -31.491      -21.857      117.964       75.712       45.515    13915.391     5732.288     2071.592        3.673        1.086      226.428       55.182        0.059      348.021       27.412      862.618
07/16/2014  00:29:00     -228.349      -44.748      -12.444       98.255      104.789       39.416     9654.020    10980.643     1553.654        3.824        1.109      232.692       40.046        0.030      347.946       27.280      862.641
07/16/2014  00:30:00     -229.153       -8.379      -14.972       91.935       85.641       48.450     8451.995     7334.466     2347.359        3.547        0.907      229.306       45.138        0.039      348.070       27.495      862.623
07/16/2014  00:31:00     -380.759      -20.210      -38.171      130.266       96.289       55.414    16969.322     9271.596     3070.677        8.807        1.466      381.295       49.508        0.017      348.062       27.480      862.631
07/16/2014  00:32:00     -233.553      -68.179      -19.919      121.088       87.748       48.519    14662.256     7699.698     2354.099        4.215        1.236      243.302       42.002        0.030      348.019       27.406      862.638
07/16/2014  00:33:00     -172.481      -69.907      -20.179      121.708       77.000       50.927    14812.803     5929.049     2593.595        2.918        1.167      186.109       57.622        0.096      347.984       27.346      862.647
07/16/2014  00:34:00     -190.624      -43.421       -9.243       86.267       70.679       45.043     7442.072     4995.589     2028.829        2.638        0.723      195.507       38.986        0.040      347.957       27.300      862.649
07/16/2014  00:35:00     -189.676      -56.963       -6.412      115.635       68.374       50.231    13371.349     4674.976     2523.178        2.991        1.028      198.045       48.743        0.061      347.927       27.248      862.642
07/16/2014  00:36:00     -128.831       -7.434        5.575       89.005       67.562       50.536     7921.806     4564.583     2553.862        1.586        0.752      129.045       48.474        0.141      347.893       27.191      862.653
07/16/2014  00:37:00     -170.875      -70.540      -14.541       70.176       48.343       42.996     4924.739     2337.029     1848.653        2.175        0.456      184.863       43.281        0.055      347.945       27.279      862.665
07/16/2014  00:38:00      -73.695       10.242       -1.656       55.578       79.435       28.949     3088.886     6309.896      838.068        0.789        0.512       74.403       24.327        0.107      347.839       27.097      862.675
07/16/2014  00:39:00      -38.774       40.041        3.460       42.738       80.784       25.099     1826.535     6525.978      629.963        0.605        0.449       55.738       18.408        0.109      347.733       26.917      862.695
07/16/2014  00:40:00      -91.601      116.063      -20.637       45.167       47.951       25.880     2040.045     2299.267      669.765        1.365        0.250      147.856       14.979        0.010      347.802       27.034      862.702
07/16/2014  00:41:00     -113.605       39.256       -7.596       58.669       47.115       32.137     3442.049     2219.811     1032.818        1.060        0.335      120.196       27.055        0.051      347.797       27.028      862.719
07/16/2014  00:42:00     -102.130       24.942      -11.405       30.154       36.597       17.995      909.264     1339.344      323.809        0.688        0.129      105.132       15.964        0.023      347.766       26.973      862.717
07/16/2014  00:43:00      -64.225       43.439      -11.004       55.390       31.889       21.540     3068.096     1016.927      463.986        0.534        0.227       77.536        8.127        0.011      347.739       26.927      862.714
07/16/2014  00:44:00      -69.477       61.003      -14.814       45.428       44.962       22.969     2063.658     2021.560      527.585        0.669        0.231       92.457       22.666        0.060      347.747       26.941      862.714
07/16/2014  00:45:00      -28.076       72.000      -10.324       39.819       46.963       17.889     1585.534     2205.557      320.017        0.509        0.206       77.280       12.211        0.025      347.737       26.923      862.695
07/16/2014  00:46:00     -115.667       37.725       -6.652       35.994       25.377       18.786     1295.541      644.000      352.908        0.857        0.115      121.663        6.738        0.003      347.693       26.848      862.726
07/16/2014  00:47:00      -94.299      113.454      -22.891       38.236       47.456       29.413     1461.965     2252.074      865.151        1.343        0.229      147.527       18.418        0.016      347.683       26.830      862.739
07/16/2014  00:48:00      -50.177      193.627      -13.444       65.751      104.471       38.776     4323.177    10914.266     1503.613        2.846        0.837      200.023       21.921        0.012      347.697       26.853      862.717
07/16/2014  00:49:00      -87.843      188.483      -23.132       55.602       66.416       38.336     3091.531     4411.142     1469.657        2.637        0.449      207.947       31.254        0.023      347.795       27.022      862.685
07/16/2014  00:50:00     -133.746      152.417      -32.653       76.272       54.394       31.926     5817.389     2958.753     1019.259        2.599        0.490      202.778       34.018        0.028      347.763       26.966      862.686
07/16/2014  00:51:00      -98.704      107.050      -23.047       50.597       51.247       29.481     2560.096     2626.292      869.129        1.389        0.303      145.610       28.145        0.037      347.612       26.706      862.702
07/16/2014  00:52:00      -51.710      126.201      -22.215       43.094       54.653       23.527     1857.084     2986.970      553.526        1.224        0.270      136.384       23.828        0.031      347.678       26.820      862.674
07/16/2014  00:53:00      -65.063      117.760       -6.431       46.876      101.101       34.961     2197.367    10221.317     1222.253        1.589        0.682      134.538       11.798        0.008      347.610       26.704      862.679
07/16/2014  00:54:00      -72.056      124.431      -13.411       50.448       70.127       28.815     2544.989     4917.852      830.331        1.457        0.415      143.788       31.209        0.047      347.625       26.729      862.669
07/16/2014  00:55:00      -28.837      180.996      -27.714       47.743       45.097       21.575     2279.379     2033.782      465.474        1.957        0.239      183.278       13.939        0.006      347.583       26.654      862.634
07/16/2014  00:56:00     -107.756      132.232      -11.781       50.785       96.336       29.992     2579.096     9280.628      899.522        2.099        0.638      170.577       21.740        0.016      347.598       26.682      862.647
07/16/2014  00:57:00     -147.540       54.257      -12.039       60.983       38.542       24.948     3718.910     1485.501      622.389        1.534        0.291      157.200       26.716        0.029      347.582       26.655      862.672
07/16/2014  00:58:00      -97.590      159.208      -24.779       67.298       75.737       47.329     4528.994     5736.111     2240.071        2.399        0.625      186.737       40.192        0.046      347.839       27.096      862.647
07/16/2014  00:59:00     -128.142      126.882      -23.030       77.049       63.843       35.471     5936.504     4075.889     1258.205        2.216        0.564      180.331       16.401        0.008      347.908       27.216      862.601
07/16/2014  01:00:00      -48.047      198.341      -20.951       67.402       69.993       34.028     4543.040     4899.008     1157.917        2.634        0.530      204.078       23.961        0.014      347.760       26.961      862.616
07/16/2014  01:01:00     -150.659      152.401      -32.292       68.504      103.549       49.401     4692.803    10722.480     2440.467        3.241        0.893      214.299       52.870        0.061      347.740       26.925      862.632
07/16/2014  01:02:00      -83.291      115.315       -3.560       49.781       64.359       33.730     2478.116     4142.029     1137.718        1.400        0.388      142.250       35.317        0.062      347.741       26.930      862.632
07/16/2014  01:03:00      -63.574      174.607      -20.491       53.300       47.362       33.953     2840.873     2243.200     1152.837        2.059        0.312      185.820       24.417        0.017      347.742       26.930      862.622
07/16/2014  01:04:00     -110.145      190.377      -35.210       59.474       56.515       30.382     3537.189     3193.942      923.039        2.863        0.383      219.944       29.762        0.018      347.781       26.995      862.612
07/16/2014  01:05:00     -195.310      120.985      -35.671       61.666       63.298       41.570     3802.756     4006.683     1728.042        3.179        0.477      229.746       36.059        0.025      347.814       27.053      862.636
07/16/2014  01:06:00     -102.347      203.850      -21.602       72.743       99.438       43.644     5291.540     9887.823     1904.793        3.479        0.854      228.100       42.976        0.035      347.769       26.976      862.630
07/16/2014  01:07:00      -86.061       99.479        7.003       71.732       62.633       45.157     5145.469     3922.865     2039.168        1.423        0.555      131.539       33.598        0.065      347.635       26.746      862.617
07/16/2014  01:08:00     -136.236       77.869      -26.998       53.794       42.822       30.515     2893.828     1833.732      931.192        1.550        0.283      156.920       30.186        0.037      347.677       26.818      862.618
07/16/2014  01:09:00      -79.941      139.550      -19.654       38.759       47.463       24.703     1502.280     2252.728      610.238        1.531        0.218      160.825       24.468        0.023      347.601       26.690      862.604
07/16/2014  01:10:00     -120.666      130.032      -30.109       42.819       48.740       27.398     1833.491     2375.604      750.676        1.867        0.248      177.393       26.753        0.023      347.615       26.711      862.605
07/16/2014  01:11:00     -149.284       69.894      -22.320       38.531       44.514       25.445     1484.670     1981.475      647.432        1.589        0.206      164.836       18.834        0.013      347.646       26.765      862.598
07/16/2014  01:12:00     -130.438       47.925      -16.303       37.621       41.227       24.317     1415.366     1699.665      591.298        1.164        0.185      138.964       18.048        0.017      347.643       26.762      862.594
07/16/2014  01:13:00      -98.868       95.411      -14.697       48.424       47.737       34.051     2344.883     2278.779     1159.439        1.244        0.289      137.397       30.738        0.050      347.575       26.644      862.573
07/16/2014  01:14:00     -143.477      156.311      -35.191       55.364       53.781       34.710     3065.137     2892.429     1204.792        2.671        0.358      212.176       31.215        0.022      347.773       26.982      862.580
07/16/2014  01:15:00      -96.688      139.175      -14.495       40.748       74.353       31.792     1660.435     5528.324     1010.759        1.856        0.410      169.464       31.668        0.035      347.679       26.821      862.571
07/16/2014  01:16:00     -129.129       53.979      -24.682       42.282       39.564       25.266     1787.783     1565.288      638.388        1.209        0.200      139.957       11.379        0.007      347.572       26.639      862.585
07/16/2014  01:17:00     -164.210      -63.289       -6.598       56.696       46.050       32.115     3214.413     2120.578     1031.362        1.869        0.318      175.984       18.980        0.012      347.449       26.425      862.590
07/16/2014  01:18:00     -102.519       31.405      -10.403       37.760       31.460       21.195     1425.826      989.712      449.223        0.723        0.143      107.221       17.097        0.025      347.484       26.489      862.585
07/16/2014  01:19:00      -21.404      103.467      -10.077       34.520       51.344       25.420     1191.636     2636.175      646.154        0.787        0.224      105.657       28.368        0.072      347.383       26.313      862.561
07/16/2014  01:20:00      -36.806      142.981      -19.652       33.863       50.443       22.617     1146.702     2544.540      511.531        1.319        0.210      147.643       21.064        0.020      347.459       26.443      862.560
07/16/2014  01:21:00      -99.917       59.607      -15.095       31.641       35.197       29.102     1001.143     1238.861      846.919        0.842        0.154      116.346       23.889        0.042      347.389       26.324      862.590
07/16/2014  01:22:00     -162.513      195.019      -43.471       60.766       73.211       39.659     3692.560     5359.811     1572.827        3.848        0.531      253.856       39.587        0.024      347.433       26.394      862.602
07/16/2014  01:23:00     -161.067      169.699      -42.685       48.191       37.695       31.253     2322.374     1420.876      976.740        3.064        0.236      233.967       24.077        0.011      347.411       26.357      862.598
07/16/2014  01:24:00      -94.656      151.675      -10.780       55.401       66.998       37.353     3069.310     4488.717     1395.212        2.052        0.448      178.788       41.769        0.055      347.365       26.280      862.568
07/16/2014  01:25:00      -81.850       97.119      -21.916       61.934       45.397       25.782     3835.870     2060.868      664.724        1.159        0.328      127.010       25.595        0.041      347.288       26.148      862.548
07/16/2014  01:26:00     -142.448       16.130      -30.882       49.017       77.904       27.652     2402.697     6069.005      764.629        1.537        0.462      143.358       25.658        0.032      347.283       26.138      862.573
07/16/2014  01:27:00     -130.638       92.305      -28.496       64.577      105.031       44.363     4170.221    11031.591     1968.034        2.178        0.858      159.958       36.540        0.052      347.418       26.371      862.592
07/16/2014  01:28:00      -56.275      172.441      -14.488       52.656       58.677       38.760     2772.661     3442.987     1502.338        2.041        0.386      181.392       30.410        0.028      347.509       26.529      862.531
07/16/2014  01:29:00      -39.087       81.371       -4.608       47.839       57.061       39.481     2288.566     3256.001     1558.732        0.764        0.355       90.272       34.947        0.150      347.333       26.227      862.527
07/16/2014  01:30:00      -61.259      205.137      -26.944       63.868       60.870       40.308     4079.092     3705.098     1624.756        2.798        0.470      214.088       37.886        0.031      347.422       26.376      862.530
07/16/2014  01:31:00     -147.079       60.100      -13.543       46.683       52.366       32.755     2179.295     2742.197     1072.879        1.571        0.300      158.884       25.649        0.026      347.376       26.298      862.541
07/16/2014  01:32:00     -114.398       84.413      -19.101       80.866       45.918       36.000     6539.347     2108.466     1295.965        1.526        0.497      142.170       38.223        0.072      347.407       26.352      862.540
07/16/2014  01:33:00     -107.124      156.542      -23.849       58.761       69.154       35.721     3452.823     4782.330     1276.000        2.303        0.476      189.686       39.526        0.043      347.323       26.206      862.518
07/16/2014  01:34:00     -130.753      208.052      -27.054       67.282       65.848       37.338     4526.844     4335.973     1394.148        3.568        0.513      245.727       32.004        0.017      347.321       26.203      862.516
07/16/2014  01:35:00     -153.579      111.315      -29.763       53.911       64.217       35.338     2906.394     4123.884     1248.802        2.257        0.414      189.678       37.169        0.038      347.305       26.174      862.519
07/16/2014  01:36:00     -143.469       98.702      -29.829       48.896       43.311       25.781     2390.786     1875.812      664.666        1.807        0.247      174.142       24.221        0.019      347.263       26.104      862.543
07/16/2014  01:37:00      -96.938       41.849       -3.757       34.127       30.428       18.238     1164.637      925.880      332.615        0.679        0.121      105.586       16.232        0.024      347.316       26.198      862.516
07/16/2014  01:38:00     -127.879       75.906      -22.643       67.104       55.546       28.578     4502.993     3085.320      816.724        1.551        0.420      148.710       34.000        0.052      347.271       26.118      862.520
07/16/2014  01:39:00     -130.789       90.175      -20.272       61.318       53.731       33.364     3759.883     2887.001     1113.176        1.670        0.388      158.862       31.208        0.039      347.179       25.960      862.536
07/16/2014  01:40:00     -117.535      132.190      -20.711       72.740       48.179       38.704     5291.113     2321.181     1497.967        2.041        0.456      176.886       36.300        0.042      347.139       25.889      862.524
07/16/2014  01:41:00      -85.480      153.282      -23.798       35.887       49.739       23.838     1287.908     2473.983      568.241        1.785        0.217      175.505       21.202        0.015      347.129       25.873      862.509
07/16/2014  01:42:00      -60.744      131.909       -8.583       34.668       69.739       30.022     1201.854     4863.476      901.312        1.406        0.348      145.223       29.739        0.042      347.083       25.795      862.517
07/16/2014  01:43:00     -105.472       16.807      -12.143       51.620       30.902       21.326     2664.649      954.936      454.802        0.781        0.204      106.802       15.062        0.020      347.038       25.718      862.521
07/16/2014  01:44:00      -93.878      118.474      -19.937       35.661       67.905       26.157     1271.695     4611.140      684.191        1.491        0.328      151.160       17.482        0.013      347.189       25.976      862.504
07/16/2014  01:45:00     -124.107      152.478      -28.104       38.702       38.841       23.007     1497.823     1508.600      529.312        2.149        0.177      196.601       18.937        0.009      347.402       26.346      862.487
07/16/2014  01:46:00     -151.414      158.052      -40.004       53.067       68.272       31.700     2816.131     4661.056     1004.897        2.899        0.424      218.876       28.924        0.017      347.431       26.391      862.501
07/16/2014  01:47:00      -82.827       24.565      -15.037       30.185       41.896       16.874      911.117     1755.311      284.722        0.532        0.148       86.393        7.334        0.007      347.335       26.231      862.504
07/16/2014  01:48:00      -85.305      -11.734       -2.014       35.443       33.129       18.362     1256.233     1097.542      337.147        0.505        0.135       86.108       18.223        0.045      347.096       25.819      862.516
07/16/2014  01:49:00      -91.463        6.306       -7.093       31.733       17.299       17.049     1006.968      299.248      290.662        0.503        0.080       91.680       14.651        0.026      347.015       25.679      862.509
07/16/2014  01:50:00      -73.385      -17.674       -6.381       28.292       18.617        8.710      800.454      346.603       75.865        0.348        0.061       75.483        8.363        0.012      347.010       25.669      862.511
07/16/2014  01:51:00      -95.249      -15.606       -8.177       37.566       40.013       20.699     1411.199     1601.024      428.450        0.641        0.172       96.519       15.875        0.027      346.948       25.563      862.527
07/16/2014  01:52:00      -86.336       26.510       -7.583       24.338       50.111       21.236      592.323     2511.145      450.954        0.588        0.178       90.314       22.633        0.063      346.978       25.614      862.526
07/16/2014  01:53:00      -90.936      111.593      -15.423       42.635       37.012       30.528     1817.725     1369.862      931.983        1.254        0.206      143.953       21.837        0.023      347.127       25.872      862.518
07/16/2014  01:54:00      -88.286       38.809        0.418       58.721       34.125       29.632     3448.132     1164.485      878.028        0.739        0.275       96.439       26.634        0.076      347.120       25.860      862.505
07/16/2014  01:55:00      -54.406      -13.870       -4.465       26.498       43.002       22.599      702.150     1849.177      510.706        0.312        0.153       56.146       14.060        0.063      347.042       25.726      862.501
07/16/2014  01:56:00     -122.593       13.177      -18.298       64.792       52.870       25.875     4198.042     2795.210      669.526        1.160        0.383      123.299       31.460        0.065      347.073       25.778      862.519
07/16/2014  01:57:00     -145.535      -43.123      -10.211       36.838       45.673       24.316     1357.011     2085.995      591.268        1.359        0.202      151.789       14.347        0.009      347.117       25.853      862.519
07/16/2014  01:58:00     -128.179      -43.360        2.550       52.625       42.403       24.727     2769.441     1798.025      611.423        1.175        0.259      135.314       22.473        0.028      346.984       25.624      862.504
07/16/2014  01:59:00     -149.543      -33.011       -7.756       56.360       76.085       33.286     3176.424     5788.865     1107.979        1.679        0.504      153.143       30.812        0.040      347.144       25.899      862.501
07/16/2014  02:00:00     -230.152        8.904      -16.564       58.824       66.926       35.843     3460.221     4479.080     1284.726        3.127        0.461      230.324       35.113        0.023      347.135       25.881      862.502
07/16/2014  02:01:00     -176.248      -35.628      -16.153       40.924       49.197       27.893     1674.808     2420.374      778.002        1.873        0.244      179.813       18.243        0.010      347.094       25.813      862.490
07/16/2014  02:02:00     -146.728      -65.174      -24.069       36.798       49.030       24.483     1354.066     2403.967      599.438        1.536        0.218      160.551       19.773        0.015      347.006       25.662      862.485
07/16/2014  02:03:00     -154.005      -44.968      -19.947       71.739       68.238       32.532     5146.552     4656.393     1058.321        1.850        0.543      160.436       30.425        0.036      347.083       25.795      862.467
07/16/2014  02:04:00     -192.727      -47.341      -18.413       55.031       62.247       34.354     3028.420     3874.678     1180.170        2.390        0.404      198.456       24.254        0.015      347.163       25.931      862.454
07/16/2014  02:05:00     -185.479      -40.572      -13.160       53.772       44.638       32.662     2891.432     1992.515     1066.824        2.109        0.298      189.864       22.787        0.014      347.149       25.909      862.449
07/16/2014  02:06:00     -213.587        4.998      -25.240       74.314       48.678       40.059     5522.568     2369.550     1604.760        2.789        0.475      213.646       44.435        0.043      347.208       26.008      862.441
07/16/2014  02:07:00     -109.948      -46.440       -5.318       66.485       51.301       29.643     4420.224     2631.825      878.701        1.110        0.397      119.353       30.587        0.066      347.135       25.884      862.455
07/16/2014  02:08:00      -70.725       12.330       -8.720       42.285       31.787       24.401     1788.060     1010.405      595.413        0.431        0.170       71.792       14.799        0.042      347.056       25.748      862.457
07/16/2014  02:09:00      -59.456      101.161       -8.176       41.003       55.644       32.854     1681.240     3096.217     1079.355        0.984        0.293      117.340       24.556        0.044      347.063       25.759      862.467
07/16/2014  02:10:00      -37.815       23.900      -12.360       51.700       69.329       23.665     2672.938     4806.546      560.015        0.510        0.402       44.735       21.729        0.236      347.055       25.746      862.490
07/16/2014  02:11:00      -49.810      -18.206        5.012       59.429       47.431       38.571     3531.827     2249.737     1487.753        0.505        0.363       53.034       37.892        0.511      347.096       25.817      862.496
07/16/2014  02:12:00      -13.345       35.793        0.114       15.135       28.598       17.033      229.065      817.855      290.106        0.140        0.067       38.200        6.585        0.030      347.065       25.764      862.481
07/16/2014  02:13:00      -88.909       22.217       -8.238       62.384       45.082       26.987     3891.736     2032.391      728.315        0.756        0.333       91.643       26.934        0.086      347.198       25.991      862.462
07/16/2014  02:14:00      -58.980       33.793       -9.760       30.657       30.894       20.118      939.880      954.441      404.719        0.351        0.115       67.975       14.125        0.043      347.061       25.758      862.456
07/16/2014  02:15:00      -13.365       34.976       13.710       25.644       33.325       20.536      657.616     1110.524      421.708        0.189        0.109       37.443       16.192        0.187      346.974       25.607      862.474
07/16/2014  02:16:00      -35.249       49.471       -1.689       32.931       45.539       21.131     1084.436     2073.794      446.521        0.365        0.180       60.744       18.409        0.092      346.988       25.632      862.492
07/16/2014  02:17:00      -89.938       72.009      -10.237       36.256       31.476       17.687     1314.529      990.747      312.846        0.800        0.131      115.213       14.954        0.017      347.061       25.759      862.512
07/16/2014  02:18:00      -58.558       81.389      -12.785       50.779       25.952       24.613     2578.469      673.519      605.813        0.704        0.193      100.266       28.290        0.080      347.040       25.722      862.497
07/16/2014  02:19:00      -37.276      104.351      -12.519       44.496       29.097       25.765     1979.873      846.654      663.855        0.796        0.175      110.809       26.613        0.058      347.080       25.790      862.473
07/16/2014  02:20:00      -59.253      109.567      -16.620       38.093       38.064       23.979     1451.097     1448.847      574.975        0.963        0.174      124.563       21.911        0.031      347.100       25.825      862.463
07/16/2014  02:21:00      -46.688      150.624      -17.103       32.990       37.022       30.056     1088.367     1370.595      903.349        1.426        0.168      157.693       19.119        0.015      347.053       25.743      862.461
07/16/2014  02:22:00      -66.361      168.767      -22.604       48.402       62.058       33.230     2342.716     3851.242     1104.204        2.035        0.365      181.345       33.277        0.034      347.045       25.729      862.449
07/16/2014  02:23:00     -100.496      150.853      -22.163       52.898       56.387       27.873     2798.171     3179.509      776.894        2.005        0.338      181.263       29.452        0.026      347.068       25.769      862.430
07/16/2014  02:24:00     -108.596       88.708      -25.619       41.792       37.841       21.209     1746.573     1431.979      449.801        1.197        0.181      140.222       22.132        0.025      347.101       25.827      862.426
07/16/2014  02:25:00      -47.060       45.008      -10.917       30.668       25.709       21.094      940.498      660.936      444.939        0.320        0.102       65.118       17.585        0.073      347.090       25.809      862.399
07/16/2014  02:26:00      -12.436       34.629       -3.498       18.187       13.380       10.182      330.759      179.026      103.667        0.099        0.031       36.795        9.278        0.064      347.011       25.669      862.385
07/16/2014  02:27:00      -19.474       67.900       -9.036       23.310       22.313       11.981      543.377      497.889      143.548        0.313        0.059       70.637       14.751        0.044      346.989       25.633      862.388
07/16/2014  02:28:00      -25.194       41.540        8.012       28.344       24.183       17.503      803.387      584.828      306.357        0.206        0.085       48.583       21.475        0.195      346.852       25.398      862.376
07/16/2014  02:29:00      -42.508       76.450      -15.411       31.745       31.352       16.263     1007.769      982.979      264.495        0.507        0.113       87.473       20.604        0.055      346.918       25.512      862.381
07/16/2014  02:30:00      -61.307       59.964      -13.304       27.178       32.034       16.613      738.667     1026.194      275.996        0.479        0.102       85.757       18.104        0.045      346.980       25.618      862.387
07/16/2014  02:31:00      -14.027       48.778       -4.397       55.447       43.900       30.439     3074.369     1927.210      926.561        0.426        0.296       50.754       39.351        0.601      346.883       25.451      862.369
07/16/2014  02:32:00      -35.352      123.938       -6.807       39.130       41.769       28.110     1531.148     1744.652      790.200        1.036        0.203      128.881       24.512        0.036      346.883       25.451      862.345
07/16/2014  02:33:00      -59.624      140.434      -23.644       29.655       33.860       18.351      879.407     1146.503      336.753        1.310        0.118      152.567        9.378        0.004      346.928       25.529      862.362
07/16/2014  02:34:00      -44.418       70.868       -8.800       35.456       49.873       22.328     1257.146     2487.329      498.547        0.566        0.212       83.638       17.558        0.044      346.815       25.332      862.365
07/16/2014  02:35:00      -53.266      110.880      -11.620       46.615       65.714       30.395     2172.999     4318.287      923.842        1.134        0.371      123.011       31.825        0.067      346.790       25.291      862.361
07/16/2014  02:36:00      -63.395      123.757      -16.629       57.768       61.963       40.397     3337.118     3839.382     1631.886        1.421        0.440      139.050       32.588        0.055      346.901       25.482      862.352
07/16/2014  02:37:00      -71.795       45.003        0.330       35.154       35.132       26.787     1235.804     1234.237      717.568        0.518        0.159       84.733       14.818        0.031      346.763       25.245      862.347
07/16/2014  02:38:00      -65.183       63.890      -12.172       30.982       36.623       18.842      959.915     1341.233      355.003        0.557        0.133       91.273       15.406        0.028      346.726       25.181      862.355
07/16/2014  02:39:00      -78.965       87.584      -18.684       50.366       44.100       24.320     2536.709     1944.845      591.457        0.966        0.254      117.926       23.962        0.041      346.747       25.215      862.355
07/16/2014  02:40:00     -103.516       86.909      -26.718       40.761       32.314       23.559     1661.427     1044.185      555.014        1.112        0.163      135.162        7.831        0.003      346.830       25.358      862.351
07/16/2014  02:41:00      -62.149       23.060       -9.023       38.667       31.243       15.939     1495.126      976.154      254.063        0.360        0.136       66.289       11.881        0.032      346.698       25.132      862.343
07/16/2014  02:42:00     -101.496       56.295      -13.855       40.167       32.442       19.660     1613.357     1052.515      386.518        0.836        0.153      116.063       16.402        0.020      346.703       25.142      862.346
07/16/2014  02:43:00     -112.761       62.682      -17.743       44.109       35.305       20.597     1945.574     1246.458      424.227        1.029        0.181      129.012       13.171        0.010      346.720       25.168      862.347
07/16/2014  02:44:00      -24.699      149.774       -6.466       38.816       78.739       32.114     1506.679     6199.861     1031.330        1.591        0.437      151.797       37.257        0.060      346.727       25.181      862.317
07/16/2014  02:45:00      -97.272      134.487      -21.673       28.577       48.496       22.658      816.647     2351.895      513.406        1.585        0.184      165.978       22.055        0.018      346.691       25.121      862.322
07/16/2014  02:46:00      -72.917      112.853      -28.024       23.421       38.080       18.574      548.564     1450.109      344.991        1.059        0.117      134.360       14.605        0.012      346.648       25.047      862.338
07/16/2014  02:47:00     -114.456      125.100      -23.986       43.664       50.798       30.112     1906.584     2580.398      906.747        1.736        0.270      169.559       28.758        0.029      346.714       25.160      862.352
07/16/2014  02:48:00      -66.414      120.606      -20.885       36.535       50.056       23.097     1334.780     2505.593      533.485        1.188        0.219      137.683       25.398        0.034      346.626       25.009      862.355
07/16/2014  02:49:00      -60.379      112.878      -13.048       31.683       49.366       24.069     1003.841     2436.968      579.301        1.029        0.201      128.012       19.113        0.022      346.616       24.991      862.358
07/16/2014  02:50:00      -87.869      136.559      -25.399       45.808       59.606       21.284     2098.330     3552.817      453.025        1.656        0.305      162.387       19.569        0.015      346.783       25.278      862.346
07/16/2014  02:51:00      -92.787       87.043      -15.668       40.037       37.667       23.306     1602.939     1418.816      543.150        1.000        0.178      127.224       13.778        0.012      346.724       25.177      862.344
07/16/2014  02:52:00      -71.679      163.939      -15.214       35.369       50.732       25.050     1250.999     2573.760      627.485        1.835        0.223      178.924       23.025        0.017      346.803       25.312      862.340
07/16/2014  02:53:00      -81.356      134.956      -22.815       41.101       39.445       23.431     1689.326     1555.926      549.026        1.457        0.190      157.581       18.055        0.013      346.761       25.240      862.318
07/16/2014  02:54:00     -105.364      114.387      -16.293       55.963       47.455       37.183     3131.877     2251.943     1382.543        1.561        0.338      155.518       39.076        0.063      346.722       25.174      862.304
07/16/2014  02:55:00      -96.809      152.972      -20.626       46.834       46.105       32.775     2193.410     2125.626     1074.193        1.929        0.270      181.032       26.612        0.022      346.778       25.269      862.288
07/16/2014  02:56:00      -52.692      162.137      -20.691       41.057       59.698       27.730     1685.644     3563.884      768.971        1.775        0.301      170.484       33.625        0.039      346.749       25.218      862.276
07/16/2014  02:57:00      -81.318      103.767      -17.792       32.496       46.166       22.812     1055.983     2131.282      520.394        1.070        0.185      131.834       19.941        0.023      346.676       25.095      862.290
07/16/2014  02:58:00      -42.215       34.706       -1.573       42.503       47.075       20.004     1806.486     2216.054      400.154        0.371        0.221       54.650       26.277        0.231      346.685       25.109      862.291
07/16/2014  02:59:00      -66.721       82.711      -13.215       42.337       52.026       26.161     1792.449     2706.735      684.402        0.832        0.259      106.268       29.552        0.077      346.700       25.136      862.287
07/16/2014  03:00:00     -105.996       73.564      -16.200       31.965       37.390       19.411     1021.756     1398.023      376.791        0.985        0.140      129.023       12.560        0.009      346.763       25.244      862.316
07/16/2014  03:01:00      -16.887       95.050       -4.238       64.267       48.918       29.805     4130.272     2393.009      888.340        0.837        0.371       96.538       36.437        0.142      346.685       25.110      862.306
07/16/2014  03:02:00      -13.182      143.353      -27.638       42.657       43.391       23.943     1819.616     1882.750      573.284        1.288        0.214      143.958       26.474        0.034      346.828       25.357      862.281
07/16/2014  03:03:00      -39.960       65.125       -8.475       28.136       46.588       15.414      791.614     2170.407      237.598        0.455        0.160       76.407       15.192        0.040      346.570       24.914      862.284
07/16/2014  03:04:00      -45.266       -1.558       -4.499       28.302       22.546       15.635      800.993      508.309      244.455        0.181        0.078       45.293       11.273        0.062      346.722       25.174      862.305
07/16/2014  03:05:00      -72.908      -11.651       -7.974       51.757       25.558       26.274     2678.790      653.213      690.330        0.477        0.201       73.833       30.460        0.170      346.793       25.296      862.322
07/16/2014  03:06:00      -91.139      -19.969      -12.618       22.809       27.153       16.860      520.240      737.307      284.243        0.520        0.077       93.301       10.994        0.014      346.654       25.059      862.333
07/16/2014  03:07:00      -94.863      -62.697       -6.164       33.298       35.948       20.941     1108.755     1292.289      438.514        0.790        0.142      113.710       16.426        0.021      346.434       24.678      862.342
07/16/2014  03:08:00     -125.347      -15.946       -5.824       36.351       25.912       20.737     1321.425      671.421      430.019        0.921        0.121      126.357       20.942        0.027      346.516       24.820      862.348
07/16/2014  03:09:00      -89.303        3.153        0.806       41.371       46.558       23.348     1711.569     2167.688      545.112        0.620        0.221       89.359       18.568        0.043      346.472       24.745      862.343
07/16/2014  03:10:00      -56.265       21.613      -10.999       18.870       14.724       15.971      356.080      216.787      255.078        0.229        0.041       60.273       13.880        0.053      346.590       24.945      862.331
07/16/2014  03:11:00     -106.091      -33.695      -13.698       26.056       27.068       17.579      678.891      732.654      309.024        0.715        0.086      111.313       17.264        0.024      346.582       24.935      862.349
07/16/2014  03:12:00     -101.576      -45.911      -10.331       26.598       19.348       13.461      707.466      374.351      181.189        0.690        0.063      111.470       10.713        0.009      346.416       24.648      862.354
07/16/2014  03:13:00     -118.103      -60.545       -3.785       46.031       27.012       22.217     2118.827      729.632      493.583        1.048        0.167      132.718       21.713        0.027      346.378       24.581      862.373
07/16/2014  03:14:00      -84.882       -8.657        0.676       66.514       18.102       17.608     4424.140      327.684      310.036        0.617        0.253       85.323       26.248        0.095      346.396       24.613      862.368
07/16/2014  03:15:00       -7.223       72.096       -1.010       40.807       77.503       26.463     1665.190     6006.659      700.280        0.681        0.419       72.457       27.771        0.147      346.462       24.727      862.324
07/16/2014  03:16:00        6.538        8.395       -1.037       30.011       29.789       20.561      900.662      887.393      422.755        0.116        0.111       10.640       15.197        2.040      346.594       24.953      862.315
07/16/2014  03:17:00      -61.322       -4.343        2.452       35.015       39.142       23.782     1226.069     1532.113      565.586        0.355        0.166       61.476       16.770        0.074      346.622       25.000      862.329
07/16/2014  03:18:00      -35.864       -4.373       -3.140       29.919       30.075       17.822      895.144      904.493      317.633        0.172        0.106       36.129        9.218        0.065      346.642       25.036      862.335
07/16/2014  03:19:00      -74.666      -45.043       -0.439       28.187       22.749       21.677      794.511      517.508      469.880        0.469        0.089       87.200       14.224        0.027      346.485       24.766      862.349
07/16/2014  03:20:00      -87.138        8.816       -1.506       49.580       30.951       18.311     2458.152      957.936      335.277        0.571        0.188       87.583       24.520        0.078      346.519       24.825      862.340
07/16/2014  03:21:00     -108.013       98.552      -20.221       31.005       73.318       26.119      961.313     5375.539      682.223        1.440        0.351      146.216       27.986        0.037      346.613       24.986      862.349
07/16/2014  03:22:00      -68.365       38.164      -12.595       46.924       30.063       17.560     2201.859      903.803      308.350        0.485        0.171       78.296       15.632        0.040      346.732       25.191      862.337
07/16/2014  03:23:00      -46.511       -0.601        2.577       40.816       16.507       14.201     1665.945      272.466      201.667        0.215        0.107       46.515       16.548        0.127      346.523       24.832      862.338
07/16/2014  03:24:00      -91.458       -4.070       -7.684       28.627       37.449       20.197      819.501     1402.416      407.923        0.553        0.131       91.549       23.716        0.067      346.643       25.038      862.362
07/16/2014  03:25:00      -19.056       47.615       -7.443       30.085       18.875       14.446      905.126      356.284      208.696        0.208        0.074       51.286       12.278        0.057      346.641       25.034      862.364
07/16/2014  03:26:00      -22.988       16.372       -4.248       18.354       17.133       11.278      336.877      293.535      127.183        0.079        0.038       28.223        7.146        0.064      346.535       24.852      862.362
07/16/2014  03:27:00      -24.981       18.664       -9.842       34.811       16.218       14.848     1211.821      263.037      220.478        0.138        0.085       31.183       18.904        0.367      346.596       24.956      862.361
07/16/2014  03:28:00      -65.238      -53.764        3.512       37.122       30.301       26.839     1378.074      918.177      720.349        0.509        0.151       84.537       28.708        0.115      346.673       25.088      862.369
07/16/2014  03:29:00       -3.686      -36.421       15.322       17.734       27.056       19.045      314.492      732.020      362.702        0.149        0.070       36.607       11.556        0.100      346.509       24.807      862.384
07/16/2014  03:30:00       20.592       12.082       18.019       17.767       37.288       16.767      315.682     1390.396      281.135        0.144        0.099       23.874       10.812        0.205      346.463       24.729      862.386
07/16/2014  03:31:00        9.884       31.085      -14.799       14.575       16.517        9.254      212.443      272.799       85.632        0.093        0.029       32.619        7.826        0.058      346.292       24.434      862.390
07/16/2014  03:32:00       32.266        5.261        2.583       11.728        7.158        7.081      137.551       51.236       50.135        0.066        0.012       32.692        5.326        0.027      346.529       24.842      862.418
07/16/2014  03:33:00       15.104        1.829        4.458       15.322        5.644        6.913      234.779       31.852       47.791        0.028        0.016       15.214        5.944        0.153      346.329       24.498      862.418
07/16/2014  03:34:00       25.484       17.181       21.317       13.524       22.115       16.512      182.892      489.077      272.641        0.117        0.047       30.734       13.576        0.195      346.171       24.226      862.403
07/16/2014  03:35:00       10.129       27.809       -0.039       20.812        9.714       12.351      433.149       94.353      152.559        0.078        0.034       29.596       13.861        0.219      346.267       24.392      862.388
07/16/2014  03:36:00       -4.064        4.141       -2.983        9.484        4.286        5.993       89.941       18.367       35.919        0.009        0.007        5.802        6.574        1.284      346.435       24.681      862.404
07/16/2014  03:37:00      -45.519       27.386        3.151       43.621       15.566       15.157     1902.807      242.316      229.729        0.260        0.119       53.122       21.345        0.161      346.569       24.912      862.409
07/16/2014  03:38:00      -15.310       32.311        8.515       28.911       17.851       16.878      835.865      318.649      284.861        0.139        0.072       35.755       14.878        0.173      346.426       24.665      862.412
07/16/2014  03:39:00       23.019       39.222       10.798       18.277       18.367       12.708      334.041      337.363      161.487        0.151        0.042       45.478        7.277        0.026      346.506       24.802      862.404
07/16/2014  03:40:00        6.255       17.363        2.161       11.683       17.569        5.488      136.484      308.679       30.120        0.041        0.024       18.455        4.782        0.067      346.391       24.605      862.423
07/16/2014  03:41:00       26.696       41.332        0.228       18.629       25.577       12.774      347.028      654.166      163.177        0.179        0.058       49.204       11.111        0.051      346.397       24.616      862.421
07/16/2014  03:42:00       48.184       10.893       -3.275       23.644       30.306       16.147      559.045      918.449      260.731        0.209        0.087       49.400       14.554        0.087      346.223       24.315      862.418
07/16/2014  03:43:00        4.229       17.188       26.688       20.240       20.040       21.246      409.666      401.621      451.400        0.114        0.063       17.701       18.839        1.133      346.098       24.101      862.419
07/16/2014  03:44:00       27.437       -2.300       -1.703       10.821       13.865       16.183      117.086      192.228      261.874        0.067        0.029       27.533        6.287        0.052      346.460       24.723      862.421
07/16/2014  03:45:00       50.400       49.635        2.628       13.650       14.221       15.080      186.332      202.245      227.414        0.281        0.031       70.737       10.335        0.021      346.688       25.116      862.427
07/16/2014  03:46:00       53.700       48.675       -1.272       16.424       16.594       13.697      269.756      275.373      187.601        0.299        0.037       72.477       11.053        0.023      346.489       24.773      862.424
07/16/2014  03:47:00       32.593       48.225       -9.585       19.526       26.858       21.721      381.262      721.341      471.796        0.253        0.079       58.206       19.386        0.111      346.537       24.856      862.441
07/16/2014  03:48:00       10.289       50.700       -8.787       21.396       15.553       12.443      457.790      241.895      154.817        0.180        0.043       51.733        6.546        0.016      346.400       24.620      862.461
07/16/2014  03:49:00       -5.239       51.072       -8.444        9.626       16.389        5.809       92.667      268.596       33.743        0.155        0.020       51.340        6.358        0.015      346.390       24.606      862.485
07/16/2014  03:50:00        4.688       51.176        0.854       13.694       14.990       11.551      187.513      224.711      133.429        0.159        0.027       51.390       10.175        0.039      346.272       24.401      862.491
07/16/2014  03:51:00       77.919       49.016       19.008       28.268       19.873       16.128      799.073      394.948      260.102        0.514        0.073       92.054       13.303        0.021      346.349       24.532      862.466
07/16/2014  03:52:00       61.118       35.171        4.452       44.766       24.123       17.601     2004.001      581.928      309.792        0.394        0.145       70.516       12.061        0.029      346.262       24.383      862.459
07/16/2014  03:53:00       52.541       52.647        0.201       32.850       23.496       18.810     1079.108      552.050      353.827        0.376        0.099       74.380       10.847        0.021      346.211       24.296      862.481
07/16/2014  03:54:00       -3.119       64.280      -13.430       27.561       23.451       15.329      759.636      549.953      234.976        0.293        0.077       64.356       17.131        0.071      346.191       24.262      862.516
07/16/2014  03:55:00      -13.453       90.818      -14.429       16.094       16.783       10.796      259.003      281.664      116.556        0.465        0.033       91.809        6.667        0.005      346.176       24.234      862.538
07/16/2014  03:56:00       14.865       96.790       -6.787       18.988       15.014       12.195      360.554      225.418      148.718        0.518        0.037       97.925       10.055        0.011      346.162       24.212      862.541
07/16/2014  03:57:00       43.568       54.385       -1.028       29.490       22.030       16.774      869.650      485.338      281.381        0.325        0.082       69.684       15.014        0.046      346.119       24.137      862.544
07/16/2014  03:58:00       89.141       56.049       23.170       27.642       19.968       16.262      764.092      398.717      264.467        0.653        0.071      105.298        7.480        0.005      346.109       24.120      862.534
07/16/2014  03:59:00       94.888       47.145        6.176       23.946       27.339       21.336      573.395      747.434      455.236        0.652        0.089      105.955       15.025        0.020      345.988       23.912      862.521
07/16/2014  04:00:00       14.054       13.810       20.178       40.632       25.352       14.493     1650.989      642.725      210.039        0.165        0.125       19.704       10.991        0.311      346.004       23.940      862.536
07/16/2014  04:01:00       24.101       41.596       42.892       25.632       18.874       16.695      656.981      356.224      278.724        0.272        0.065       48.074        8.318        0.030      345.920       23.794      862.547
07/16/2014  04:02:00       26.913       36.707       27.559       20.882       15.491        9.983      436.076      239.966       99.655        0.180        0.039       45.516        3.904        0.007      345.864       23.699      862.547
07/16/2014  04:03:00       16.383       10.371        6.458       14.529       12.004        8.090      211.094      144.107       65.441        0.042        0.021       19.390        6.525        0.113      345.884       23.735      862.572
07/16/2014  04:04:00       27.492       16.618        5.819        9.132       12.788       10.629       83.387      163.531      112.977        0.071        0.018       32.124        5.652        0.031      345.942       23.834      862.568
07/16/2014  04:05:00       25.080       -6.925       -0.836        8.787       12.629        6.532       77.213      159.482       42.661        0.048        0.014       26.018        5.128        0.039      345.928       23.811      862.562
07/16/2014  04:06:00        5.899       -7.295       16.996       10.348       26.299       16.551      107.084      691.612      273.951        0.072        0.054        9.382       18.803        4.017      345.883       23.734      862.536
07/16/2014  04:07:00        2.095       29.385       40.985       20.586       20.032       20.137      423.789      401.264      405.511        0.189        0.062       29.460       16.506        0.314      345.779       23.555      862.508
07/16/2014  04:08:00        1.014        8.514       20.194       16.153       19.297       16.301      260.933      372.391      265.720        0.069        0.045        8.575       14.985        3.054      345.802       23.591      862.523
07/16/2014  04:09:00       41.999       37.710       10.361       15.549       11.202       10.052      241.762      125.485      101.036        0.188        0.023       56.444        6.026        0.011      345.833       23.648      862.522
07/16/2014  04:10:00       -9.629       17.875       -0.731       31.960        7.628        9.490     1021.433       58.179       90.053        0.079        0.058       20.304       13.296        0.429      345.860       23.693      862.534
07/16/2014  04:11:00      -56.701       32.794      -11.027       12.252       14.619        7.414      150.099      213.711       54.962        0.242        0.021       65.501        6.066        0.009      345.779       23.552      862.542
07/16/2014  04:12:00       36.811       61.704       -4.735       36.040       27.567       24.019     1298.875      759.953      576.910        0.391        0.132       71.850       15.439        0.046      346.214       24.302      862.536
07/16/2014  04:13:00       28.549       30.763       -1.296       28.805       32.358       19.345      829.731     1047.069      374.238        0.201        0.113       41.969       13.479        0.103      346.122       24.143      862.532
07/16/2014  04:14:00       -9.565       33.094       49.158       12.974       21.840       16.003      168.321      476.990      256.103        0.225        0.045       34.449       15.987        0.215      345.760       23.520      862.536
07/16/2014  04:15:00       10.867       23.478       20.694       27.542       15.075       11.161      758.582      227.248      124.576        0.110        0.056       25.871       12.974        0.252      345.734       23.477      862.543
07/16/2014  04:16:00       55.851       49.784       19.225       20.949       13.005       14.186      438.862      169.142      201.254        0.339        0.040       74.818        9.861        0.017      346.072       24.058      862.535
07/16/2014  04:17:00      -27.175        4.099       -4.542       14.647       13.502       12.674      214.530      182.296      160.626        0.067        0.028       27.482        8.132        0.088      346.013       23.956      862.542
07/16/2014  04:18:00       -3.542      -28.198        3.260       10.086        8.421        7.761      101.730       70.909       60.235        0.053        0.012       28.420        2.633        0.009      345.921       23.798      862.552
07/16/2014  04:19:00       67.956       10.932        2.493       21.773       16.006       13.458      474.084      256.207      181.109        0.283        0.046       68.830        4.451        0.004      346.073       24.059      862.550
07/16/2014  04:20:00       17.402       26.930       14.319       31.927       16.771       15.101     1019.336      281.271      228.031        0.138        0.076       32.064       13.066        0.166      345.910       23.780      862.537
07/16/2014  04:21:00       -6.348       -3.801       -1.021       24.086       13.883        9.822      580.117      192.737       96.472        0.046        0.043        7.400        6.934        0.878      345.946       23.843      862.555
07/16/2014  04:22:00       75.960       49.789       21.947       18.966       30.973       20.460      359.701      959.331      418.612        0.523        0.087       90.824       18.281        0.041      345.973       23.887      862.546
07/16/2014  04:23:00       29.249       29.735       27.042       34.751       29.878       16.642     1207.651      892.688      276.959        0.242        0.119       41.709       19.717        0.223      345.814       23.612      862.554
07/16/2014  04:24:00      -18.057      -44.650       -6.512       19.102       21.756       12.698      364.901      473.338      161.228        0.168        0.050       48.163       10.831        0.051      345.840       23.658      862.592
07/16/2014  04:25:00       10.832       11.978       16.345       12.106       11.837        9.425      146.545      140.125       88.829        0.045        0.019       16.149        6.139        0.144      345.750       23.503      862.604
07/16/2014  04:26:00       -5.565       19.276        0.103       13.390        6.808       10.435      179.287       46.355      108.896        0.037        0.017       20.063        4.046        0.041      345.922       23.799      862.604
07/16/2014  04:27:00       39.480       51.466        4.572       23.665       16.178       11.551      560.020      261.733      133.426        0.259        0.048       64.865        6.506        0.010      345.945       23.838      862.604
07/16/2014  04:28:00       62.968       62.129       -5.741       26.843       23.437       20.782      720.573      549.292      431.889        0.478        0.085       88.459       18.129        0.042      345.764       23.528      862.591
07/16/2014  04:29:00       81.281       38.869       -2.010       39.452       27.428       14.485     1556.441      752.312      209.812        0.532        0.126       90.096        8.690        0.009      345.860       23.693      862.572
07/16/2014  04:30:00      -32.805       45.462      -14.775       34.492       23.355       19.608     1189.675      545.471      384.459        0.274        0.106       56.062       18.083        0.104      345.886       23.736      862.598
07/16/2014  04:31:00      -43.605       81.050      -11.396       36.433       25.584       15.996     1327.347      654.518      255.879        0.542        0.112       92.035       17.189        0.035      345.842       23.662      862.611
07/16/2014  04:32:00       53.017       53.116       26.264       57.698       45.870       35.546     3329.078     2104.092     1263.526        0.651        0.335       75.048       29.903        0.159      345.893       23.749      862.576
07/16/2014  04:33:00      -67.659      -28.151       11.395       42.972       38.145       26.851     1846.563     1455.032      720.965        0.476        0.201       73.282       26.366        0.129      345.828       23.639      862.587
07/16/2014  04:34:00      -25.594       12.471      -12.378       32.179       18.985       13.187     1035.488      360.412      173.892        0.127        0.078       28.471       18.950        0.443      345.853       23.681      862.611
07/16/2014  04:35:00      -30.979       17.268      -15.471       18.791       20.057       10.607      353.104      402.301      112.499        0.118        0.043       35.466        8.635        0.059      346.013       23.955      862.626
07/16/2014  04:36:00      -13.143      -22.810       -1.872       19.782       11.534       10.527      391.333      133.024      110.810        0.067        0.032       26.325       12.010        0.208      346.042       24.006      862.634
07/16/2014  04:37:00       13.003       -8.316       12.894       13.911       10.501       16.049      193.523      110.269      257.560        0.048        0.028       15.435       12.204        0.625      345.860       23.694      862.630
07/16/2014  04:38:00      -13.932      -17.135        2.414       17.611       12.531       16.171      310.149      157.026      261.495        0.061        0.036       22.084       12.391        0.315      345.728       23.467      862.621
07/16/2014  04:39:00      -15.676        0.933       11.823       10.121       15.202       10.950      102.444      231.112      119.893        0.042        0.023       15.704        7.604        0.234      345.634       23.305      862.626
07/16/2014  04:40:00      -10.398      -18.613       -4.021        6.126        7.583        6.418       37.529       57.506       41.186        0.030        0.007       21.321        4.611        0.047      345.718       23.449      862.637
07/16/2014  04:41:00       -3.893      -12.846       -2.602       16.194        6.388        3.700      262.255       40.807       13.688        0.025        0.016       13.423        5.996        0.200      346.079       24.065      862.655
07/16/2014  04:42:00       54.786       21.741       13.089       12.431       13.753       12.781      154.520      189.148      163.364        0.208        0.025       58.942        7.302        0.015      345.898       23.756      862.655
07/16/2014  04:43:00        2.230        9.325        3.310       27.942       15.579       14.079      780.747      242.717      198.212        0.066        0.061        9.588       12.307        1.648      345.818       23.619      862.676
07/16/2014  04:44:00        4.545       18.341        3.687       26.291       11.348       10.676      691.192      128.784      113.972        0.065        0.047       18.896       15.460        0.669      346.062       24.040      862.687
07/16/2014  04:45:00       71.888       51.896       18.958       23.378       23.224       19.010      546.542      539.348      361.382        0.483        0.072       88.663       15.110        0.029      345.962       23.869      862.671
07/16/2014  04:46:00       61.211       38.382        5.337       29.084       22.614       18.820      845.859      511.385      354.188        0.348        0.086       72.250       10.510        0.021      345.862       23.696      862.674
07/16/2014  04:47:00       -2.931        5.136       -3.495       28.061       19.234       13.335      787.393      369.948      177.828        0.069        0.067        5.914       12.508        4.473      345.904       23.768      862.711
07/16/2014  04:48:00        5.836       15.812        4.399       19.409       16.282       13.731      376.727      265.112      188.548        0.057        0.042       16.854        7.631        0.205      345.813       23.611      862.738
07/16/2014  04:49:00       26.916       23.246       10.368       20.254       10.549       10.482      410.220      111.289      109.881        0.100        0.032       35.564        8.113        0.052      345.886       23.737      862.750
07/16/2014  04:50:00        3.661       14.349       11.593       15.679       21.125       14.009      245.846      446.274      196.241        0.062        0.044       14.809       13.073        0.779      345.855       23.683      862.757
07/16/2014  04:51:00       20.923      -34.171      -11.525       21.656       24.610       12.449      468.980      605.630      154.985        0.148        0.061       40.068       15.151        0.143      345.860       23.692      862.760
07/16/2014  04:52:00       15.382      -78.743       -9.978       13.967       13.877       14.843      195.074      192.581      220.327        0.357        0.030       80.231        6.705        0.007      346.036       23.995      862.755
07/16/2014  04:53:00       -5.620      -55.587        1.936       25.261       13.704       12.820      638.138      187.791      164.353        0.206        0.050       55.871        8.465        0.023      346.213       24.299      862.771
07/16/2014  04:54:00      -21.626      -27.264       -5.223       17.811       15.772       11.498      317.214      248.770      132.198        0.097        0.035       34.799        9.908        0.081      346.171       24.225      862.783
07/16/2014  04:55:00       15.506       22.197        0.486       14.856       16.578        8.202      220.698      274.834       67.277        0.065        0.028       27.077        7.637        0.080      346.113       24.126      862.779
07/16/2014  04:56:00        6.207       25.906       -2.046        9.071       10.641       10.827       82.290      113.225      117.221        0.051        0.016       26.639        5.240        0.039      346.202       24.280      862.769
07/16/2014  04:57:00       -3.614       31.136       -4.562       11.759       12.015        6.104      138.276      144.356       37.258        0.066        0.016       31.345        6.350        0.041      346.203       24.286      862.776
07/16/2014  04:58:00        0.003       29.990       -3.803       12.764       12.816        5.721      162.925      164.258       32.733        0.064        0.018       29.990        5.836        0.038      346.359       24.550      862.791
07/16/2014  04:59:00       33.852       30.946       11.335       16.670       11.776        9.344      277.904      138.667       87.309        0.137        0.025       45.865        6.781        0.022      346.249       24.359      862.796
07/16/2014  05:00:00       33.749       36.477        8.471       23.940       14.587       13.638      573.125      212.794      185.982        0.176        0.049       49.695       10.458        0.044      345.922       23.801      862.803
07/16/2014  05:01:00       -0.615       54.291       -8.129       22.054       15.364        6.669      486.384      236.053       44.476        0.189        0.038       54.295        5.009        0.009      345.875       23.720      862.816
07/16/2014  05:02:00      -22.496       35.728       -5.120        9.294       18.033        3.841       86.385      325.187       14.754        0.112        0.021       42.221        5.023        0.014      345.933       23.819      862.830
07/16/2014  05:03:00      -11.125        9.086       -0.606        9.976       11.362        6.413       99.520      129.100       41.123        0.024        0.013       14.364        6.607        0.212      345.935       23.822      862.841
07/16/2014  05:04:00        9.824        1.792       -1.405        7.928        9.273        6.968       62.852       85.985       48.559        0.015        0.010        9.986        6.553        0.431      345.964       23.870      862.849
07/16/2014  05:05:00       -5.513       16.031        7.627        6.270        7.595        8.462       39.307       57.684       71.598        0.026        0.008       16.952        2.811        0.027      345.937       23.825      862.864
07/16/2014  05:06:00       -5.564        1.580        8.945        8.322        6.376        4.227       69.264       40.658       17.866        0.012        0.006        5.784        3.988        0.476      345.814       23.612      862.872
07/16/2014  05:07:00       16.073       -9.105        2.651       10.707       15.836        7.472      114.639      250.792       55.832        0.038        0.021       18.473        8.417        0.208      345.642       23.315      862.867
07/16/2014  05:08:00       32.339      -14.729        5.455       17.894       12.240       12.183      320.180      149.816      148.431        0.096        0.031       35.535       12.002        0.114      345.589       23.228      862.850
07/16/2014  05:09:00        1.452        7.269       21.347        6.651        8.887        5.904       44.232       78.977       34.863        0.033        0.008        7.412        3.548        0.229      345.485       23.048      862.840
07/16/2014  05:10:00       -4.674      -14.886        9.631        9.260       20.762        8.589       85.740      431.076       73.775        0.046        0.030       15.603        7.957        0.260      345.496       23.067      862.845
07/16/2014  05:11:00        7.869      -18.537        7.757        7.896       12.502       10.030       62.349      156.292      100.600        0.039        0.016       20.138        8.341        0.172      345.577       23.204      862.863
07/16/2014  05:12:00        6.326        3.917        7.631        6.133        6.232        8.652       37.618       38.839       74.855        0.013        0.008        7.441        5.904        0.630      345.467       23.018      862.891
07/16/2014  05:13:00       25.062       -6.950        8.649       10.484       11.723       10.930      109.918      137.419      119.459        0.056        0.018       26.008        7.919        0.093      345.599       23.245      862.913
07/16/2014  05:14:00       16.455       33.001        9.513       15.620       16.265       13.333      244.000      264.541      177.773        0.107        0.034       36.876        4.947        0.018      345.583       23.217      862.937
07/16/2014  05:15:00       53.548       34.843       13.649       15.421       13.645       11.688      237.814      186.181      136.605        0.241        0.028       63.886        6.804        0.011      345.607       23.257      862.947
07/16/2014  05:16:00       61.407       39.084        7.939       24.683       17.830       10.343      609.243      317.913      106.984        0.320        0.052       72.790        5.600        0.006      345.707       23.430      862.959
07/16/2014  05:17:00       14.400       16.352       -6.074       16.540       14.121       10.084      273.577      199.412      101.680        0.054        0.029       21.789        8.840        0.165      345.671       23.369      862.973
07/16/2014  05:18:00        7.043       15.586       -4.637        6.716       11.084        5.833       45.104      122.844       34.021        0.026        0.010       17.103        2.722        0.025      345.742       23.490      862.980
07/16/2014  05:19:00        2.844       16.449       -0.384        6.918       12.936        7.173       47.857      167.351       51.450        0.027        0.013       16.693        4.804        0.083      345.815       23.615      862.984
07/16/2014  05:20:00       58.295       46.491        4.166       32.544       31.016       20.901     1059.129      961.979      436.861        0.402        0.123       74.563       20.002        0.072      345.849       23.673      862.989
07/16/2014  05:21:00       -1.286       67.894       -8.936       19.755       16.521       10.809      390.247      272.928      116.827        0.274        0.039       67.906        8.679        0.016      345.913       23.783      863.000
07/16/2014  05:22:00      -39.383       47.568       -8.526       13.585       18.926        8.270      184.550      358.204       68.399        0.225        0.031       61.755        8.231        0.018      345.811       23.608      862.997
07/16/2014  05:23:00      -28.912       82.177      -15.932       19.488       17.793        7.127      379.791      316.591       50.800        0.429        0.037       87.115        6.552        0.006      345.878       23.721      862.996
07/16/2014  05:24:00      -17.902       65.478      -10.299       21.682       29.192        7.763      470.111      852.187       60.270        0.305        0.069       67.882        4.742        0.005      345.765       23.531      862.999
07/16/2014  05:25:00      -31.212        3.554        2.471       15.066        8.721        7.986      226.986       76.058       63.784        0.068        0.018       31.414        7.094        0.051      345.491       23.059      862.996
07/16/2014  05:26:00      -16.175       12.968       -2.353        9.589       12.925        9.114       91.957      167.062       83.065        0.039        0.017       20.731        9.231        0.198      345.575       23.204      863.000
07/16/2014  05:27:00      -24.669       21.815       -5.705       12.487       14.394        6.619      155.929      207.193       43.810        0.076        0.020       32.931        4.651        0.020      345.690       23.402      863.001
07/16/2014  05:28:00      -42.063       -7.443       -4.105       13.691       11.469        6.693      187.436      131.541       44.801        0.110        0.018       42.717        6.166        0.021      345.418       22.933      863.003
07/16/2014  05:29:00      -90.629      -12.396      -12.917       19.703       13.114       12.523      388.212      171.973      156.827        0.463        0.036       91.473        5.946        0.004      344.945       22.125      863.004
07/16/2014  05:30:00     -101.875       -2.352      -10.795       34.790       27.229       15.668     1210.358      741.417      245.489        0.635        0.110      101.902       11.887        0.014      344.838       21.943      863.014
07/16/2014  05:31:00      -84.436       -0.912       -4.706       34.847       34.526       20.053     1214.326     1192.061      402.126        0.498        0.140       84.441       16.019        0.036      344.721       21.741      863.024
07/16/2014  05:32:00      -79.439      -25.979      -10.396       39.695       33.977       15.188     1575.732     1154.408      230.685        0.503        0.148       83.579       15.744        0.035      344.696       21.699      863.028
07/16/2014  05:33:00      -77.946      -18.776       -0.396       42.852       31.970       20.612     1836.288     1022.054      424.839        0.486        0.164       80.175       20.144        0.063      344.644       21.609      863.038
07/16/2014  05:34:00      -54.936      -51.586       -1.989       23.643       20.294       10.375      558.971      411.831      107.642        0.338        0.054       75.360        6.955        0.009      344.726       21.749      863.032
07/16/2014  05:35:00      -52.897      -16.307        0.376       30.246       16.112       10.200      914.826      259.588      104.031        0.217        0.064       55.354        9.766        0.031      344.755       21.799      863.022
07/16/2014  05:36:00      -69.886        1.744       -4.957        7.554        6.912        6.358       57.065       47.776       40.420        0.253        0.007       69.908        3.048        0.002      344.883       22.017      863.018
07/16/2014  05:37:00      -82.838       13.327      -10.974       11.893       10.352        6.977      141.451      107.163       48.680        0.373        0.015       83.904        3.268        0.002      344.767       21.818      863.021
07/16/2014  05:38:00      -83.074      -17.243       -7.165       14.172       13.249       10.146      200.839      175.548      102.942        0.386        0.024       84.844        9.009        0.011      344.831       21.928      863.027
07/16/2014  05:39:00      -80.560      -13.359       -0.909       16.958       12.887       12.524      287.562      166.065      156.847        0.364        0.031       81.660        9.248        0.013      344.843       21.949      863.036
07/16/2014  05:40:00      -91.156      -35.858       -1.680       18.113       16.971        8.956      328.090      288.000       80.212        0.515        0.035       97.955        7.339        0.006      344.874       22.001      863.041
07/16/2014  05:41:00      -92.810      -40.197       -9.866       14.231       11.689        9.519      202.511      136.624       90.611        0.538        0.021      101.141        6.955        0.005      344.730       21.755      863.043
07/16/2014  05:42:00      -70.146      -14.109       -2.717       16.113       20.153       12.198      259.643      406.131      148.794        0.297        0.041       71.551        7.494        0.011      344.657       21.632      863.038
07/16/2014  05:43:00      -85.657       -9.806       -6.124       22.377       16.116       10.935      500.722      259.716      119.570        0.418        0.044       86.216        8.394        0.009      344.887       22.026      863.047
07/16/2014  05:44:00      -50.251        1.479        0.386       20.476       11.419        9.916      419.247      130.403       98.335        0.159        0.032       50.273       10.722        0.045      344.772       21.827      863.055
07/16/2014  05:45:00      -56.901      -11.521       -7.220       13.163        9.634        7.858      173.267       92.812       61.741        0.188        0.016       58.055        7.799        0.018      344.831       21.929      863.057
07/16/2014  05:46:00      -72.909      -15.073      -14.453        6.831        7.562        5.868       46.667       57.189       34.439        0.295        0.007       74.451        2.489        0.001      344.869       21.996      863.066
07/16/2014  05:47:00      -70.614      -14.482      -11.689        7.443        6.821        5.621       55.397       46.521       31.593        0.273        0.007       72.083        3.380        0.002      344.853       21.967      863.081
07/16/2014  05:48:00      -41.838       21.340       -4.771       16.390       11.845        8.074      268.621      140.295       65.187        0.135        0.024       46.966        3.742        0.006      345.665       23.358      863.103
07/16/2014  05:49:00      -29.079       -4.800       -0.282       11.966       22.482       10.901      143.185      505.450      118.841        0.082        0.038       29.472       10.672        0.131      345.363       22.840      863.111
07/16/2014  05:50:00      -68.641      -41.063      -10.492       25.544       20.187       12.666      652.513      407.505      160.425        0.386        0.061       79.986        4.841        0.004      344.727       21.752      863.126
07/16/2014  05:51:00      -71.481      -44.279      -13.307       17.896       12.700       11.524      320.264      161.291      132.792        0.393        0.031       84.085        5.613        0.004      344.619       21.566      863.137
07/16/2014  05:52:00     -103.466      -32.152       -9.036       14.512        9.850        9.203      210.611       97.013       84.688        0.611        0.020      108.347        7.602        0.005      344.628       21.583      863.155
07/16/2014  05:53:00      -82.891      -39.104       -2.334       28.240       10.651       10.726      797.516      113.454      115.055        0.472        0.051       91.651       11.118        0.015      344.610       21.550      863.162
07/16/2014  05:54:00      -42.261      -42.115       -4.784       13.222       13.541       10.996      174.824      183.371      120.916        0.203        0.024       59.663        6.791        0.013      344.690       21.687      863.179
07/16/2014  05:55:00      -60.730      -40.366       -0.694       32.284       10.716       11.964     1042.236      114.830      143.139        0.331        0.065       72.921       12.011        0.027      344.733       21.760      863.200
07/16/2014  05:56:00      -95.900      -54.594       -1.106       30.287       21.418       15.711      917.277      458.747      246.830        0.690        0.081      110.351        4.704        0.002      344.649       21.618      863.219
07/16/2014  05:57:00      -82.340      -65.752        0.921       37.110       33.786       21.377     1377.169     1141.462      456.958        0.704        0.149      105.372       14.869        0.020      344.710       21.723      863.231
07/16/2014  05:58:00      -87.957      -77.508       -0.939       36.864       28.531       23.517     1358.931      814.000      553.054        0.823        0.136      117.234       21.358        0.033      344.930       22.099      863.237
07/16/2014  05:59:00      -53.663     -103.263       -3.990       29.691       36.133       19.431      881.572     1305.593      377.567        0.806        0.128      116.375        9.043        0.006      345.072       22.342      863.240
07/16/2014  06:00:00      -49.613     -111.144        6.004       47.034       45.804       21.035     2212.187     2098.007      442.455        0.980        0.238      121.715       16.058        0.017      345.255       22.656      863.237
07/16/2014  06:01:00      -52.434     -102.778        3.328       36.842       45.814       25.406     1357.343     2098.916      645.470        0.871        0.205      115.381       19.977        0.030      345.301       22.733      863.245
07/16/2014  06:02:00      -73.252      -94.188       -0.121       32.468       59.948       22.541     1054.159     3593.814      508.078        0.970        0.258      119.320       19.042        0.025      345.459       23.003      863.245
07/16/2014  06:03:00      -57.336      -62.296        5.502       31.979       43.966       17.627     1022.672     1933.027      310.728        0.523        0.163       84.665       15.268        0.033      345.309       22.748      863.243
07/16/2014  06:04:00      -64.505      -36.933        0.188       46.544       21.598       19.305     2166.383      466.494      372.694        0.426        0.150       74.330       25.254        0.115      345.138       22.454      863.250
07/16/2014  06:05:00      -66.606      -33.729       -3.454       22.326       16.670        8.130      498.434      277.888       66.099        0.321        0.042       74.660        5.580        0.006      345.017       22.248      863.259
07/16/2014  06:06:00      -39.810      -37.810       -0.188       13.255       11.281        6.843      175.707      127.256       46.828        0.168        0.017       54.904        2.572        0.002      345.038       22.284      863.264
07/16/2014  06:07:00      -59.347      -46.939       -0.313       25.765       19.498       18.538      663.819      380.185      343.652        0.356        0.069       75.666       15.137        0.040      345.143       22.463      863.266
07/16/2014  06:08:00      -26.279       -9.903        8.883       43.235       15.594       13.200     1869.267      243.168      174.232        0.158        0.114       28.083       20.409        0.528      345.145       22.464      863.267
07/16/2014  06:09:00       -1.886      -23.936        5.239       17.745       12.842       15.484      314.886      164.923      239.756        0.066        0.036       24.010       11.083        0.213      345.043       22.291      863.278
07/16/2014  06:10:00      -19.001      -39.885        2.128       16.722       15.281       11.403      279.613      233.523      130.026        0.130        0.032       44.180        9.825        0.049      345.091       22.373      863.288
07/16/2014  06:11:00      -52.041      -27.271        5.902       23.939       19.806       13.663      573.099      392.282      186.669        0.232        0.058       58.754       15.214        0.067      344.903       22.052      863.294
07/16/2014  06:12:00      -40.844       -5.523       -1.560       24.768       15.917        9.750      613.457      253.344       95.056        0.133        0.048       41.215       12.385        0.090      344.797       21.871      863.299
07/16/2014  06:13:00      -42.319        7.625        0.449       19.631        9.590       10.858      385.377       91.975      117.898        0.122        0.030       43.001        8.525        0.039      344.749       21.787      863.294
07/16/2014  06:14:00      -84.783        3.303       -8.305       24.190       18.657       12.430      585.140      348.084      154.512        0.418        0.054       84.847       10.325        0.015      344.716       21.733      863.295
07/16/2014  06:15:00      -93.045        0.452      -10.249       22.629       22.197       14.706      512.087      492.727      216.268        0.499        0.061       93.046       12.580        0.018      344.532       21.418      863.294
07/16/2014  06:16:00      -52.547       19.118       -6.023       36.826       26.809       18.846     1356.119      718.729      355.191        0.280        0.122       55.917       18.055        0.104      344.481       21.330      863.288
07/16/2014  06:17:00      -75.823       25.312        1.224       32.893       27.994       18.900     1081.971      783.689      357.219        0.431        0.111       79.936       19.132        0.057      344.649       21.618      863.281
07/16/2014  06:18:00      -88.717       14.984       -7.456       27.280       23.273       17.576      744.207      541.634      308.918        0.487        0.080       89.974       16.057        0.032      344.431       21.244      863.289
07/16/2014  06:19:00      -87.740       -0.715       -8.002       21.026       27.609       16.084      442.093      762.283      258.683        0.461        0.073       87.743       13.412        0.023      344.376       21.152      863.301
07/16/2014  06:20:00      -82.833      -19.823       -1.950       18.950       25.419       18.409      359.108      646.111      338.887        0.430        0.067       85.172       12.984        0.023      344.411       21.211      863.308
07/16/2014  06:21:00      -64.262       -2.962       -2.723       23.844       28.688       14.854      568.531      823.006      220.637        0.288        0.081       64.330        6.076        0.009      344.354       21.111      863.312
07/16/2014  06:22:00      -81.451       45.657      -14.443       25.063       25.479       14.476      628.178      649.173      209.545        0.521        0.074       93.375       14.052        0.023      344.514       21.386      863.314
07/16/2014  06:23:00      -74.343       82.293      -16.686       24.247       31.337       17.568      587.903      982.023      308.645        0.723        0.094      110.901       15.029        0.018      344.764       21.813      863.306
07/16/2014  06:24:00      -29.019       60.465       -6.644       24.198       20.936       12.015      585.555      438.309      144.372        0.286        0.058       67.068       13.262        0.039      344.691       21.689      863.315
07/16/2014  06:25:00      -12.210       36.094        1.776       25.888       38.402       16.951      670.189     1474.713      287.326        0.194        0.122       38.103       15.199        0.159      344.720       21.738      863.315
07/16/2014  06:26:00       13.730      -22.361       17.372       21.734       18.545       11.421      472.380      343.924      130.439        0.097        0.047       26.240        4.883        0.035      344.791       21.861      863.326
07/16/2014  06:27:00      -14.483      -29.788        1.446       36.033       19.330       15.774     1298.357      373.645      248.806        0.151        0.096       33.122       16.584        0.251      344.569       21.480      863.341
07/16/2014  06:28:00      -14.110      -11.366       10.899       37.335       16.417       21.249     1393.906      269.526      451.517        0.128        0.106       18.118       24.276        1.795      344.538       21.427      863.344
07/16/2014  06:29:00      -77.500      -23.845       -5.781       17.733       15.187       10.323      314.470      230.651      106.570        0.363        0.033       81.085        8.937        0.012      344.550       21.447      863.348
07/16/2014  06:30:00      -70.053       -8.603       -6.473       21.360       25.515       13.289      456.236      651.016      176.605        0.315        0.064       70.579       10.272        0.021      344.771       21.824      863.348
07/16/2014  06:31:00     -100.896      -20.641       -9.433       30.431       37.033       18.385      926.069     1371.466      337.992        0.666        0.132      102.986       13.248        0.017      344.731       21.758      863.350
07/16/2014  06:32:00      -73.344      -22.948        4.809       33.709       34.406       18.151     1136.273     1183.800      329.445        0.429        0.132       76.850       15.537        0.041      344.718       21.734      863.354
07/16/2014  06:33:00      -88.404       -8.138        6.750       29.676       34.939       20.423      880.640     1220.709      417.118        0.522        0.126       88.778       14.982        0.028      344.797       21.872      863.352
07/16/2014  06:34:00      -95.862      -22.210       -2.795       26.319       32.075       20.723      692.685     1028.779      429.460        0.592        0.108       98.401       14.190        0.021      344.860       21.977      863.357
07/16/2014  06:35:00      -84.774      -13.388       -4.198       24.404       24.909       15.200      595.566      620.459      231.031        0.442        0.072       85.825       11.499        0.018      344.891       22.031      863.360
07/16/2014  06:36:00      -56.742      -33.703       -5.022       26.196       24.059       12.693      686.226      578.835      161.102        0.290        0.071       65.997        9.649        0.021      344.929       22.097      863.368
07/16/2014  06:37:00     -122.038      -27.271      -13.639       23.917       33.688       15.626      572.042     1134.895      244.175        0.889        0.098      125.048       12.363        0.010      344.996       22.211      863.373
07/16/2014  06:38:00     -110.085      -42.606      -10.143       28.745       26.419       15.580      826.301      697.963      242.740        0.790        0.088      118.042        7.283        0.004      344.959       22.148      863.368
07/16/2014  06:39:00      -59.263      -20.492        4.174       32.965       18.339       14.834     1086.712      336.314      220.060        0.280        0.082       62.706       14.849        0.056      344.941       22.118      863.359
07/16/2014  06:40:00      -58.133      -32.613        2.689       23.855       22.643       12.079      569.059      512.711      145.904        0.284        0.061       66.656        9.605        0.021      344.949       22.132      863.346
07/16/2014  06:41:00      -71.487      -16.194        0.501       27.582       22.787       12.668      760.773      519.253      160.468        0.341        0.072       73.299        9.487        0.017      344.931       22.099      863.342
07/16/2014  06:42:00     -126.413      -38.904       -4.534       31.946       22.967       15.923     1020.537      527.460      253.549        0.966        0.090      132.264       14.020        0.011      344.940       22.117      863.346
07/16/2014  06:43:00      -84.335       -9.776        0.656       36.061       24.096       20.765     1300.405      580.618      431.187        0.476        0.116       84.899       22.235        0.069      344.897       22.043      863.352
07/16/2014  06:44:00     -104.214       28.439       -4.419       20.140       32.523       15.774      405.600     1057.738      248.825        0.670        0.086      108.025        4.256        0.002      344.961       22.151      863.346
07/16/2014  06:45:00      -60.706        5.044       -8.658       25.657       28.264       15.940      658.256      798.877      254.073        0.275        0.086       60.915       15.684        0.066      344.913       22.070      863.348
07/16/2014  06:46:00     -129.326       14.139      -17.916       56.870       30.742       16.891     3234.192      945.053      285.300        1.085        0.223      130.097       19.734        0.023      345.035       22.278      863.351
07/16/2014  06:47:00     -101.470      -28.284       -8.966       45.728       27.164       22.339     2091.074      737.878      499.020        0.725        0.166      105.338       16.270        0.024      345.046       22.299      863.356
07/16/2014  06:48:00      -34.168       -9.710       -7.930       32.126       16.235       15.282     1032.094      263.569      233.529        0.143        0.076       35.521        8.616        0.059      345.085       22.366      863.333
07/16/2014  06:49:00      -84.524      -40.246      -12.070       53.967       33.919       24.755     2912.458     1150.501      612.790        0.679        0.234       93.617       19.216        0.042      345.006       22.229      863.332
07/16/2014  06:50:00      -55.609      -40.525        9.476       43.266       26.057       19.938     1871.920      678.959      397.511        0.389        0.147       68.809       26.174        0.145      344.996       22.210      863.326
07/16/2014  06:51:00      -58.788        6.570       -2.759       23.850       27.808       18.010      568.834      773.286      324.357        0.259        0.083       59.154       12.983        0.048      344.916       22.074      863.317
07/16/2014  06:52:00     -117.366        1.097       -4.482       48.702       30.058       17.559     2371.844      903.500      308.312        0.869        0.179      117.371       19.935        0.029      345.048       22.301      863.296
07/16/2014  06:53:00     -127.343      -58.550       -8.175       31.259       28.883       19.798      977.143      834.245      391.964        1.096        0.110      140.159       20.130        0.021      345.085       22.363      863.303
07/16/2014  06:54:00      -98.809       -2.267        1.706       49.745       42.149       23.544     2474.545     1776.531      554.302        0.729        0.240       98.835       23.081        0.055      345.173       22.513      863.304
07/16/2014  06:55:00     -100.665        1.411       -7.965       26.866       25.736       15.956      721.777      662.337      254.581        0.592        0.082      100.675       16.290        0.026      345.145       22.467      863.296
07/16/2014  06:56:00      -96.241       -4.050       -6.600       31.744       33.965       17.184     1007.688     1153.613      295.298        0.589        0.123       96.326       15.661        0.026      345.098       22.387      863.285
07/16/2014  06:57:00     -103.103       31.682       -5.312       19.669       23.029       14.784      386.868      530.343      218.577        0.640        0.057      107.861        6.392        0.004      345.103       22.394      863.299
07/16/2014  06:58:00      -77.218       22.627       -3.117       25.312       17.788       11.340      640.673      316.412      128.588        0.378        0.054       80.465        7.939        0.010      345.184       22.532      863.313
07/16/2014  06:59:00      -87.231       15.089      -14.199       24.187       18.161       11.398      585.012      329.818      129.925        0.454        0.052       88.526       10.010        0.013      345.211       22.579      863.317
07/16/2014  07:00:00      -46.192      -13.991       -3.074       28.315       16.097       12.552      801.730      259.099      157.544        0.178        0.061       48.265        9.933        0.042      345.213       22.583      863.321
07/16/2014  07:01:00      -43.951       -9.369       -1.674       17.765       13.026        9.647      315.590      169.677       93.061        0.130        0.029       44.938        5.549        0.015      345.190       22.545      863.321
07/16/2014  07:02:00      -60.443      -25.352       -6.962       35.480       14.343       11.058     1258.860      205.732      122.277        0.297        0.079       65.545       13.211        0.041      345.278       22.695      863.315
07/16/2014  07:03:00      -64.779      -41.020       -0.568       27.950       15.802       11.446      781.225      249.713      131.004        0.352        0.058       76.674        8.757        0.013      345.373       22.856      863.307
07/16/2014  07:04:00      -30.465      -31.340        4.703       20.226       15.313       10.795      409.110      234.488      116.532        0.135        0.038       43.707        8.435        0.037      345.407       22.914      863.310
07/16/2014  07:05:00      -36.787      -59.050        2.785       31.883       42.882       16.547     1016.531     1838.862      273.793        0.399        0.156       69.571       17.750        0.065      345.498       23.070      863.298
07/16/2014  07:06:00      -56.499      -61.689       -0.557       37.479       22.552       18.240     1404.708      508.588      332.710        0.462        0.112       83.652       17.751        0.045      345.440       22.970      863.284
07/16/2014  07:07:00      -67.004      -37.434        8.299       43.365       39.195       29.986     1880.546     1536.221      899.177        0.514        0.216       76.751       23.717        0.095      345.409       22.918      863.286
07/16/2014  07:08:00      -88.449      -65.791       -4.256       63.183       41.293       27.510     3992.099     1705.117      756.793        0.931        0.323      110.235       26.940        0.060      345.441       22.972      863.287
07/16/2014  07:09:00     -106.853      -85.608        5.467       50.610       39.262       25.775     2561.415     1541.512      664.338        1.177        0.238      136.917       28.633        0.044      345.389       22.883      863.290
07/16/2014  07:10:00     -106.741      -62.340        2.474       35.892       34.697       22.101     1288.234     1203.900      488.446        0.913        0.149      123.612       17.173        0.019      345.407       22.915      863.308
07/16/2014  07:11:00      -61.234      -42.028        2.646       30.265       24.367       18.579      915.947      593.765      345.178        0.369        0.093       74.269       13.252        0.032      345.436       22.963      863.320
07/16/2014  07:12:00      -49.513      -42.845       -3.588       29.832       16.137       15.197      889.946      260.392      230.943        0.284        0.069       65.477        7.639        0.014      345.450       22.990      863.349
07/16/2014  07:13:00      -23.023      -53.762        4.574       18.130       23.756       12.286      328.710      564.352      150.955        0.224        0.052       58.484        9.473        0.026      345.487       23.052      863.372
07/16/2014  07:14:00      -37.626      -90.130        5.373       25.214       37.036       17.027      635.727     1371.674      289.916        0.593        0.115       97.668       11.858        0.015      345.501       23.076      863.393
07/16/2014  07:15:00      -20.170      -86.234        6.099       24.387       36.880       17.132      594.747     1360.106      293.518        0.506        0.112       88.562       11.218        0.016      345.523       23.115      863.419
07/16/2014  07:16:00      -36.821      -77.180        2.568       21.409       37.352       15.213      458.327     1395.167      231.441        0.470        0.104       85.513       15.064        0.031      345.543       23.147      863.420
07/16/2014  07:17:00      -19.669      -77.124        0.706       30.312       19.098       16.352      918.846      364.718      267.394        0.394        0.078       79.593       16.694        0.044      345.559       23.174      863.427
07/16/2014  07:18:00      -32.321      -95.375      -13.149       16.625       20.684       13.939      276.399      427.836      194.289        0.561        0.045      100.702        4.911        0.002      345.567       23.188      863.425
07/16/2014  07:19:00      -53.101      -86.765      -11.662       25.497       21.964       13.953      650.095      482.424      194.679        0.591        0.066      101.725        3.876        0.001      345.556       23.172      863.415
07/16/2014  07:20:00      -39.084     -100.716       -4.533       13.839       12.864       12.605      191.527      165.484      158.890        0.610        0.026      108.034        9.151        0.007      345.545       23.152      863.415
07/16/2014  07:21:00      -35.627     -106.884       -6.395       16.884       16.235       14.325      285.057      263.563      205.218        0.674        0.038      112.666        6.384        0.003      345.555       23.169      863.400
07/16/2014  07:22:00      -43.640      -97.405       -0.833       21.669       15.305       11.349      469.535      234.230      128.796        0.611        0.042      106.734        9.003        0.007      345.592       23.233      863.399
07/16/2014  07:23:00      -24.423      -80.540        2.103       19.193       15.058        7.995      368.356      226.738       63.919        0.387        0.033       84.161        7.597        0.008      345.643       23.321      863.400
07/16/2014  07:24:00       -6.918      -71.206        1.689        8.368       17.500        9.777       70.028      306.246       95.587        0.280        0.024       71.541        4.329        0.004      345.670       23.366      863.404
07/16/2014  07:25:00        8.809      -67.008        6.223       13.313       15.142       12.156      177.225      229.275      147.768        0.258        0.028       67.585        5.656        0.007      345.747       23.500      863.417
07/16/2014  07:26:00       -1.237      -60.944        3.142       13.129       18.455       11.267      172.370      340.573      126.935        0.218        0.032       60.956        5.049        0.007      345.759       23.523      863.425
07/16/2014  07:27:00      -10.071      -17.136       10.845       11.329       17.555       12.697      128.336      308.188      161.203        0.056        0.030       19.876       11.252        0.320      346.093       24.094      863.437
07/16/2014  07:28:00      -33.576       -5.731        8.890       10.252       10.307       11.946      105.106      106.227      142.698        0.080        0.018       34.061        6.391        0.035      345.857       23.685      863.437
07/16/2014  07:29:00      -17.432      -10.984       12.615       10.703       14.466       11.577      114.555      209.277      134.029        0.052        0.023       20.604        9.628        0.218      346.186       24.254      863.446
07/16/2014  07:30:00       -8.768       -1.222       12.575       13.940       13.814       17.146      194.328      190.828      293.992        0.046        0.034        8.853       11.387        1.654      346.322       24.486      863.439
07/16/2014  07:31:00       -4.193       18.558       40.839       10.421       16.644        9.683      108.596      277.012       93.766        0.125        0.024       19.026        7.149        0.141      346.640       25.032      863.432
07/16/2014  07:32:00       -0.459       14.531       37.273       13.039       20.071       11.599      170.027      402.827      134.536        0.115        0.035       14.538        9.463        0.424      346.481       24.759      863.429
07/16/2014  07:33:00       12.071      -11.371       20.112       13.898       29.216       18.089      193.151      853.581      327.208        0.103        0.069       16.583       13.515        0.664      346.346       24.529      863.428
07/16/2014  07:34:00       -5.571      -18.626       25.541       16.114       26.435       13.167      259.670      698.817      173.360        0.108        0.057       19.441       13.456        0.479      346.626       25.010      863.438
07/16/2014  07:35:00        3.809       -5.585       42.217       18.870       20.297       13.026      356.064      411.948      169.674        0.138        0.047        6.761        8.429        1.555      346.513       24.814      863.423
07/16/2014  07:36:00      -18.297        7.694       29.848       16.618       23.144       15.302      276.161      535.659      234.163        0.117        0.052       19.849       15.417        0.603      346.534       24.851      863.422
07/16/2014  07:37:00        1.922        4.445       29.990       12.246       15.094       10.331      149.973      227.820      106.721        0.070        0.024        4.843        4.631        0.914      346.797       25.303      863.410
07/16/2014  07:38:00        1.951        9.701       33.558       12.289       20.142       11.017      151.029      405.686      121.367        0.095        0.034        9.895        4.472        0.204      346.688       25.116      863.405
07/16/2014  07:39:00       13.160        3.930       24.483       16.505       18.836       19.030      272.403      354.801      362.144        0.089        0.049       13.734        4.337        0.100      346.462       24.727      863.399
07/16/2014  07:40:00       11.106       -8.263       28.161       16.904       14.130       16.266      285.751      199.670      264.573        0.087        0.037       13.842       10.457        0.571      346.749       25.221      863.410
07/16/2014  07:41:00      -18.806       10.701       11.131       22.728       14.448       13.975      516.574      208.746      195.304        0.076        0.046       21.638        9.112        0.177      346.253       24.368      863.415
07/16/2014  07:42:00      -34.055      -18.043       -0.011       13.670       13.796       12.425      186.858      190.329      154.374        0.101        0.027       38.539        8.413        0.048      346.152       24.195      863.438
07/16/2014  07:43:00      -31.663       -9.862       -0.124       13.407        7.735        7.686      179.759       59.831       59.074        0.070        0.015       33.164        6.394        0.037      346.053       24.024      863.444
07/16/2014  07:44:00      -26.391       -0.183       -5.680       10.694       10.082        7.266      114.358      101.641       52.793        0.050        0.013       26.392        5.433        0.042      346.091       24.089      863.454
07/16/2014  07:45:00      -21.979       13.936       10.441       10.843       10.432       11.918      117.576      108.830      142.029        0.058        0.018       26.025        7.458        0.082      346.351       24.537      863.468
07/16/2014  07:46:00      -21.625        6.359       -6.514        8.199       10.732        6.296       67.221      115.171       39.634        0.039        0.011       22.541        4.935        0.048      346.037       23.996      863.479
07/16/2014  07:47:00      -15.842       -0.299       17.422       16.497       16.046       16.257      272.154      257.472      264.287        0.067        0.040       15.845       11.630        0.539      346.993       25.641      863.493
07/16/2014  07:48:00      -18.483        5.534       32.786       18.085       20.887        9.450      327.061      436.269       89.297        0.115        0.043       19.293        9.633        0.249      346.822       25.346      863.497
07/16/2014  07:49:00       -7.415      -14.226       27.557       14.941       19.325       12.503      223.244      373.445      156.327        0.088        0.038       16.042        7.206        0.202      346.855       25.403      863.516
07/16/2014  07:50:00        6.996      -11.910       29.590       16.400       33.820       17.224      268.959     1143.808      296.669        0.139        0.085       13.813        7.644        0.306      346.780       25.275      863.519
07/16/2014  07:51:00       -4.900        9.742       47.669        8.453       18.032        8.369       71.452      325.147       70.036        0.143        0.023       10.905        4.679        0.184      347.306       26.179      863.528
07/16/2014  07:52:00       -8.302       13.014       50.965        9.678       20.768       14.673       93.664      431.293      215.295        0.179        0.037       15.436       14.948        0.938      346.833       25.365      863.536
07/16/2014  07:53:00        1.791       16.976       43.629       12.614       16.977       10.491      159.106      288.225      110.064        0.138        0.028       17.070        8.416        0.243      346.763       25.245      863.543
07/16/2014  07:54:00       43.942        5.523       24.459       25.119       22.104       28.803      630.954      488.582      829.626        0.225        0.097       44.288       21.214        0.229      346.429       24.668      863.550
07/16/2014  07:55:00       50.611      -15.678        3.348       24.991       19.384       24.808      624.527      375.730      615.446        0.222        0.081       52.984       11.009        0.043      346.308       24.462      863.554
07/16/2014  07:56:00       14.143        2.897       17.574       21.932       20.578       27.323      481.014      423.438      746.563        0.108        0.083       14.437       21.596        2.238      347.053       25.743      863.562
07/16/2014  07:57:00       -2.978        5.946       23.368       16.356       10.379        9.195      267.520      107.723       84.551        0.052        0.023        6.650        4.037        0.369      347.356       26.267      863.567
07/16/2014  07:58:00       20.961       17.773       13.071       33.803       22.203       17.318     1142.637      492.962      299.927        0.143        0.097       27.481       15.122        0.303      346.901       25.483      863.575
07/16/2014  07:59:00      119.644       59.886       29.398       47.876       31.754       31.334     2292.120     1008.295      981.801        1.152        0.214      133.795       21.665        0.026      346.454       24.713      863.578
07/16/2014  08:00:00       73.897       43.079       14.794       46.120       33.718       28.235     2127.034     1136.881      797.204        0.580        0.203       85.537       20.032        0.055      346.586       24.940      863.579
07/16/2014  08:01:00       78.094       72.183       13.231       43.242       31.070       31.584     1869.838      965.340      997.570        0.766        0.192      106.345       18.084        0.029      346.442       24.693      863.585
07/16/2014  08:02:00       25.698       36.607       -2.184       20.642       32.439       16.149      426.079     1052.288      260.793        0.187        0.087       44.726       11.183        0.063      346.455       24.715      863.575
07/16/2014  08:03:00       18.023       57.071        0.649       15.978       23.776       24.937      255.304      565.282      621.847        0.251        0.072       59.849       19.745        0.109      346.556       24.889      863.576
07/16/2014  08:04:00       16.455       41.219        4.903       24.567       36.359       24.577      603.552     1321.998      604.030        0.226        0.126       44.382       17.177        0.150      346.691       25.120      863.575
07/16/2014  08:05:00       29.866       47.405        1.295       32.531       23.770       23.507     1058.252      564.990      552.564        0.266        0.109       56.029       14.909        0.071      346.627       25.011      863.578
07/16/2014  08:06:00       65.888       44.208        6.441       25.484       19.744       29.565      649.415      389.816      874.077        0.412        0.096       79.345       18.160        0.052      346.528       24.841      863.589
07/16/2014  08:07:00       89.965       55.540       18.174       35.939       31.606       30.706     1291.631      998.916      942.887        0.737        0.162      105.728       24.137        0.052      346.659       25.065      863.592
07/16/2014  08:08:00       64.401       41.363        8.245       18.459       20.885       23.287      340.734      436.187      542.279        0.362        0.066       76.540       12.488        0.027      346.454       24.713      863.607
07/16/2014  08:09:00       40.184       41.457        4.787       20.426       27.571       22.085      417.214      760.138      487.736        0.251        0.083       57.736       16.003        0.077      346.600       24.964      863.621
07/16/2014  08:10:00       29.334       24.356       14.282       28.835       24.136       23.420      831.434      582.560      548.487        0.181        0.098       38.127       13.055        0.117      346.894       25.470      863.624
07/16/2014  08:11:00       35.981        6.602       10.848       20.728       31.030       21.745      429.655      962.887      472.834        0.166        0.093       36.582       11.476        0.098      346.941       25.551      863.634
07/16/2014  08:12:00       22.335      -13.360       23.210       29.650       27.719       30.024      879.145      768.348      901.413        0.188        0.127       26.026       27.136        1.087      347.242       26.070      863.639
07/16/2014  08:13:00       61.541       51.596       66.207       69.334       38.438       38.140     4807.273     1477.474     1454.673        0.928        0.387       80.308       30.972        0.149      346.918       25.512      863.642
07/16/2014  08:14:00       67.249       76.172       57.753       39.856       33.440       35.922     1588.526     1118.216     1290.410        0.883        0.200      101.610       26.537        0.068      346.598       24.960      863.646
07/16/2014  08:15:00       49.188       49.914       13.129       29.715       21.908       24.076      883.002      479.968      579.634        0.351        0.097       70.078       19.637        0.079      346.536       24.854      863.650
07/16/2014  08:16:00       11.902       21.986       17.412       16.141       21.364       22.370      260.522      456.409      500.415        0.107        0.061       25.001       12.522        0.251      347.154       25.919      863.646
07/16/2014  08:17:00       -2.657       20.362       -2.416       19.277       20.943       17.548      371.620      438.597      307.930        0.077        0.056       20.535       11.699        0.325      346.795       25.299      863.647
07/16/2014  08:18:00      -20.464       16.779       -0.539       13.987       20.897       16.460      195.628      436.676      270.944        0.080        0.045       26.463       10.265        0.150      346.999       25.652      863.651
07/16/2014  08:19:00      -28.595        6.211      -13.531        7.801        8.478        5.010       60.850       71.877       25.102        0.060        0.008       29.262        2.159        0.005      346.702       25.140      863.648
07/16/2014  08:20:00      -14.974      -11.819       -4.268       14.297        9.853       10.207      204.391       97.086      104.180        0.039        0.020       19.076        7.670        0.162      346.832       25.364      863.642
07/16/2014  08:21:00      -26.066        8.860       -3.707       14.215       19.144       14.009      202.056      366.491      196.252        0.077        0.038       27.530        4.797        0.030      346.804       25.315      863.649
07/16/2014  08:22:00      -47.010      -10.539      -10.132       18.989       14.412       12.098      360.585      207.701      146.357        0.157        0.036       48.177        8.946        0.034      346.706       25.145      863.650
07/16/2014  08:23:00      -40.654       -5.237        1.511       11.828       12.163       10.529      139.896      147.933      110.856        0.104        0.020       40.990        5.534        0.018      346.732       25.189      863.640
07/16/2014  08:24:00      -67.242      -27.128      -11.341       12.859       17.199       10.266      165.347      295.812      105.394        0.298        0.028       72.508        8.052        0.012      346.687       25.111      863.635
07/16/2014  08:25:00      -39.914        6.966       -2.726       22.911       18.131       11.234      524.917      328.719      126.201        0.131        0.049       40.517       11.275        0.077      346.746       25.213      863.627
07/16/2014  08:26:00       -9.080       19.481       -5.960       27.322       26.040       26.764      746.506      678.061      716.337        0.132        0.107       21.493       18.829        0.767      347.131       25.880      863.626
07/16/2014  08:27:00      -29.837      -22.050        3.114       15.513       21.406       16.277      240.653      458.236      264.945        0.117        0.048       37.100       11.857        0.102      347.009       25.668      863.617
07/16/2014  08:28:00       -6.792      -29.447        7.719       11.296       11.274       11.280      127.594      127.102      127.244        0.068        0.019       30.220        4.652        0.024      346.959       25.582      863.612
07/16/2014  08:29:00       12.277      -11.107        5.120       16.230       10.864       15.922      263.411      118.021      253.523        0.047        0.032       16.556       12.735        0.592      347.129       25.875      863.598
07/16/2014  08:30:00      -16.893      -22.106        1.028       17.996       12.522       17.901      323.866      156.812      320.451        0.079        0.040       27.822       14.138        0.258      347.042       25.724      863.596
07/16/2014  08:31:00      -39.929        9.758       -0.576       19.677       14.951       11.367      387.182      223.538      129.210        0.121        0.037       41.104        7.135        0.030      346.887       25.458      863.590
07/16/2014  08:32:00      -26.816       -2.645       -4.317       17.978        9.036        6.101      323.209       81.642       37.221        0.059        0.022       26.946        3.691        0.019      346.958       25.579      863.590
07/16/2014  08:33:00       -9.494      -12.859        6.779       13.798        8.860       15.030      190.396       78.491      225.911        0.040        0.025       15.984        9.665        0.366      347.442       26.416      863.587
07/16/2014  08:34:00      -36.002       -8.297       -1.970        8.145        8.796        5.792       66.346       77.372       33.545        0.077        0.009       36.946        2.946        0.006      346.927       25.528      863.596
07/16/2014  08:35:00      -22.095      -50.858       13.060       18.590       23.458       29.269      345.579      550.297      856.682        0.250        0.088       55.450        5.237        0.009      347.216       26.024      863.593
07/16/2014  08:36:00       10.281       -7.645       39.349       25.835       30.509       22.243      667.431      930.811      494.744        0.190        0.105       12.812       22.236        3.012      348.250       27.810      863.608
07/16/2014  08:37:00       -5.312      -14.212       24.049       20.671       22.855       16.967      427.283      522.355      287.883        0.102        0.062       15.172       15.798        1.084      348.085       27.526      863.609
07/16/2014  08:38:00      -32.075        4.580       11.413       18.036       15.621       17.464      325.299      244.019      304.985        0.103        0.044       32.401       14.031        0.188      347.525       26.557      863.609
07/16/2014  08:39:00      -12.747       24.740       16.667       40.472       15.425       20.790     1637.986      237.925      432.223        0.168        0.115       27.831       18.051        0.421      347.638       26.753      863.607
07/16/2014  08:40:00      -16.150      115.950       -4.836       23.744       60.574       23.387      563.790     3669.241      546.952        0.925        0.239      117.070       25.971        0.049      347.630       26.738      863.597
07/16/2014  08:41:00       22.310      130.366       -7.023       43.369       41.771       32.356     1880.827     1744.842     1046.882        1.111        0.234      132.261       25.634        0.038      347.618       26.718      863.592
07/16/2014  08:42:00      -12.768      115.529      -14.439       29.824       38.639       21.496      889.497     1492.972      462.080        0.828        0.142      116.232       17.514        0.023      347.223       26.039      863.602
07/16/2014  08:43:00       -3.792       85.238        2.885       30.521       35.499       29.825      931.536     1260.186      889.558        0.518        0.154       85.322       22.195        0.068      347.755       26.955      863.604
07/16/2014  08:44:00      -52.274       54.095       -1.915       24.010       26.978       24.513      576.475      727.818      600.904        0.378        0.095       75.225       15.886        0.045      347.385       26.317      863.599
07/16/2014  08:45:00        5.499       13.768       23.341       24.408       16.936       21.833      595.772      286.844      476.677        0.106        0.068       14.825       14.228        0.921      347.833       27.088      863.602
07/16/2014  08:46:00        3.302       70.742       -1.309       20.128       44.198       23.338      405.136     1953.455      544.683        0.396        0.145       70.819       25.120        0.126      347.577       26.647      863.604
07/16/2014  08:47:00       -3.284       13.304       10.825       18.404       30.265       20.436      338.715      915.980      417.624        0.099        0.084       13.703       20.274        2.189      347.995       27.368      863.601
07/16/2014  08:48:00       48.849       25.981       17.630       61.085       39.925       22.634     3731.384     1594.038      512.294        0.460        0.292       55.329       21.771        0.155      348.012       27.398      863.591
07/16/2014  08:49:00       78.653       35.122        0.831       41.282       38.095       28.630     1704.204     1451.202      819.662        0.570        0.199       86.138       17.826        0.043      347.575       26.643      863.592
07/16/2014  08:50:00       12.013       44.671       15.932       45.082       40.158       30.218     2032.380     1612.646      913.153        0.347        0.228       46.258       23.087        0.249      347.663       26.796      863.597
07/16/2014  08:51:00       31.548       41.920       19.278       23.467       27.370       23.481      550.705      749.109      551.355        0.249        0.093       52.465       12.386        0.056      347.965       27.316      863.599
07/16/2014  08:52:00       17.923        9.159       25.800       35.098       26.796       26.232     1231.884      718.023      688.140        0.185        0.132       20.127       21.296        1.119      348.092       27.537      863.611
07/16/2014  08:53:00       95.661       49.292       25.696       38.379       23.290       29.616     1472.972      542.442      877.113        0.757        0.145      107.613       21.020        0.038      347.558       26.616      863.619
07/16/2014  08:54:00       65.225       43.518        2.521       26.213       24.491       25.093      687.144      599.808      629.648        0.404        0.096       78.410        8.157        0.011      347.355       26.263      863.622
07/16/2014  08:55:00       11.338      -12.708       16.819       21.294       34.657       22.133      453.426     1201.085      489.887        0.136        0.107       17.030       13.811        0.658      347.918       27.236      863.631
07/16/2014  08:56:00       -6.220      -43.675       18.587       11.631       31.610       19.819      135.271      999.195      392.786        0.191        0.076       44.116       10.127        0.053      347.857       27.131      863.619
07/16/2014  08:57:00      -30.788       19.012       23.999       22.621       15.305       15.909      511.694      234.247      253.095        0.144        0.050       36.185        9.905        0.075      348.039       27.446      863.619
07/16/2014  08:58:00      -35.700        8.972       11.626       17.388        9.656       19.431      302.353       93.245      377.547        0.113        0.039       36.810       15.644        0.181      347.739       26.929      863.619
07/16/2014  08:59:00      -39.646      -33.259       -2.543       17.776       29.119       10.092      315.970      847.917      101.849        0.197        0.063       51.749       12.624        0.060      347.510       26.530      863.612
07/16/2014  09:00:00      -19.180      -24.443        6.851       31.886       24.999       25.075     1016.744      624.938      628.732        0.164        0.114       31.070       24.297        0.612      348.106       27.561      863.607
07/16/2014  09:01:00        1.730      -12.055       11.077       34.972       23.464       18.032     1223.012      550.579      325.167        0.118        0.105       12.179       13.251        1.184      347.907       27.216      863.600
07/16/2014  09:02:00      -14.177        3.296       15.551       16.030       15.879       17.696      256.975      252.147      313.148        0.064        0.041       14.555       13.987        0.923      348.477       28.202      863.601
07/16/2014  09:03:00        7.494       19.400       21.671       29.529       23.488       22.945      871.954      551.670      526.472        0.143        0.098       20.798       14.150        0.463      348.298       27.893      863.603
07/16/2014  09:04:00       33.158       36.398       17.375       38.604       29.114       23.236     1490.302      847.643      539.927        0.280        0.144       49.237       20.664        0.176      347.915       27.230      863.607
07/16/2014  09:05:00       44.968       66.551       -3.581       40.975       40.381       31.911     1678.916     1630.636     1018.312        0.540        0.216       80.319       30.446        0.144      347.785       27.006      863.607
07/16/2014  09:06:00       40.597       13.907       21.839       24.351       48.019       23.421      592.981     2305.868      548.540        0.288        0.172       42.913       15.331        0.128      347.857       27.130      863.604
07/16/2014  09:07:00       51.007      -58.434        9.319       23.759       37.322       21.089      564.474     1392.947      444.759        0.425        0.120       77.565       15.696        0.041      347.838       27.098      863.590
07/16/2014  09:08:00       52.398      -61.940      -15.698       21.308       45.995       23.724      454.022     2115.535      562.826        0.498        0.157       81.130       16.401        0.041      347.772       26.984      863.595
07/16/2014  09:09:00       -4.126       24.101       47.984       14.555       37.179       26.038      211.841     1382.303      677.984        0.259        0.114       24.452       27.487        1.264      348.511       28.260      863.572
07/16/2014  09:10:00       29.683       -4.823       34.605       31.768       46.634       26.219     1009.176     2174.698      687.434        0.299        0.194       30.072       25.748        0.733      348.535       28.301      863.579
07/16/2014  09:11:00      -39.501        4.891       13.410       27.624       40.675       28.598      763.069     1654.443      817.834        0.250        0.162       39.802       23.403        0.346      348.278       27.858      863.568
07/16/2014  09:12:00      -26.597      -14.970       11.057       29.700       22.569       24.068      882.118      509.350      579.253        0.151        0.099       30.521       22.221        0.530      348.459       28.170      863.576
07/16/2014  09:13:00      -38.457       10.158       17.969       23.732       19.975       14.946      563.196      398.981      223.370        0.155        0.059       39.776        8.488        0.046      348.517       28.271      863.560
07/16/2014  09:14:00       -0.748       40.754       19.425       22.014       36.802       23.595      484.635     1354.396      556.738        0.222        0.120       40.761       13.866        0.116      348.913       28.957      863.572
07/16/2014  09:15:00       59.595      116.928       15.124      102.205       84.603       60.313    10445.823     7157.602     3637.640        1.934        1.062      131.239       56.191        0.183      348.548       28.323      863.555
07/16/2014  09:16:00       91.061      187.500       -5.097      101.498      125.241       69.111    10301.932    15685.255     4776.280        3.711        1.538      208.443       72.624        0.121      348.511       28.258      863.535
07/16/2014  09:17:00      141.964      180.044       24.863      139.387      113.583       79.671    19428.793    12900.998     6347.502        4.592        1.934      229.281       79.317        0.120      348.718       28.616      863.509
07/16/2014  09:18:00     -140.714      272.610      -36.596      117.951      137.133       48.899    13912.362    18805.544     2391.135        6.528        1.755      306.784       52.128        0.029      348.300       27.893      863.541
07/16/2014  09:19:00     -126.136       41.302      -10.252       59.490       95.970       42.186     3539.062     9210.225     1779.677        1.612        0.726      132.726       36.849        0.077      348.383       28.037      863.555
07/16/2014  09:20:00      -78.739       35.173       -8.255       65.407       94.899       34.263     4278.011     9005.863     1173.929        1.098        0.723       86.238       24.424        0.080      348.433       28.125      863.563
07/16/2014  09:21:00      -35.367       69.543        7.543       43.952       55.361       35.308     1931.771     3064.878     1246.668        0.619        0.312       78.019       34.160        0.192      348.852       28.852      863.554
07/16/2014  09:22:00       12.606      162.824       -9.446       48.785      107.458       53.349     2379.997    11547.220     2846.147        2.176        0.839      163.312       61.998        0.144      348.574       28.366      863.554
07/16/2014  09:23:00       14.785      163.994       -6.586       40.341      124.890       49.646     1627.409    15597.394     2464.676        2.342        0.984      164.659       70.654        0.184      348.671       28.535      863.537
07/16/2014  09:24:00        5.976      167.703      -13.982       48.202       93.651       42.695     2323.442     8770.541     1822.894        2.063        0.646      167.810       43.875        0.068      348.673       28.538      863.525
07/16/2014  09:25:00      -23.268      209.444      -11.200       59.133       90.085       48.626     3496.722     8115.334     2364.524        2.925        0.699      210.732       47.683        0.051      348.675       28.541      863.513
07/16/2014  09:26:00      -92.199      229.615      -16.117       41.824       59.805       41.180     1749.252     3576.671     1695.784        3.425        0.351      247.435       30.395        0.015      348.481       28.206      863.519
07/16/2014  09:27:00      -87.276      146.091      -11.948       56.709       64.244       37.950     3215.930     4127.330     1440.185        1.894        0.439      170.176       36.322        0.046      348.573       28.367      863.509
07/16/2014  09:28:00      -54.658      114.758       -3.053       76.301       65.320       49.489     5821.782     4266.742     2449.118        1.435        0.627      127.109       26.349        0.043      348.773       28.714      863.508
07/16/2014  09:29:00      -59.477      182.588       -7.798       68.043       94.493       44.103     4629.816     8928.976     1945.039        2.622        0.775      192.031       50.352        0.069      348.806       28.769      863.509
07/16/2014  09:30:00      -46.346      187.705      -10.793       63.574       60.988       36.872     4041.626     3719.513     1359.581        2.331        0.456      193.342       39.317        0.041      348.546       28.318      863.539
07/16/2014  09:31:00       29.804      102.096        3.951       48.528       66.707       39.993     2355.010     4449.821     1599.426        0.986        0.420      106.357       31.060        0.085      348.764       28.698      863.519
07/16/2014  09:32:00      104.089       71.275       21.452       81.936       47.694       34.646     6713.584     2274.732     1200.346        1.328        0.509      126.153       21.146        0.028      348.743       28.661      863.503
07/16/2014  09:33:00       -9.699      105.649       -6.633       86.291       65.517       37.780     7446.222     4292.540     1427.343        1.223        0.658      106.093       32.725        0.095      348.788       28.740      863.505
07/16/2014  09:34:00     -103.293      134.449      -19.395       87.845       64.992       39.635     7716.799     4224.010     1570.894        2.131        0.676      169.546       47.412        0.078      348.650       28.500      863.525
07/16/2014  09:35:00      -39.004      179.274      -21.719       66.249      126.512       45.630     4388.923    16005.197     2082.131        2.830        1.124      183.468       60.428        0.108      348.614       28.437      863.526
07/16/2014  09:36:00       -4.141      114.326       -7.597       88.400       74.367       53.666     7814.611     5530.425     2880.009        1.468        0.811      114.401       47.608        0.173      348.710       28.604      863.510
07/16/2014  09:37:00       15.136      133.108      -10.636       66.783       78.034       32.358     4459.940     6089.300     1047.021        1.483        0.580      133.966       35.187        0.069      348.717       28.616      863.514
07/16/2014  09:38:00       51.520       61.206       18.234       36.988       41.134       37.871     1368.131     1692.031     1434.225        0.561        0.225       80.003       28.557        0.127      348.822       28.799      863.488
07/16/2014  09:39:00      -28.736      178.556      -16.893       77.818       74.212       44.240     6055.650     5507.380     1957.170        2.325        0.676      180.854       45.210        0.062      348.692       28.571      863.494
07/16/2014  09:40:00      -26.301      149.935       -5.062       49.938       63.787       35.877     2493.768     4068.798     1287.137        1.552        0.392      152.224       31.044        0.042      348.851       28.850      863.486
07/16/2014  09:41:00      -25.520      135.341       -5.716       50.671       71.229       36.798     2567.510     5073.603     1354.119        1.400        0.450      137.726       38.883        0.080      348.901       28.935      863.479
07/16/2014  09:42:00      -25.508      155.719      -10.816       38.702       60.095       32.414     1497.847     3611.352     1050.692        1.559        0.308      157.794       34.560        0.048      348.764       28.698      863.473
07/16/2014  09:43:00       39.766      140.119      -15.951       62.923       68.569       39.363     3959.301     4701.730     1549.414        1.584        0.511      145.653       32.921        0.051      348.780       28.725      863.469
07/16/2014  09:44:00       92.801       52.351       -4.002       32.005       27.355       30.019     1024.345      748.285      901.159        0.702        0.134      106.549       19.854        0.035      348.563       28.350      863.466
07/16/2014  09:45:00       46.596       25.234        4.091       34.679       32.399       27.857     1202.615     1049.693      776.000        0.293        0.151       52.991       25.857        0.238      348.818       28.792      863.448
07/16/2014  09:46:00      -13.376       44.676       13.767       23.690       73.819       29.156      561.223     5449.256      850.066        0.461        0.343       46.636       31.596        0.459      349.214       29.478      863.455
07/16/2014  09:47:00      -92.249      132.102      -11.814       55.541       47.289       40.826     3084.847     2236.256     1666.767        1.654        0.349      161.124       38.293        0.056      348.601       28.415      863.455
07/16/2014  09:48:00       -0.249       13.512       27.655       20.368       26.538       20.693      414.855      704.252      428.207        0.125        0.077       13.514       15.301        1.282      349.412       29.821      863.439
07/16/2014  09:49:00     -155.691      -26.737      -21.494       62.591       49.275       24.578     3917.606     2428.007      604.059        1.618        0.347      157.970       24.823        0.025      348.454       28.162      863.438
07/16/2014  09:50:00     -128.427      -19.084       -9.258       78.860       67.056       42.619     6218.866     4496.484     1816.369        1.474        0.627      129.837       39.000        0.090      348.491       28.224      863.420
07/16/2014  09:51:00     -162.814      -13.661      -23.847       33.071       39.975       21.999     1093.661     1598.016      483.968        1.522        0.159      163.387       15.480        0.009      348.289       27.879      863.427
07/16/2014  09:52:00      -97.680      -24.317        7.824       77.063       40.677       28.627     5938.650     1654.588      819.501        0.930        0.421      100.661       34.170        0.115      348.531       28.293      863.412
07/16/2014  09:53:00      -54.379      -26.643       16.852       64.956       53.133       40.344     4219.237     2823.086     1627.663        0.631        0.433       60.555       32.568        0.289      348.963       29.043      863.384
07/16/2014  09:54:00      -67.967      -68.447        8.124       42.973       40.987       25.415     1846.645     1679.937      645.902        0.677        0.209       96.460       21.402        0.049      348.673       28.541      863.377
07/16/2014  09:55:00      -68.929      -37.806        4.405       33.262       22.036       18.807     1106.370      485.590      353.688        0.407        0.097       78.616       14.699        0.035      348.582       28.384      863.361
07/16/2014  09:56:00      -68.330     -103.389        4.053       60.972       53.833       36.378     3717.621     2898.020     1323.379        1.166        0.397      123.929       35.871        0.084      348.665       28.528      863.337
07/16/2014  09:57:00     -110.806      -76.885       -4.005       69.816       50.253       34.003     4874.324     2525.323     1156.205        1.338        0.428      134.868       35.236        0.068      348.614       28.436      863.316
07/16/2014  09:58:00      -32.385      -17.513       10.446       46.427       29.391       24.277     2155.461      863.816      589.371        0.254        0.180       36.817       27.544        0.560      348.963       29.044      863.312
07/16/2014  09:59:00      -26.560        9.485       13.310       46.496       31.782       28.040     2161.922     1010.114      786.267        0.246        0.198       28.203       20.581        0.533      349.066       29.222      863.329
07/16/2014  10:00:00      -99.645      -53.619        3.667       70.793       57.889       38.742     5011.682     3351.093     1500.935        1.134        0.493      113.155       35.797        0.100      348.481       28.209      863.353
07/16/2014  10:01:00     -136.982      -54.892       -6.397       75.204       87.326       40.622     5655.618     7625.892     1650.135        1.837        0.747      147.571       42.245        0.082      348.310       27.910      863.375
07/16/2014  10:02:00     -131.391     -142.527      -14.797       72.810       68.165       30.174     5301.283     4646.449      910.466        2.433        0.543      193.850       28.501        0.022      348.068       27.493      863.386
07/16/2014  10:03:00     -102.347      -37.985       -1.522       50.438       43.600       24.514     2543.966     1900.929      600.923        0.848        0.252      109.169       21.492        0.039      348.271       27.845      863.389
07/16/2014  10:04:00      -65.015      -28.774        3.991       39.417       33.548       27.573     1553.691     1125.451      760.290        0.425        0.172       71.098       23.559        0.110      348.668       28.532      863.405
07/16/2014  10:05:00      -40.258      -32.849        2.536       31.849       36.258       19.614     1014.357     1314.619      384.715        0.271        0.136       51.959       17.336        0.111      348.648       28.497      863.401
07/16/2014  10:06:00      -23.112      -70.130       -5.523       25.970       25.726       27.670      674.440      661.849      765.645        0.379        0.105       73.840       14.122        0.037      348.471       28.191      863.383
07/16/2014  10:07:00        2.529      -66.063       -0.218       37.667       58.446       28.988     1418.836     3415.959      840.304        0.502        0.284       66.111       24.945        0.142      348.822       28.799      863.377
07/16/2014  10:08:00      -61.982      -58.771       -1.247       50.721       26.799       26.965     2572.652      718.167      727.125        0.566        0.201       85.415       20.037        0.055      348.731       28.642      863.364
07/16/2014  10:09:00      -85.682      -53.731        9.719       80.430       43.230       29.965     6468.957     1868.869      897.885        0.978        0.462      101.136       24.472        0.059      348.826       28.805      863.354
07/16/2014  10:10:00      -72.285      -76.780       -3.934       79.720       45.442       30.022     6355.291     2065.007      901.325        1.023        0.466      105.453       25.900        0.060      348.560       28.344      863.361
07/16/2014  10:11:00      -76.396      -83.456       -2.405       31.262       29.335       19.588      977.329      860.568      383.684        0.751        0.111      113.143       14.924        0.017      348.457       28.168      863.359
07/16/2014  10:12:00      -74.536      -63.414        7.518       49.438       45.514       27.700     2444.069     2071.507      767.285        0.746        0.264       97.862       23.788        0.059      348.693       28.576      863.357
07/16/2014  10:13:00      -90.222     -182.545      -11.010       70.980       59.642       40.168     5038.135     3557.138     1613.476        2.589        0.510      203.623       44.395        0.048      348.480       28.204      863.339
07/16/2014  10:14:00      -37.532      -67.481       10.173       31.967       41.701       25.272     1021.899     1738.947      638.698        0.473        0.170       77.216       16.438        0.045      348.500       28.242      863.333
07/16/2014  10:15:00      -50.628      -34.665        8.345       41.276       26.599       20.011     1703.695      707.482      400.426        0.332        0.141       61.358       17.329        0.080      348.985       29.081      863.322
07/16/2014  10:16:00      -79.133      -38.636       -8.741       45.148       31.520       19.194     2038.318      993.501      368.423        0.562        0.170       88.061       17.136        0.038      348.652       28.504      863.325
07/16/2014  10:17:00     -101.616      -21.157       -4.727       33.392       39.759       19.369     1115.033     1580.744      375.156        0.693        0.154      103.795       12.941        0.016      348.699       28.586      863.320
07/16/2014  10:18:00      -97.679      -32.772        1.432       66.125       51.214       31.901     4372.560     2622.878     1017.681        0.931        0.401      103.030       36.155        0.123      348.970       29.055      863.308
07/16/2014  10:19:00     -106.816       -8.836       -9.496       31.810       41.503       27.733     1011.893     1722.464      769.111        0.754        0.175      107.181       20.825        0.038      348.641       28.484      863.307
07/16/2014  10:20:00      -82.722      -25.932      -10.880       35.311       34.320       17.094     1246.899     1177.833      292.189        0.517        0.136       86.691       11.664        0.018      348.639       28.483      863.307
07/16/2014  10:21:00     -116.831        6.527       -3.934       56.689       48.616       29.906     3213.637     2363.486      894.344        1.009        0.324      117.013       29.553        0.064      348.864       28.871      863.302
07/16/2014  10:22:00     -153.942      -46.470       -5.909       56.192       61.645       30.743     3157.527     3800.046      945.143        1.690        0.395      160.803       23.108        0.021      349.067       29.222      863.293
07/16/2014  10:23:00     -144.613      -30.667        4.786       91.745       61.122       33.566     8417.193     3735.917     1126.646        1.758        0.664      147.829       33.344        0.051      349.417       29.828      863.285
07/16/2014  10:24:00     -137.026       14.280       -0.821       78.433       64.431       39.425     6151.678     4151.384     1554.330        1.542        0.593      137.768       37.826        0.075      349.447       29.882      863.295
07/16/2014  10:25:00      -84.821       13.171        5.501       70.507       49.081       29.385     4971.235     2408.896      863.469        0.782        0.412       85.838       32.761        0.146      349.768       30.439      863.280
07/16/2014  10:26:00        1.802      -19.788       21.873       20.522       32.936       20.342      421.149     1084.809      413.782        0.140        0.096       19.870       10.562        0.283      350.161       31.122      863.273
07/16/2014  10:27:00       16.801       31.588        2.979       67.670       44.478       38.159     4579.266     1978.259     1456.145        0.465        0.401       35.778       27.318        0.583      349.769       30.441      863.261
07/16/2014  10:28:00     -107.204      -50.524       -9.713       46.502       63.659       27.254     2162.411     4052.436      742.807        1.055        0.348      118.513       20.412        0.030      349.151       29.367      863.251
07/16/2014  10:29:00      -96.090       -5.739       -3.038       55.313       39.656       27.737     3059.544     1572.563      769.368        0.734        0.270       96.261       27.305        0.080      349.142       29.352      863.260
07/16/2014  10:30:00     -235.013        5.543      -28.541       56.672       52.471       24.640     3211.752     2753.186      607.113        3.132        0.329      235.078       26.343        0.013      349.031       29.157      863.265
07/16/2014  10:31:00      -74.165       23.232       16.517       75.371       50.840       38.540     5680.730     2584.690     1485.360        0.803        0.488       77.718       35.228        0.205      349.856       30.592      863.262
07/16/2014  10:32:00       -9.444       -2.088       15.897       17.971       13.458       21.827      322.949      181.114      476.421        0.066        0.049        9.672        9.176        0.900      350.357       31.463      863.270
07/16/2014  10:33:00      -57.547       -7.496       14.475       46.353       45.249       34.079     2148.633     2047.482     1161.385        0.447        0.268       58.033       22.166        0.146      350.016       30.870      863.266
07/16/2014  10:34:00     -109.683      -11.547      -13.655       39.036       27.759       19.858     1523.816      770.560      394.355        0.752        0.134      110.289       13.693        0.015      349.114       29.305      863.250
07/16/2014  10:35:00     -174.243       13.004      -13.787       65.315       45.860       29.869     4266.087     2103.116      892.155        1.899        0.363      174.727       32.066        0.034      349.196       29.445      863.231
07/16/2014  10:36:00      -28.504        9.254       26.224       87.629       27.852       38.070     7678.772      775.706     1449.310        0.574        0.495       29.969       44.212        2.176      349.922       30.707      863.234
07/16/2014  10:37:00      -29.342      113.420       -8.880       58.272      139.162       50.456     3395.582    19366.102     2545.758        1.955        1.265      117.154       57.423        0.240      349.718       30.351      863.223
07/16/2014  10:38:00       23.719      134.969       -3.991       64.179      107.909       46.626     4118.880    11644.350     2173.948        1.836        0.897      137.037       49.786        0.132      349.891       30.651      863.224
07/16/2014  10:39:00       49.381      137.987        0.061       76.950      109.569       67.286     5921.245    12005.423     4527.411        2.196        1.123      146.557       69.507        0.225      349.679       30.281      863.212
07/16/2014  10:40:00       22.011      146.003        5.181       76.703       94.765       53.857     5883.288     8980.444     2900.610        1.979        0.888      147.653       59.737        0.164      349.817       30.522      863.201
07/16/2014  10:41:00      113.443       92.549       12.000       68.639       45.678       41.026     4711.352     2086.492     1683.099        1.503        0.424      146.406       21.652        0.022      349.787       30.472      863.190
07/16/2014  10:42:00       44.858      143.458      -16.680       48.679       71.194       34.678     2369.676     5068.561     1202.559        1.575        0.432      150.308       37.075        0.061      349.746       30.399      863.217
07/16/2014  10:43:00       91.933       90.400        8.430       83.301       64.213       42.718     6939.062     4123.278     1824.843        1.479        0.644      128.933       38.855        0.091      349.504       29.978      863.223
07/16/2014  10:44:00       40.157      160.846       -1.007       93.599       95.082       50.744     8760.800     9040.626     2575.000        2.393        1.019      165.783       50.185        0.092      349.494       29.962      863.218
07/16/2014  10:45:00      -43.758      284.539      -29.931       61.434       86.725       49.761     3774.179     7521.165     2476.148        4.877        0.689      287.884       51.524        0.032      349.177       29.410      863.236
07/16/2014  10:46:00       -9.836      308.125      -21.214       66.578      101.548       46.273     4432.694    10311.920     2141.154        5.618        0.844      308.281       48.338        0.025      349.142       29.351      863.239
07/16/2014  10:47:00      -52.010      271.606      -39.397       85.508       75.904       41.291     7311.559     5761.389     1704.915        4.640        0.739      276.541       40.820        0.022      349.015       29.130      863.239
07/16/2014  10:48:00     -101.530      167.986      -26.263       53.281       74.956       39.549     2838.832     5618.368     1564.093        2.462        0.501      196.285       36.353        0.034      349.120       29.313      863.236
07/16/2014  10:49:00      -65.516      204.174      -22.855       51.374       82.629       35.130     2639.275     6827.494     1234.086        2.860        0.535      214.428       16.367        0.006      349.274       29.580      863.248
07/16/2014  10:50:00      -21.565       99.490       -2.326       44.291       54.849       35.298     1961.720     3008.381     1245.918        0.829        0.311      101.800       26.509        0.068      349.547       30.057      863.242
07/16/2014  10:51:00      -21.241       97.712       10.027       63.172       75.343       53.072     3990.709     5676.548     2816.622        1.129        0.624       99.995       49.687        0.247      349.641       30.218      863.257
07/16/2014  10:52:00      -86.800      338.383      -33.595       74.580       86.451       43.087     5562.197     7473.778     1856.461        6.903        0.745      349.338       36.323        0.011      349.216       29.477      863.271
07/16/2014  10:53:00      -71.596      233.655      -27.675       56.270      118.021       45.190     3166.328    13928.873     2042.176        3.981        0.957      244.378       49.390        0.041      349.104       29.284      863.290
07/16/2014  10:54:00      -77.827      258.737      -19.239       89.548      114.674       53.938     8018.917    13150.207     2909.275        4.872        1.204      270.189       52.235        0.037      349.165       29.389      863.275
07/16/2014  10:55:00     -123.472      180.714      -20.736       81.403       98.364       49.730     6626.491     9675.432     2473.075        3.355        0.939      218.867       52.228        0.057      349.007       29.117      863.293
07/16/2014  10:56:00      -78.790      243.178       -9.319       56.731       66.963       45.619     3218.418     4484.001     2081.131        3.760        0.489      255.624       40.049        0.025      349.270       29.571      863.292
07/16/2014  10:57:00     -164.627      221.068      -40.711      109.709       86.969       46.466    12036.126     7563.632     2159.054        4.969        1.088      275.632       53.042        0.037      348.959       29.030      863.291
07/16/2014  10:58:00      -83.665      161.939      -24.201       87.132       96.632       36.559     7591.962     9337.836     1336.531        2.603        0.913      182.275       39.894        0.048      349.157       29.376      863.298
07/16/2014  10:59:00      -62.173      256.610      -25.537       88.203       79.658       54.084     7779.708     6345.418     2925.104        4.370        0.853      264.034       51.859        0.039      349.263       29.559      863.303
07/16/2014  11:00:00     -106.369      275.044      -22.906       74.011       68.975       44.643     5477.663     4757.615     1993.021        4.986        0.611      294.896       41.291        0.020      349.262       29.557      863.302
07/16/2014  11:01:00      -57.970      313.186      -30.551       69.938      108.171       43.336     4891.335    11700.873     1878.029        6.042        0.924      318.506       51.426        0.026      349.066       29.219      863.311
07/16/2014  11:02:00      -42.479      262.725      -12.474       47.305      116.350       54.217     2237.765    13537.425     2939.504        4.485        0.936      266.137       56.084        0.044      349.155       29.373      863.320
07/16/2014  11:03:00     -135.541      182.573      -26.887      112.924       98.836       53.439    12751.906     9768.606     2855.776        3.890        1.269      227.386       47.789        0.044      349.147       29.358      863.316
07/16/2014  11:04:00     -126.529      220.301      -26.831       88.271      120.328       46.846     7791.799    14478.864     2194.554        4.486        1.223      254.051       57.331        0.051      349.083       29.246      863.331
07/16/2014  11:05:00      -70.559      142.729       -6.316       86.262       76.257       53.481     7441.168     5815.095     2860.183        2.075        0.806      159.217       61.031        0.147      349.318       29.656      863.322
07/16/2014  11:06:00     -171.714       -9.242       -5.263       81.845       83.419       48.336     6698.606     6958.708     2336.412        2.279        0.800      171.963       45.269        0.069      348.935       28.993      863.303
07/16/2014  11:07:00      -77.453      115.428       -8.880       53.707       56.142       43.730     2884.447     3151.956     1912.306        1.367        0.397      139.005       41.729        0.090      349.281       29.594      863.300
07/16/2014  11:08:00        9.069      269.372      -31.547       46.696      121.464       37.886     2180.491    14753.487     1435.357        4.600        0.918      269.525       44.402        0.027      349.260       29.554      863.297
07/16/2014  11:09:00       -4.892      282.843      -30.727       66.153       87.680       40.818     4376.213     7687.721     1666.118        4.735        0.687      282.886       44.194        0.024      349.178       29.412      863.294
07/16/2014  11:10:00      -44.302      259.975      -30.984       84.445       98.646       43.046     7130.929     9730.944     1852.924        4.461        0.936      263.723       41.360        0.025      349.471       29.919      863.286
07/16/2014  11:11:00       -6.498       85.513      -12.666       45.688       62.926       42.566     2087.431     3959.667     1811.905        0.769        0.393       85.759       40.821        0.227      349.791       30.479      863.270
07/16/2014  11:12:00      -67.699       52.826        8.709       61.586       45.962       34.797     3792.835     2112.492     1210.860        0.728        0.356       85.871       37.292        0.189      350.039       30.911      863.269
07/16/2014  11:13:00      -31.318       76.228        8.710       47.221       89.850       35.697     2229.795     8072.968     1274.300        0.922        0.579       82.410       36.631        0.198      349.974       30.796      863.254
07/16/2014  11:14:00     -126.506      130.554      -15.030       80.875       83.459       45.744     6540.734     6965.353     2092.530        2.443        0.780      181.792       44.354        0.060      349.658       30.245      863.244
07/16/2014  11:15:00     -113.302      110.113      -11.196       73.746       74.321       49.201     5438.400     5523.630     2420.764        1.923        0.669      157.994       38.779        0.060      349.599       30.144      863.253
07/16/2014  11:16:00     -142.048       99.763      -23.504       79.293       93.654       42.324     6287.450     8771.164     1791.329        2.376        0.842      173.581       41.142        0.056      349.399       29.796      863.246
07/16/2014  11:17:00      -75.788      151.494       -3.822       64.904       84.461       46.436     4212.480     7133.708     2156.256        2.110        0.675      169.393       41.216        0.059      349.487       29.950      863.271
07/16/2014  11:18:00      -92.097       36.018      -15.175       33.861       74.985       34.684     1146.580     5622.696     1202.971        0.899        0.399       98.889       19.952        0.041      349.161       29.386      863.280
07/16/2014  11:19:00      -74.905       76.249        2.501       58.022       84.315       38.495     3366.570     7109.073     1481.890        1.169        0.598      106.886       35.095        0.108      349.550       30.061      863.272
07/16/2014  11:20:00     -113.078       -6.955       -8.910       75.479       78.943       41.461     5697.142     6232.053     1719.035        1.328        0.682      113.292       39.598        0.122      349.581       30.114      863.265
07/16/2014  11:21:00     -110.309      -24.143        6.299      109.035       78.780       45.471    11888.580     6206.215     2067.599        1.647        1.008      112.920       39.264        0.121      349.747       30.401      863.271
07/16/2014  11:22:00        5.795      181.061      -11.045       57.533       72.677       46.695     3310.002     5281.881     2180.423        2.185        0.539      181.154       46.970        0.067      349.805       30.503      863.275
07/16/2014  11:23:00       -3.184      121.454       -1.766       48.342       59.065       44.824     2336.951     3488.707     2009.152        1.130        0.392      121.496       39.611        0.106      349.939       30.737      863.242
07/16/2014  11:24:00      -31.586       50.836       26.341       35.947       44.248       32.729     1292.154     1957.860     1071.159        0.430        0.216       59.850       29.187        0.238      350.720       32.095      863.236
07/16/2014  11:25:00      -38.663      168.065      -14.407       59.066      111.240       39.889     3488.806    12374.250     1591.156        2.370        0.873      172.455       40.087        0.054      349.843       30.569      863.266
07/16/2014  11:26:00      -21.341      181.688       -0.341       48.501      108.915       45.353     2352.387    11862.479     2056.890        2.487        0.814      182.937       48.356        0.070      349.850       30.580      863.267
07/16/2014  11:27:00       -9.020       51.278       13.894       47.374       43.641       31.399     2244.301     1904.505      985.900        0.402        0.257       52.065       27.598        0.281      349.905       30.678      863.264
07/16/2014  11:28:00      -81.866      203.218      -19.411       76.259       75.914       47.024     5815.368     5762.886     2211.282        3.108        0.689      219.088       41.740        0.036      349.499       29.970      863.268
07/16/2014  11:29:00      -79.754      159.425      -15.594       59.299       55.094       39.368     3516.426     3035.324     1549.822        2.006        0.405      178.261       30.745        0.030      349.460       29.904      863.276
07/16/2014  11:30:00      -35.084      300.332      -39.160       52.031       65.331       38.870     2707.209     4268.097     1510.894        5.072        0.424      302.374       27.394        0.008      349.180       29.413      863.280
07/16/2014  11:31:00      -72.783      137.467      -29.415       36.527       75.227       37.620     1334.231     5659.037     1415.269        1.673        0.420      155.546       18.635        0.014      349.406       29.809      863.279
07/16/2014  11:32:00      -66.050       -0.295      -16.943       30.576       70.458       25.937      934.914     4964.324      672.710        0.561        0.329       66.050       24.116        0.133      349.177       29.414      863.268
07/16/2014  11:33:00        5.165      -30.994       36.122       39.072       93.648       30.877     1526.602     8770.024      953.418        0.677        0.563       31.421       42.446        1.825      349.752       30.411      863.244
07/16/2014  11:34:00      -25.722      103.705       -6.965       62.448       76.339       43.290     3899.762     5827.691     1874.042        1.153        0.580      106.847       45.947        0.185      349.984       30.814      863.240
07/16/2014  11:35:00      -12.649      285.914      -38.079       90.503       77.936       43.439     8190.846     6074.027     1886.978        4.975        0.808      286.194       38.147        0.018      349.854       30.586      863.238
07/16/2014  11:36:00      -16.808      219.600      -16.244       50.400       70.594       36.379     2540.163     4983.580     1323.413        2.881        0.442      220.242       35.474        0.026      349.725       30.362      863.229
07/16/2014  11:37:00       -2.890      109.567       14.177       52.619       63.044       43.806     2768.726     3974.496     1919.007        1.044        0.433      109.606       40.123        0.134      350.428       31.586      863.219
07/16/2014  11:38:00       46.484      110.817      -18.594       52.213       93.167       42.861     2726.217     8680.170     1837.046        1.401        0.662      120.172       40.997        0.116      349.888       30.648      863.215
07/16/2014  11:39:00      -64.386       87.445      -15.185       60.240       82.687       38.923     3628.819     6837.070     1515.017        1.200        0.599      108.592       35.291        0.106      349.943       30.742      863.200
07/16/2014  11:40:00     -139.214      129.564      -23.913       59.508       54.318       41.669     3541.178     2950.492     1736.301        2.248        0.411      190.177       37.320        0.039      349.629       30.195      863.192
07/16/2014  11:41:00      -32.269      139.111       -9.990       39.854       53.994       34.854     1588.361     2915.393     1214.830        1.310        0.286      142.804       27.111        0.036      349.882       30.638      863.184
07/16/2014  11:42:00        0.493       27.797        6.546       24.133       33.136       34.406      582.396     1097.964     1183.745        0.184        0.143       27.802       17.303        0.387      350.235       31.250      863.176
07/16/2014  11:43:00       16.321       25.624       61.150       38.572       35.379       22.422     1487.825     1251.693      502.731        0.395        0.162       30.380       15.903        0.274      350.407       31.549      863.137
07/16/2014  11:44:00       39.318       83.907       32.254       57.157       57.171       43.108     3266.976     3268.496     1858.332        0.901        0.420       92.662       39.866        0.185      349.906       30.677      863.134
07/16/2014  11:45:00      -60.339      248.348      -20.710       55.328       79.320       44.220     3061.210     6291.607     1955.392        3.853        0.565      255.573       39.934        0.024      349.652       30.234      863.149
07/16/2014  11:46:00      -48.447      224.992      -22.355       48.753       81.145       37.465     2376.869     6584.491     1403.656        3.191        0.518      230.149       35.703        0.024      349.693       30.307      863.138
07/16/2014  11:47:00      -12.092       49.311        1.573       48.401       48.737       40.201     2342.649     2375.247     1616.138        0.446        0.317       50.772       16.278        0.103      350.231       31.245      863.119
07/16/2014  11:48:00      -72.665       46.313      -11.093       41.003       43.660       28.831     1681.276     1906.154      831.207        0.598        0.221       86.169       23.498        0.074      349.887       30.645      863.098
07/16/2014  11:49:00      -63.348       26.405        4.885       67.317       40.965       34.409     4531.590     1678.093     1183.981        0.606        0.370       68.631       34.845        0.258      349.990       30.824      863.085
07/16/2014  11:50:00      -68.105      109.170        2.991       89.035       82.292       54.764     7927.277     6772.005     2999.117        1.713        0.885      128.672       66.070        0.264      350.243       31.264      863.085
07/16/2014  11:51:00      -10.776      123.684        7.670       73.485       81.780       55.749     5400.055     6688.027     3107.913        1.533        0.760      124.152       50.623        0.166      350.255       31.284      863.063
07/16/2014  11:52:00      -50.640      157.685      -17.889       94.972       95.420       45.209     9019.720     9105.032     2043.884        2.395        1.008      165.617       54.611        0.109      350.266       31.301      863.054
07/16/2014  11:53:00      -51.448      324.183      -42.063       83.670      116.223       52.704     7000.660    13507.693     2777.702        6.639        1.164      328.240       51.849        0.025      350.008       30.851      863.043
07/16/2014  11:54:00      -30.989      330.841      -41.949       81.687       90.026       47.464     6672.709     8104.614     2252.809        6.460        0.852      332.289       41.881        0.016      349.788       30.470      863.055
07/16/2014  11:55:00      -51.396      279.175      -18.204       49.936       80.912       43.890     2493.594     6546.699     1926.364        4.594        0.548      283.867       41.306        0.021      349.689       30.301      863.053
07/16/2014  11:56:00      -85.551      148.515        0.655       82.972       83.807       49.181     6884.300     7023.675     2418.746        2.285        0.816      171.394       54.136        0.100      350.412       31.557      863.032
07/16/2014  11:57:00     -146.387      207.489      -34.864       49.526       75.163       45.791     2452.785     5649.417     2096.810        3.795        0.510      253.931       36.517        0.021      350.002       30.842      863.023
07/16/2014  11:58:00      -45.439       65.272       10.121       70.142      109.036       39.822     4919.872    11888.819     1585.818        1.241        0.920       79.531       47.151        0.351      350.801       32.235      863.028
07/16/2014  11:59:00      -21.777       94.809       24.350       99.100      132.637       66.605     9820.907    17592.492     4436.172        2.095        1.592       97.278       57.662        0.351      350.716       32.087      863.033
07/16/2014  12:00:00      -39.641      237.155      -11.324       59.549      103.449       47.210     3546.074    10701.774     2228.782        3.721        0.824      240.445       51.579        0.046      350.488       31.686      863.054
07/16/2014  12:01:00      -95.000      162.482      -25.729       81.134       75.282       50.789     6582.763     5667.419     2579.487        2.546        0.741      188.217       19.305        0.011      350.158       31.113      863.064
07/16/2014  12:02:00       55.550       80.390       10.832       97.624       66.335       51.377     9530.428     4400.327     2639.569        1.311        0.829       97.716       36.315        0.138      350.412       31.557      863.061
07/16/2014  12:03:00      -26.943      155.795        7.289       63.495       95.179       56.189     4031.552     9059.061     3157.216        2.065        0.812      158.108       55.586        0.124      350.588       31.861      863.062
07/16/2014  12:04:00       96.653      158.803       -4.352      103.273       92.905       62.382    10665.243     8631.348     3891.472        2.888        1.159      185.904       56.415        0.092      350.391       31.519      863.048
07/16/2014  12:05:00       63.849      276.003       -5.902      178.669      170.303       85.235    31922.588    29002.979     7265.052        7.423        3.410      283.292      108.223        0.146      349.771       30.439      863.051
07/16/2014  12:06:00       14.717      240.045      -24.953       67.351      128.929       54.305     4536.222    16622.723     2949.066        4.128        1.205      240.496       58.218        0.059      349.891       30.649      863.058
07/16/2014  12:07:00       -6.978      346.216      -30.326       69.180      150.674       64.971     4785.828    22702.635     4221.244        7.627        1.585      346.286       76.058        0.048      349.943       30.737      863.057
07/16/2014  12:08:00      -13.483      387.574      -39.929       69.696       87.863       53.120     4857.533     7719.901     2821.764        8.369        0.770      387.809       45.032        0.013      349.868       30.608      863.042
07/16/2014  12:09:00     -138.324      132.260      -18.653      110.012      122.834       65.758    12102.666    15088.236     4324.102        3.424        1.576      191.380       67.401        0.124      349.849       30.577      863.048
07/16/2014  12:10:00      -16.966       44.851       10.336       46.988       51.860       32.224     2207.842     2689.496     1038.415        0.417        0.297       47.953       24.778        0.267      350.630       31.937      863.025
07/16/2014  12:11:00     -213.205       98.347      -33.873       84.806      132.445       54.124     7191.997    17541.732     2929.389        4.196        1.383      234.794       55.272        0.055      349.794       30.480      863.021
07/16/2014  12:12:00     -131.768       91.334      -28.053       45.780       61.049       35.894     2095.795     3726.931     1288.363        1.680        0.356      160.327       37.131        0.054      349.620       30.181      863.035
07/16/2014  12:13:00     -135.504       76.144       -5.910       90.327       58.414       47.191     8158.959     3412.219     2226.967        1.899        0.690      155.432       50.210        0.104      350.113       31.037      863.015
07/16/2014  12:14:00     -116.770       17.110       -1.880      104.232       99.633       46.596    10864.369     9926.708     2171.220        1.844        1.148      118.017       40.153        0.116      350.043       30.915      863.018
07/16/2014  12:15:00     -143.746       72.147      -24.160       93.847       71.756       41.657     8807.192     5148.972     1735.294        2.107        0.785      160.836       52.881        0.108      349.937       30.729      863.013
07/16/2014  12:16:00     -126.726      -19.283       -6.369      113.204       73.070       44.824    12815.247     5339.253     2009.182        1.831        1.008      128.185       21.202        0.027      349.996       30.834      863.014
07/16/2014  12:17:00      -93.933      110.462       -7.709       83.345       79.725       46.701     6946.329     6356.039     2180.994        1.828        0.774      145.001       50.859        0.123      350.190       31.172      863.010
07/16/2014  12:18:00      -34.060      201.602      -20.489       63.284      111.929       52.280     4004.877    12528.029     2733.172        3.074        0.963      204.459       63.882        0.098      350.266       31.301      862.998
07/16/2014  12:19:00      -55.262      274.921      -21.228       53.257      115.508       47.977     2836.346    13342.047     2301.811        4.878        0.924      280.420       52.876        0.036      349.933       30.723      862.991
07/16/2014  12:20:00      -68.986      346.273      -36.374       59.403       81.577       41.810     3528.717     6654.832     1748.075        6.896        0.597      353.078       36.806        0.011      349.621       30.180      862.969
07/16/2014  12:21:00      -92.981      223.124      -18.200       58.495       82.050       43.217     3421.619     6732.133     1867.738        3.539        0.601      241.722       39.146        0.026      349.840       30.560      862.975
07/16/2014  12:22:00      -88.089      176.792      -13.221       52.328      105.289       44.567     2738.220    11085.753     1986.227        2.750        0.791      197.522       41.323        0.044      350.053       30.931      862.959
07/16/2014  12:23:00      -95.526       39.893        2.992       69.921       67.930       43.080     4888.890     4614.431     1855.876        1.104        0.568      103.521       34.215        0.109      350.424       31.578      862.959
07/16/2014  12:24:00      -59.648      159.021       -7.378       75.600      118.585       53.696     5715.393    14062.296     2883.258        2.578        1.133      169.840       66.109        0.152      350.299       31.360      862.971
07/16/2014  12:25:00     -109.515      272.953      -34.116       92.960      114.306       50.381     8641.615    13065.946     2538.245        5.595        1.212      294.103       54.920        0.035      349.969       30.785      862.982
07/16/2014  12:26:00      -95.086      222.982      -17.375       73.740      101.510       51.462     5437.598    10304.353     2648.327        3.872        0.920      242.409       54.862        0.051      349.897       30.661      862.978
07/16/2014  12:27:00     -140.795      197.074      -38.187       63.532       88.643       42.170     4036.358     7857.629     1778.334        3.689        0.684      242.201       39.738        0.027      349.688       30.295      862.975
07/16/2014  12:28:00       -9.563      304.885      -34.590       79.902       93.518       42.090     6384.369     8745.551     1771.558        5.557        0.845      305.035       30.038        0.010      349.785       30.464      862.966
07/16/2014  12:29:00      -17.988      191.066      -22.414       93.158       85.547       52.555     8678.331     7318.372     2762.041        2.804        0.938      191.911       49.890        0.068      350.007       30.852      862.953
07/16/2014  12:30:00     -190.245      195.883      -36.552       98.768       98.997       56.979     9755.137     9800.486     3246.633        4.935        1.140      273.063       55.272        0.041      349.743       30.392      862.940
07/16/2014  12:31:00      -43.591      178.526      -15.975       64.274       81.334       46.198     4131.122     6615.255     2134.259        2.345        0.644      183.771       35.101        0.036      350.138       31.079      862.933
07/16/2014  12:32:00      -47.181      212.762      -28.301       83.461      124.697       52.109     6965.745    15549.220     2715.304        3.676        1.262      217.931       55.805        0.066      349.880       30.631      862.932
07/16/2014  12:33:00      -45.201      394.305      -51.014       79.515       72.356       34.110     6322.557     5235.457     1163.484        8.642        0.636      396.887       29.542        0.006      349.526       30.014      862.924
07/16/2014  12:34:00       -9.284      331.173      -50.726       79.180       59.330       38.934     6269.483     3520.042     1515.838        6.182        0.565      331.303       32.894        0.010      349.500       29.972      862.916
07/16/2014  12:35:00      -82.314      262.912      -26.053       58.506       68.339       39.549     3423.000     4670.266     1564.094        4.312        0.483      275.497       36.912        0.018      349.696       30.311      862.915
07/16/2014  12:36:00      -91.763      209.138      -23.394       74.581       90.917       47.244     5562.282     8265.926     2231.978        3.438        0.803      228.384       46.005        0.041      349.795       30.483      862.909
07/16/2014  12:37:00      -38.465      221.123      -33.690       94.847       93.429       56.985     8995.875     8729.055     3247.297        3.624        1.049      224.444       62.095        0.077      349.851       30.582      862.893
07/16/2014  12:38:00        9.370      262.918      -31.562       44.843       78.250       45.392     2010.938     6123.075     2060.454        4.020        0.510      263.085       43.638        0.028      349.699       30.316      862.881
07/16/2014  12:39:00     -113.415      260.935      -40.609      103.198       96.074       50.743    10649.868     9230.284     2574.892        5.252        1.123      284.517       52.337        0.034      349.884       30.638      862.882
07/16/2014  12:40:00      -64.867      183.208      -24.049       78.682       88.473       46.282     6190.846     7827.438     2141.978        2.725        0.808      194.352       48.280        0.062      350.160       31.116      862.880
07/16/2014  12:41:00      -60.117      217.404      -13.582       58.830       98.680       44.737     3460.994     9737.732     2001.420        3.313        0.760      225.563       35.735        0.025      350.137       31.077      862.885
07/16/2014  12:42:00      -94.994      184.214      -12.421       64.373       73.949       52.460     4143.943     5468.527     2752.006        2.774        0.618      207.264       44.973        0.047      349.963       30.776      862.875
07/16/2014  12:43:00      -74.567      269.486      -34.311       51.670       68.904       51.776     2669.808     4747.765     2680.723        4.473        0.505      279.612       34.501        0.015      349.697       30.313      862.880
07/16/2014  12:44:00      -61.948      206.141      -16.212       48.963       92.108       49.854     2397.385     8483.854     2485.454        2.998        0.668      215.248       43.260        0.040      349.970       30.786      862.863
07/16/2014  12:45:00      -54.403      311.408      -18.168       64.688      139.779       53.710     4184.567    19538.138     2884.714        6.343        1.330      316.124       49.501        0.025      349.938       30.731      862.843
07/16/2014  12:46:00     -139.096       23.153       -8.822       70.542      113.145       49.443     4976.170    12801.873     2444.604        2.009        1.011      141.010       39.013        0.077      349.949       30.751      862.841
07/16/2014  12:47:00      -80.929      153.692      -11.419       82.494      123.190       52.097     6805.295    15175.688     2714.120        2.749        1.235      173.697       48.206        0.077      350.084       30.986      862.840
07/16/2014  12:48:00      -67.000      288.371      -17.163       61.264       82.560       49.474     3753.229     6816.178     2447.664        5.048        0.651      296.052       41.175        0.019      349.801       30.491      862.830
07/16/2014  12:49:00     -119.074      104.842      -18.370       87.523       68.224       44.798     7660.231     4654.507     2006.836        1.991        0.716      158.652       50.733        0.102      350.052       30.931      862.807
07/16/2014  12:50:00      -93.011      213.199      -21.029       62.525      115.691       45.166     3909.435    13384.358     2039.929        3.694        0.967      232.604       58.287        0.063      350.016       30.866      862.797
07/16/2014  12:51:00     -143.118      199.016      -32.637       94.863       85.544       56.436     8998.961     7317.731     3185.030        4.032        0.975      245.133       46.472        0.036      349.891       30.648      862.770
07/16/2014  12:52:00      -66.345      227.581      -29.236       54.750       63.077       35.552     2997.537     3978.698     1263.950        3.264        0.412      237.054       20.422        0.007      349.742       30.389      862.759
07/16/2014  12:53:00      -14.624      162.720        8.799       69.419      101.421       57.410     4819.000    10286.207     3295.864        2.258        0.920      163.376       56.429        0.119      350.296       31.354      862.734
07/16/2014  12:54:00     -144.326      219.283      -27.499      111.571      155.585       60.656    12447.989    24206.792     3679.101        5.499        2.017      262.517       87.614        0.111      350.067       30.956      862.735
07/16/2014  12:55:00     -218.737      182.832      -47.163      115.997       97.444       56.200    13455.379     9495.412     3158.487        5.480        1.305      285.085       49.677        0.030      349.885       30.637      862.736
07/16/2014  12:56:00      -23.669      272.475      -24.901       53.144       98.892       43.674     2824.254     9779.576     1907.459        4.496        0.726      273.502       49.249        0.032      349.779       30.454      862.725
07/16/2014  12:57:00     -108.589      130.386      -16.878       92.704       68.964       48.238     8594.022     4756.061     2326.938        2.237        0.784      169.683       41.763        0.061      350.005       30.849      862.692
07/16/2014  12:58:00     -104.170      172.967      -38.048       89.311       84.024       37.505     7976.416     7060.110     1406.619        2.933        0.822      201.913       31.895        0.025      350.030       30.890      862.691
07/16/2014  12:59:00      -37.711      208.133      -18.136       84.934      136.839       65.154     7213.750    18725.008     4245.071        3.762        1.509      211.522       56.562        0.072      350.241       31.259      862.694
07/16/2014  13:00:00      -39.770      319.500      -35.562       81.565      111.715       47.974     6652.909    12480.333     2301.485        6.318        1.072      321.966       50.516        0.025      350.036       30.901      862.683
07/16/2014  13:01:00     -102.194      207.359      -13.737      102.683       99.076       54.643    10543.891     9815.997     2985.831        3.848        1.167      231.174       56.122        0.059      350.382       31.505      862.685
07/16/2014  13:02:00      -60.790      261.181      -21.793       67.549       82.575       50.667     4562.864     6818.554     2567.174        4.316        0.697      268.162       39.269        0.021      350.203       31.191      862.683
07/16/2014  13:03:00      -19.865      350.187      -38.380       81.598       91.842       44.724     6658.275     8435.029     2000.236        7.079        0.855      350.750       46.124        0.017      349.869       30.610      862.671
07/16/2014  13:04:00       43.971      257.774      -29.157       65.951      136.210       62.379     4349.511    18553.182     3891.112        4.801        1.340      261.498       62.702        0.057      350.136       31.077      862.639
07/16/2014  13:05:00       17.683      217.767      -30.957       47.839       55.082       35.634     2288.584     3034.069     1269.761        2.764        0.330      218.484       32.963        0.023      350.301       31.361      862.644
07/16/2014  13:06:00      -78.716      192.449      -12.034       50.334       81.570       43.322     2533.552     6653.592     1876.825        2.722        0.553      207.925       35.637        0.029      350.858       32.331      862.635
07/16/2014  13:07:00      -56.844       82.083       22.366       80.904       78.381       47.725     6545.471     6143.650     2277.668        1.271        0.748       99.844       41.233        0.171      351.268       33.048      862.635
07/16/2014  13:08:00      -80.279      359.365      -40.103       93.524      133.363       63.008     8746.684    17785.815     3970.015        8.384        1.525      368.223       63.590        0.030      350.234       31.246      862.638
07/16/2014  13:09:00      -93.404      107.285       -1.112       60.015       82.121       54.161     3601.828     6743.938     2933.370        1.675        0.664      142.248       46.647        0.108      350.538       31.777      862.625
07/16/2014  13:10:00      -73.995       93.870       -6.056       62.047       82.301       51.108     3849.793     6773.492     2612.039        1.378        0.662      119.527       34.569        0.084      350.694       32.047      862.610
07/16/2014  13:11:00     -100.843      140.086      -25.061       73.183      117.693       55.391     5355.819    13851.677     3068.173        2.634        1.114      172.608       46.790        0.073      350.473       31.663      862.617
07/16/2014  13:12:00      -98.166      213.203      -25.680       59.391       99.646       46.203     3527.277     9929.279     2134.723        3.567        0.780      234.717       47.864        0.042      350.355       31.457      862.621
07/16/2014  13:13:00      -26.029       24.911        5.269       36.882       46.883       31.941     1360.247     2197.980     1020.211        0.295        0.229       36.028       19.246        0.285      350.755       32.155      862.591
07/16/2014  13:14:00      -49.756       78.721        9.091      101.682       98.046       55.409    10339.259     9613.058     3070.134        1.588        1.151       93.127       75.659        0.660      351.006       32.591      862.571
07/16/2014  13:15:00      -50.074      213.897       -7.855       70.592      130.330       52.048     4983.295    16986.014     2708.970        3.649        1.234      219.680       61.938        0.079      350.650       31.970      862.577
07/16/2014  13:16:00     -100.287      147.461       -7.137       90.134      117.583       45.857     8124.093    13825.788     2102.907        2.795        1.203      178.332       36.953        0.043      350.684       32.029      862.569
07/16/2014  13:17:00      -59.794       56.870        3.126       65.368       67.816       43.161     4273.028     4599.029     1862.890        0.877        0.537       82.519       35.739        0.188      350.862       32.342      862.549
07/16/2014  13:18:00     -109.009        3.197       -6.617       89.817       63.937       50.568     8067.137     4087.961     2557.145        1.332        0.736      109.056       49.607        0.207      350.509       31.726      862.528
07/16/2014  13:19:00      -73.462      175.496       -9.227       56.873       75.755       47.677     3234.526     5738.825     2273.138        2.376        0.562      190.251       38.807        0.042      350.462       31.643      862.535
07/16/2014  13:20:00      -93.650      235.265      -27.176       55.358       86.303       38.139     3064.523     7448.138     1454.597        3.841        0.598      253.219       34.421        0.018      350.134       31.072      862.526
07/16/2014  13:21:00     -107.390      133.725       -3.413       58.268       93.326       51.275     3395.191     8709.769     2629.162        2.208        0.737      171.507       42.482        0.061      350.166       31.128      862.518
07/16/2014  13:22:00      -64.229      116.679       -1.535       48.358       80.713       42.840     2338.456     6514.561     1835.297        1.421        0.534      133.189       48.891        0.135      350.504       31.716      862.489
07/16/2014  13:23:00     -134.668      106.347      -16.721       72.838       69.934       45.178     5305.380     4890.770     2041.061        2.098        0.612      171.596       31.865        0.034      350.326       31.406      862.467
07/16/2014  13:24:00     -131.253      118.977      -24.208       80.605       94.851       45.597     6497.105     8996.707     2079.122        2.477        0.879      177.152       47.900        0.073      350.120       31.048      862.451
07/16/2014  13:25:00     -142.970       91.925      -18.307       66.939       85.440       48.473     4480.877     7300.038     2349.602        2.168        0.707      169.972       48.822        0.083      350.304       31.368      862.419
07/16/2014  13:26:00      -43.871      131.308       -3.722       56.365      108.200       48.303     3177.029    11707.255     2333.177        1.820        0.861      138.443       38.214        0.076      350.588       31.863      862.411
07/16/2014  13:27:00     -129.325      218.998      -36.511       81.355      112.019       40.466     6618.629    12548.333     1637.503        4.341        1.040      254.333       35.853        0.020      350.280       31.324      862.392
07/16/2014  13:28:00      -99.483      115.268       -6.679       67.059       75.541       47.664     4496.951     5706.390     2271.900        1.785        0.624      152.262       42.699        0.079      350.522       31.748      862.378
07/16/2014  13:29:00      -88.080      150.051       -8.203       91.606       86.742       57.062     8391.750     7524.207     3256.119        2.475        0.959      173.992       51.143        0.086      350.711       32.075      862.378
07/16/2014  13:30:00     -147.013      147.272      -42.505       45.567       50.731       29.315     2076.322     2573.650      859.371        2.531        0.275      208.091       20.421        0.010      350.188       31.165      862.367
07/16/2014  13:31:00     -157.849      138.667      -32.476       81.087       72.628       43.745     6575.178     5274.889     1913.654        2.948        0.688      210.106       36.973        0.031      350.438       31.599      862.349
07/16/2014  13:32:00      -76.117       16.518       12.083       63.482       57.704       35.939     4030.001     3329.792     1291.624        0.743        0.433       77.889       26.000        0.111      350.515       31.736      862.324
07/16/2014  13:33:00      -64.990       64.620       -0.031       73.892       87.071       45.279     5460.040     7581.405     2050.172        1.174        0.755       91.648       47.733        0.271      350.697       32.052      862.307
07/16/2014  13:34:00     -199.486       52.999      -16.822       69.198      102.648       50.768     4788.400    10536.687     2577.375        3.039        0.895      206.406       46.400        0.051      350.235       31.246      862.311
07/16/2014  13:35:00      -19.297       39.663       -3.049       55.911      106.329       46.004     3126.046    11305.831     2116.400        0.925        0.827       44.108       29.896        0.459      350.421       31.572      862.300
07/16/2014  13:36:00        0.006      104.375       25.804       35.425       95.631       44.233     1254.906     9145.232     1956.550        1.196        0.618      104.375       51.517        0.244      350.801       32.234      862.285
07/16/2014  13:37:00      -23.930      180.889       -2.918       52.592      115.137       47.937     2765.924    13256.617     2297.962        2.581        0.916      182.465       56.771        0.097      350.645       31.962      862.275
07/16/2014  13:38:00      -41.828      294.218      -46.524       70.481       67.707       34.412     4967.612     4584.201     1184.193        5.060        0.537      297.176       38.779        0.017      349.946       30.742      862.270
07/16/2014  13:39:00        1.659      165.218      -15.101      102.520       69.537       40.363    10510.420     4835.354     1629.173        2.225        0.849      165.227       38.596        0.055      350.370       31.482      862.240
07/16/2014  13:40:00       60.628       43.842       26.950       58.254       43.300       46.683     3393.575     1874.931     2179.345        0.688        0.372       74.819       32.959        0.194      350.782       32.202      862.191
07/16/2014  13:41:00       15.763      146.205      -17.915       73.910       89.835       34.741     5462.648     8070.363     1206.966        1.834        0.737      147.052       42.552        0.084      350.462       31.641      862.181
07/16/2014  13:42:00       26.329      166.245       -2.569       51.698       98.914       43.885     2672.650     9783.886     1925.863        2.136        0.719      168.317       54.303        0.104      350.583       31.854      862.174
07/16/2014  13:43:00       25.155      314.775      -30.144       49.951       90.463       50.460     2495.079     8183.641     2546.241        5.692        0.661      315.778       43.951        0.019      350.277       31.320      862.160
07/16/2014  13:44:00        9.455       91.545        1.726       40.866       59.845       35.918     1670.061     3581.379     1290.094        0.751        0.327       92.032       35.122        0.146      350.797       32.228      862.135
07/16/2014  13:45:00      -50.047      104.674       -6.176       39.517       46.556       37.666     1561.596     2167.444     1418.763        0.932        0.257      116.023       25.823        0.050      350.833       32.289      862.114
07/16/2014  13:46:00      -28.937      166.168      -15.525       96.730      103.901       46.660     9356.767    10795.497     2177.131        2.551        1.116      168.669       61.190        0.132      350.891       32.390      862.099
07/16/2014  13:47:00      -23.873      196.096       -6.372       69.603      104.918       55.664     4844.612    11007.821     3098.484        2.900        0.948      197.544       62.108        0.099      351.109       32.769      862.078
07/16/2014  13:48:00      -66.285      226.528      -15.022       56.235       89.113       48.888     3162.402     7941.082     2390.033        3.471        0.675      236.027       43.718        0.034      350.805       32.240      862.052
07/16/2014  13:49:00     -142.279      240.753      -32.368       64.279       82.216       47.903     4131.839     6759.539     2294.674        4.622        0.659      279.652       47.629        0.029      350.608       31.894      862.041
07/16/2014  13:50:00      -91.632      198.589      -24.572       63.596       88.271       45.779     4044.503     7791.824     2095.727        3.118        0.697      218.710       41.050        0.035      350.826       32.275      862.011
07/16/2014  13:51:00        4.671      121.082       -1.237       59.791       94.918       45.817     3575.002     9009.388     2099.203        1.468        0.734      121.172       49.349        0.166      351.000       32.580      861.993
07/16/2014  13:52:00     -156.197       38.122      -13.546       88.742      108.380       46.898     7875.065    11746.286     2199.422        2.392        1.091      160.782       43.097        0.072      350.761       32.161      862.002
07/16/2014  13:53:00     -200.632       20.369      -22.417      129.708      102.721       55.858    16824.265    10551.681     3120.147        3.583        1.525      201.663       72.154        0.128      350.758       32.157      861.996
07/16/2014  13:54:00     -114.214      151.895      -27.188       77.844       71.298       43.897     6059.691     5083.465     1926.933        2.496        0.654      190.045       51.284        0.073      350.653       31.974      861.988
07/16/2014  13:55:00      -30.759      196.918      -21.792       54.840      101.155       42.175     3007.388    10232.251     1778.766        2.761        0.751      199.306       52.578        0.070      350.762       32.163      861.961
07/16/2014  13:56:00       -6.916      163.640       -9.329       39.449      107.379       40.564     1556.257    11530.178     1645.446        2.082        0.737      163.786       50.849        0.096      351.042       32.653      861.914
07/16/2014  13:57:00      -38.375       39.652        6.600       41.757       56.844       37.633     1743.627     3231.270     1416.239        0.474        0.320       55.181       38.391        0.484      351.290       33.087      861.907
07/16/2014  13:58:00     -137.423      -68.990       -8.918      126.267       91.386       59.087    15943.481     8351.345     3491.303        2.575        1.389      153.768       56.757        0.136      351.290       33.086      861.887
07/16/2014  13:59:00     -273.540       -6.932      -41.232       94.759      129.464       54.122     8979.286    16761.029     2929.241        5.262        1.433      273.628       35.949        0.017      350.828       32.277      861.890
07/16/2014  14:00:00     -304.674      103.721      -37.563       68.997       70.252       41.225     4760.558     4935.365     1699.510        5.819        0.570      321.845       39.316        0.015      350.697       32.050      861.886
07/16/2014  14:01:00     -265.434      -86.317      -18.664       71.674       77.075       41.005     5137.107     5940.567     1681.438        4.550        0.638      279.116       28.061        0.010      350.702       32.057      861.863
07/16/2014  14:02:00     -165.504      -53.347      -13.092       66.843       59.148       41.288     4467.966     3498.513     1704.668        2.004        0.484      173.890       39.954        0.053      350.728       32.106      861.860
07/16/2014  14:03:00     -153.192      157.019      -30.912       47.165       86.949       41.420     2224.567     7560.097     1715.606        3.029        0.575      219.369       39.659        0.033      350.570       31.831      861.854
07/16/2014  14:04:00      -25.554       70.836       16.228       72.449       87.471       39.958     5248.908     7651.118     1596.657        1.021        0.725       75.304       36.288        0.232      351.267       33.045      861.850
07/16/2014  14:05:00      -96.248       84.489        0.906       83.709       72.987       44.134     7007.176     5327.115     1947.772        1.534        0.714      128.070       51.412        0.161      351.299       33.102      861.836
07/16/2014  14:06:00     -141.684       93.478      -18.667       67.788       59.946       48.523     4595.168     3593.556     2354.451        1.985        0.527      169.743       34.703        0.042      351.066       32.696      861.822
07/16/2014  14:07:00     -173.961      -14.538      -10.136       52.126       49.351       30.171     2717.089     2435.536      910.288        1.832        0.303      174.568       26.821        0.024      350.863       32.341      861.802
07/16/2014  14:08:00     -104.725       42.996      -17.380       62.729       55.363       34.180     3934.988     3065.048     1168.298        1.064        0.408      113.207       26.189        0.054      351.136       32.818      861.791
07/16/2014  14:09:00       22.665       11.694       35.688       29.054       26.298       18.119      844.122      691.605      328.304        0.189        0.093       25.504       12.855        0.254      351.448       33.362      861.781
07/16/2014  14:10:00       -2.249      -18.722       -9.864       15.831       31.572       22.528      250.610      996.786      507.500        0.110        0.088       18.856        8.496        0.203      350.841       32.305      861.752
07/16/2014  14:11:00      -35.914      -80.417        5.454       31.664       45.165       29.661     1002.620     2039.897      879.750        0.585        0.196       88.072       19.424        0.049      350.836       32.296      861.746
07/16/2014  14:12:00      -36.394       58.642       15.677       58.934       53.242       32.056     3473.257     2834.718     1027.581        0.617        0.367       69.017       33.801        0.240      351.731       33.856      861.721
07/16/2014  14:13:00      -94.431       34.793       -7.912       62.551       38.787       35.762     3912.610     1504.395     1278.953        0.844        0.335      100.637       34.355        0.117      351.722       33.841      861.708
07/16/2014  14:14:00     -117.081       27.461      -11.070       66.836       89.306       39.081     4467.082     7975.566     1527.329        1.427        0.698      120.258       23.456        0.038      351.418       33.310      861.702
07/16/2014  14:15:00     -139.920      -30.914        4.660       69.981       72.530       29.288     4897.353     5260.578      857.791        1.578        0.551      143.294       29.853        0.043      351.297       33.097      861.691
07/16/2014  14:16:00     -198.341      -44.043       -2.325       98.602       61.838       43.180     9722.266     3823.993     1864.477        2.834        0.771      203.172       46.776        0.053      351.289       33.082      861.671
07/16/2014  14:17:00     -193.187       -7.408      -17.351       92.125      117.900       44.438     8487.079    13900.414     1974.745        3.101        1.218      193.329       46.267        0.057      351.420       33.310      861.676
07/16/2014  14:18:00     -261.796       61.345      -31.080      104.289       74.670       44.714    10876.253     5575.658     1999.378        4.586        0.923      268.888       43.459        0.026      351.122       32.790      861.678
07/16/2014  14:19:00     -153.583      181.889      -13.220      109.562      123.358       53.921    12003.919    15217.078     2907.507        4.348        1.506      238.057       44.615        0.035      351.050       32.666      861.685
07/16/2014  14:20:00     -104.615       75.034       -6.938       71.242       79.842       43.061     5075.488     6374.743     1854.210        1.496        0.665      128.742       40.080        0.097      351.133       32.813      861.663
07/16/2014  14:21:00      -72.566      159.119       -3.411       75.248      115.205       55.045     5662.189    13272.103     3029.960        2.628        1.098      174.885       68.339        0.153      351.501       33.454      861.652
07/16/2014  14:22:00      -87.855      174.004       -6.225       86.452      155.840       64.447     7473.993    24286.012     4153.435        3.697        1.796      194.925       72.271        0.137      351.370       33.225      861.611
07/16/2014  14:23:00      -63.783      -57.307       16.806       91.864       90.083       60.181     8439.062     8114.974     3621.706        1.390        1.009       85.746       63.780        0.553      351.763       33.913      861.592
07/16/2014  14:24:00     -149.545      -52.551        2.900      170.946       78.858       59.622    29222.697     6218.606     3554.743        3.206        1.950      158.509       73.875        0.217      351.539       33.519      861.587
07/16/2014  14:25:00     -204.526        5.417      -16.604      110.014       70.847       37.621    12102.999     5019.298     1415.323        3.033        0.927      204.597       46.110        0.051      351.094       32.744      861.589
07/16/2014  14:26:00     -191.120      -69.501       10.158      133.772      104.908       61.940    17894.865    11005.590     3836.513        3.709        1.637      203.365       69.228        0.116      351.393       33.264      861.585
07/16/2014  14:27:00     -181.340      -16.739        1.822      113.721      122.527       56.990    12932.483    15012.928     3247.811        3.217        1.560      182.111       49.674        0.074      351.308       33.117      861.571
07/16/2014  14:28:00      -82.644       10.155       -4.307       78.154       65.265       42.511     6108.012     4259.521     1807.212        0.956        0.609       83.266       37.851        0.207      351.627       33.674      861.557
07/16/2014  14:29:00     -136.042      116.277      -16.689       85.591       96.502       46.987     7325.837     9312.612     2207.821        2.557        0.942      178.963       49.984        0.078      351.197       32.922      861.556
07/16/2014  14:30:00     -176.048      223.502      -43.486       71.739       80.650       50.593     5146.414     6504.365     2559.656        4.852        0.711      284.510       43.476        0.023      351.022       32.614      861.557
07/16/2014  14:31:00     -125.654      144.570      -24.596       53.173       57.290       42.419     2827.353     3282.170     1799.388        2.260        0.395      191.545       35.761        0.035      350.995       32.570      861.559
07/16/2014  14:32:00      -71.979      151.893      -10.973       51.140       94.635       42.806     2615.264     8955.863     1832.335        2.089        0.670      168.084       47.550        0.080      351.008       32.593      861.526
07/16/2014  14:33:00      -30.819      128.633       -5.477       33.900       46.318       31.397     1149.177     2145.328      985.772        1.090        0.214      132.273       25.126        0.036      351.123       32.794      861.515
07/16/2014  14:34:00      -38.672       32.130       -3.052       41.739       41.829       25.406     1742.135     1749.664      645.444        0.334        0.207       50.278       16.791        0.112      351.441       33.352      861.490
07/16/2014  14:35:00       -2.915       57.858       16.854       37.062       62.899       30.112     1373.560     3956.305      906.720        0.494        0.312       57.931       28.158        0.236      351.757       33.901      861.487
07/16/2014  14:36:00      -15.054       22.904        5.346       53.533       46.714       31.072     2865.761     2182.239      965.443        0.340        0.301       27.408       22.709        0.686      351.614       33.652      861.473
07/16/2014  14:37:00      -64.005       43.317        0.846       56.423       76.974       32.669     3183.561     5924.990     1067.244        0.807        0.509       77.286       24.256        0.099      351.888       34.132      861.458
07/16/2014  14:38:00      -96.519      -46.897        6.218      111.789       73.919       37.662    12496.745     5464.052     1418.442        1.546        0.969      107.309       42.977        0.160      351.610       33.646      861.446
07/16/2014  14:39:00      -48.789      152.978       -3.621       56.632       80.782       38.963     3207.156     6525.705     1518.134        1.852        0.563      160.570       31.631        0.039      351.417       33.306      861.444
07/16/2014  14:40:00      -64.107      110.199        7.396       45.652       66.101       41.148     2084.115     4369.332     1693.145        1.223        0.407      127.489       37.149        0.085      351.597       33.621      861.441
07/16/2014  14:41:00      -50.289      139.630       -1.486       58.872      102.585       43.528     3465.897    10523.588     1894.682        1.895        0.794      148.410       44.627        0.090      351.670       33.749      861.428
07/16/2014  14:42:00     -136.579      179.589      -36.004       63.889       59.854       44.254     4081.843     3582.445     1958.449        3.091        0.481      225.624       44.129        0.038      350.909       32.418      861.444
07/16/2014  14:43:00       -1.809       44.299       16.204       46.521       41.593       36.229     2164.227     1729.950     1312.571        0.372        0.260       44.336       31.737        0.512      351.755       33.897      861.437
07/16/2014  14:44:00       26.782      118.474        6.021       46.699       77.943       45.562     2180.821     6075.147     2075.934        1.256        0.517      121.464       36.935        0.092      351.459       33.380      861.408
07/16/2014  14:45:00      -96.583       66.006      -12.393      146.776      103.253       52.903    21543.181    10661.137     2798.739        2.441        1.750      116.983       64.553        0.304      351.556       33.547      861.381
07/16/2014  14:46:00     -177.764       -1.768      -28.178       44.340       38.895       26.800     1966.071     1512.809      718.248        1.830        0.210      177.772       22.182        0.016      350.926       32.451      861.395
07/16/2014  14:47:00     -186.637       10.319      -23.326       80.165      134.325       49.383     6426.384    18043.221     2438.719        3.119        1.345      186.922       55.588        0.088      351.429       33.325      861.387
07/16/2014  14:48:00     -263.071       70.537      -30.392      115.305      126.397       50.992    13295.138    15976.127     2600.189        5.348        1.594      272.363       50.568        0.034      351.214       32.951      861.401
07/16/2014  14:49:00     -332.347       56.346      -31.816      106.600       91.309       44.343    11363.512     8337.339     1966.316        6.815        1.083      337.090       42.144        0.016      351.190       32.909      861.387
07/16/2014  14:50:00     -274.753      -99.564       -8.642       76.455       98.627       46.637     5845.372     9727.342     2175.006        5.161        0.887      292.237       36.931        0.016      351.034       32.636      861.380
07/16/2014  14:51:00     -199.333       40.908      -36.338       74.722       90.234       37.615     5583.414     8142.184     1414.859        2.893        0.757      203.488       37.546        0.034      350.993       32.568      861.400
07/16/2014  14:52:00      -86.359       68.732       -1.435       69.926      105.669       41.098     4889.659    11165.880     1689.028        1.496        0.887      110.372       43.831        0.158      351.455       33.372      861.382
07/16/2014  14:53:00      -38.367       62.158       15.793       43.770       61.812       39.325     1915.786     3820.685     1546.423        0.643        0.364       73.046       31.944        0.191      351.806       33.987      861.386
07/16/2014  14:54:00      -91.802       14.770        0.931       63.577       81.586       42.503     4042.090     6656.325     1806.515        1.057        0.625       92.983       33.772        0.132      351.809       33.992      861.374
07/16/2014  14:55:00     -226.024       48.042      -22.332       94.567       88.638       48.540     8942.947     7856.660     2356.116        3.652        0.958      231.073       36.915        0.026      351.532       33.505      861.381
07/16/2014  14:56:00     -300.148      -12.950      -29.077      106.507       83.271       49.470    11343.739     6933.987     2447.287        5.591        1.036      300.428       34.426        0.013      351.283       33.071      861.379
07/16/2014  14:57:00     -336.449      -77.278      -20.357      101.163      120.784       52.213    10234.011    14588.718     2726.185        7.356        1.377      345.210       43.889        0.016      351.241       32.998      861.346
07/16/2014  14:58:00     -211.499       31.640      -17.246      101.512      111.596       55.709    10304.711    12453.606     3103.472        3.594        1.293      213.853       38.151        0.032      351.430       33.328      861.356
07/16/2014  14:59:00     -200.015      160.558      -34.854       82.938      134.430       64.629     6878.653    18071.553     4176.959        4.806        1.456      256.485       72.026        0.079      351.116       32.779      861.365
07/16/2014  15:00:00     -219.088      -87.929      -12.954       85.980       80.291       45.311     7392.585     6446.696     2053.086        3.589        0.795      236.074       30.864        0.017      351.328       33.148      861.352
07/16/2014  15:01:00     -239.155      -49.341      -12.591      118.813       72.795       48.960    14116.619     5299.107     2397.068        4.080        1.091      244.192       57.185        0.055      351.276       33.060      861.349
07/16/2014  15:02:00     -192.888      -77.016       -6.430       84.340       97.600       56.395     7113.252     9525.766     3180.355        3.149        0.991      207.695       52.952        0.065      351.363       33.210      861.324
07/16/2014  15:03:00     -123.154      -80.387        3.658       94.732       79.005       45.798     8974.204     6241.754     2097.493        1.947        0.866      147.068       52.450        0.127      351.367       33.217      861.289
07/16/2014  15:04:00     -267.320     -133.747       -6.311      127.939       78.278       43.024    16368.389     6127.450     1851.044        5.686        1.217      298.912       46.493        0.024      351.267       33.045      861.275
07/16/2014  15:05:00     -251.061       26.493      -23.477       69.711       69.691       44.194     4859.677     4856.781     1953.119        3.797        0.583      252.455       37.439        0.022      351.298       33.095      861.262
07/16/2014  15:06:00     -107.161       98.435      -14.892       74.233       92.479       53.017     5510.606     8552.334     2810.802        1.913        0.844      145.509       43.924        0.091      351.220       32.964      861.259
07/16/2014  15:07:00     -153.575      160.843      -19.605       87.254      111.666       59.952     7613.240    12469.282     3594.297        3.675        1.184      222.387       47.722        0.046      351.408       33.290      861.258
07/16/2014  15:08:00     -170.625      205.169      -34.769       66.116       80.265       47.157     4371.297     6442.411     2223.817        4.272        0.652      266.846       41.815        0.025      351.087       32.728      861.257
07/16/2014  15:09:00     -126.976      194.147      -23.728       65.000       67.284       50.096     4225.029     4527.078     2509.618        3.282        0.563      231.983       46.292        0.040      351.263       33.036      861.218
07/16/2014  15:10:00     -149.020      345.766      -41.050       73.608      100.177       50.691     5418.086    10035.460     2569.557        8.073        0.901      376.512       48.926        0.017      351.044       32.654      861.205
07/16/2014  15:11:00      -15.826      217.117      -15.147       52.587      115.422       47.385     2765.356    13322.300     2245.385        3.297        0.917      217.694       59.062        0.074      351.001       32.581      861.190
07/16/2014  15:12:00      -57.725       83.737       -2.185       56.486       47.019       34.175     3190.671     2210.806     1167.922        0.846        0.328      101.706       29.701        0.085      351.428       33.327      861.176
07/16/2014  15:13:00     -102.064      196.746      -21.794       60.781       91.554       48.158     3694.372     8382.101     2319.207        3.200        0.720      221.645       51.448        0.054      351.198       32.923      861.183
07/16/2014  15:14:00      -97.769       74.800       -8.663       67.753       70.904       39.978     4590.418     5027.395     1598.236        1.322        0.561      123.101       38.560        0.098      351.326       33.148      861.169
07/16/2014  15:15:00      -73.810      106.826        5.455       58.501       46.515       42.151     3422.375     2163.653     1776.711        1.212        0.368      129.845       34.131        0.069      351.345       33.183      861.154
07/16/2014  15:16:00      -50.381      188.580      -20.063       46.798       56.967       32.344     2190.049     3245.216     1046.119        2.249        0.324      195.194       22.439        0.013      350.912       32.427      861.141
07/16/2014  15:17:00      -51.138      201.622      -18.823       53.133       79.711       40.475     2823.097     6353.833     1638.216        2.722        0.541      208.006       43.526        0.044      350.975       32.535      861.130
07/16/2014  15:18:00       27.405       64.182        1.201       66.628       44.612       35.562     4439.240     1990.191     1264.686        0.628        0.385       69.787       41.614        0.356      350.942       32.481      861.101
07/16/2014  15:19:00      -56.021       63.756      -11.519       59.959       34.133       24.380     3595.102     1165.082      594.368        0.634        0.268       84.872       18.604        0.048      351.035       32.642      861.083
07/16/2014  15:20:00     -250.062        8.513      -19.798      122.156       87.818       49.052    14922.170     7711.985     2406.056        4.401        1.252      250.207       54.049        0.047      351.212       32.946      861.061
07/16/2014  15:21:00     -258.215     -109.323      -24.208      134.427       74.437       53.793    18070.671     5540.846     2893.668        5.285        1.325      280.404       56.362        0.040      351.028       32.625      861.039
07/16/2014  15:22:00     -216.474     -103.446       -3.277      104.274       76.632       48.558    10873.111     5872.473     2357.882        3.833        0.955      239.921       48.880        0.042      351.052       32.669      861.043
07/16/2014  15:23:00     -176.032      -14.164      -12.365       62.287       55.180       34.434     3879.726     3044.843     1185.690        1.972        0.406      176.601       33.050        0.035      351.238       32.994      861.041
07/16/2014  15:24:00      -46.688      -32.066       23.615       82.588       68.375       42.328     6820.838     4675.107     1791.651        0.852        0.664       56.639       43.408        0.587      351.461       33.384      861.027
07/16/2014  15:25:00     -123.484      -63.766       -5.303       81.005       56.073       25.897     6561.875     3144.225      670.656        1.486        0.519      138.977       25.970        0.035      351.118       32.785      861.011
07/16/2014  15:26:00      -26.270      -61.477        6.104       32.973       32.650       22.163     1087.186     1066.045      491.178        0.358        0.132       66.855       21.857        0.107      350.985       32.554      860.987
07/16/2014  15:27:00     -106.877      -17.591       -8.297       46.832       38.914       27.627     2193.277     1514.312      763.229        0.814        0.224      108.315       20.335        0.035      351.251       33.018      860.986
07/16/2014  15:28:00      -76.790      -31.272        2.937       52.903       36.552       26.510     2798.678     1336.034      702.760        0.586        0.242       82.914       28.541        0.118      351.497       33.447      860.982
07/16/2014  15:29:00      -54.415      -54.178        9.070       75.638       53.811       29.887     5721.152     2895.666      893.211        0.774        0.476       76.787       36.697        0.228      351.535       33.513      860.972
07/16/2014  15:30:00     -252.108      -64.909      -13.286       97.585       68.926       42.041     9522.848     4750.770     1767.417        4.199        0.802      260.330       41.481        0.025      351.236       32.990      860.958
07/16/2014  15:31:00     -218.820      -43.728       -9.609      121.007       77.229       42.845    14642.812     5964.359     1835.705        3.616        1.122      223.146       58.791        0.069      351.031       32.632      860.948
07/16/2014  15:32:00     -142.803       -2.037        0.033      105.746       97.574       47.635    11182.225     9520.596     2269.080        2.168        1.149      142.818       43.253        0.092      351.317       33.132      860.924
07/16/2014  15:33:00      -89.162      -13.089       16.579       95.443       78.279       52.300     9109.372     6127.638     2735.308        1.318        0.899       90.117       49.209        0.298      351.271       33.052      860.935
07/16/2014  15:34:00     -144.238     -118.197       16.771      112.574      110.528       71.994    12672.911    12216.499     5183.166        3.256        1.504      186.481       74.575        0.160      351.166       32.867      860.922
07/16/2014  15:35:00     -149.567      -78.605       -7.828       85.048       89.635       43.527     7233.207     8034.385     1894.641        2.288        0.858      168.965       54.691        0.105      351.170       32.875      860.925
07/16/2014  15:36:00      -73.072      -62.949       -2.351       85.162       61.403       28.883     7252.598     3770.311      834.226        1.058        0.593       96.447       30.541        0.100      351.238       32.995      860.918
07/16/2014  15:37:00     -140.528      -88.691        0.464       76.906       49.922       32.894     5914.571     2492.214     1081.991        1.855        0.474      166.175       31.849        0.037      351.125       32.797      860.906
07/16/2014  15:38:00     -120.898      -67.394       -4.718       69.759       40.848       33.731     4866.333     1668.552     1137.768        1.343        0.384      138.414       33.914        0.060      351.253       33.022      860.919
07/16/2014  15:39:00     -106.360      -73.651       -1.642       68.515       64.026       43.444     4694.265     4099.315     1887.408        1.371        0.534      129.371       47.479        0.135      351.208       32.941      860.904
07/16/2014  15:40:00      -61.287      -44.787        1.765       77.822       67.219       47.631     6056.326     4518.446     2268.680        0.930        0.642       75.907       48.347        0.406      351.155       32.851      860.889
07/16/2014  15:41:00     -112.834      -60.519        7.769      101.080       69.575       43.368    10217.256     4840.677     1880.747        1.669        0.847      128.039       47.427        0.137      351.173       32.881      860.870
07/16/2014  15:42:00     -182.962      -81.831       -1.789       81.825       51.690       37.929     6695.340     2671.903     1438.587        2.549        0.540      200.428       37.637        0.035      351.032       32.634      860.862
07/16/2014  15:43:00     -209.153       10.225      -13.185       52.776       54.097       27.928     2785.279     2926.504      779.968        2.526        0.325      209.403       20.950        0.010      350.940       32.471      860.852
07/16/2014  15:44:00      -81.531      -35.398       -7.713       53.913       63.982       22.882     2906.618     4093.688      523.590        0.774        0.376       88.884       25.177        0.080      351.118       32.787      860.829
07/16/2014  15:45:00      -66.004     -116.699        5.215       63.626       65.702       33.116     4048.324     4316.818     1096.689        1.373        0.473      134.072       36.331        0.073      351.129       32.805      860.808
07/16/2014  15:46:00     -101.691     -102.203       11.499       75.066       58.344       35.382     5634.839     3404.071     1251.920        1.560        0.515      144.175       36.847        0.065      351.262       33.037      860.795
07/16/2014  15:47:00      -98.973      -88.503        6.671       54.532       52.138       27.218     2973.758     2718.327      740.802        1.205        0.322      132.773       30.235        0.052      351.198       32.925      860.792
07/16/2014  15:48:00      -49.559       11.175        6.387       49.270       48.239       29.531     2427.546     2327.027      872.073        0.412        0.281       50.804       25.103        0.244      351.201       32.933      860.759
07/16/2014  15:49:00      -42.317     -122.847       -0.857       46.216       97.740       30.212     2135.922     9553.150      912.788        1.474        0.630      129.932       25.263        0.038      351.393       33.262      860.735
07/16/2014  15:50:00      -30.480     -134.456      -18.589       71.363       81.320       44.063     5092.630     6612.920     1941.567        1.650        0.682      137.867       36.050        0.068      351.076       32.712      860.723
07/16/2014  15:51:00      -22.847      -25.605       20.527       49.413       44.259       36.775     2441.667     1958.827     1352.423        0.367        0.288       34.316       19.841        0.334      351.541       33.525      860.699
07/16/2014  15:52:00       20.198      -96.411      -13.657       45.220       42.195       37.528     2044.835     1780.390     1408.356        0.756        0.262       98.504       23.596        0.057      351.363       33.214      860.678
07/16/2014  15:53:00       38.635      -36.907       23.153       52.209       41.433       34.849     2725.737     1716.729     1214.467        0.452        0.283       53.430       25.289        0.224      351.506       33.464      860.657
07/16/2014  15:54:00       26.077      -81.011        9.659       59.297       57.576       43.509     3516.170     3314.951     1893.066        0.803        0.436       85.105       36.874        0.188      351.524       33.494      860.632
07/16/2014  15:55:00        4.716      -34.372       43.940       35.038       51.331       34.772     1227.673     2634.918     1209.059        0.410        0.254       34.694       20.769        0.358      351.554       33.546      860.601
07/16/2014  15:56:00       97.328     -163.900       -8.284       76.183      115.615       53.028     5803.919    13366.881     2811.960        2.919        1.099      190.620       64.784        0.116      351.355       33.196      860.572
07/16/2014  15:57:00       81.680     -103.384      -12.089       73.111       89.435       47.317     5345.209     7998.631     2238.896        1.654        0.779      131.757       45.667        0.120      351.345       33.180      860.571
07/16/2014  15:58:00       64.527        6.880       34.308       68.703       42.323       41.254     4720.098     1791.250     1701.856        0.680        0.411       64.892       38.177        0.346      351.157       32.857      860.569
07/16/2014  15:59:00       34.387      -15.815       45.226       50.047       65.253       45.405     2504.701     4257.938     2061.607        0.615        0.441       37.850       44.515        1.383      351.222       32.968      860.552
07/16/2014  16:00:00       13.430       -0.352       39.947       52.333       45.969       38.561     2738.749     2113.106     1486.959        0.406        0.317       13.435       30.915        5.295      351.440       33.348      860.543
07/16/2014  16:01:00       34.660        1.849       24.997       36.494       24.493       26.464     1331.810      599.892      700.332        0.223        0.132       34.709       18.917        0.297      351.113       32.779      860.528
07/16/2014  16:02:00       28.089       39.025       14.611       27.455       35.345       26.904      753.757     1249.262      723.849        0.263        0.136       48.083        9.440        0.039      350.751       32.147      860.512
07/16/2014  16:03:00       11.019       68.014        6.198       25.069       40.637       22.928      628.444     1651.397      525.692        0.380        0.140       68.901        8.266        0.014      351.037       32.645      860.489
07/16/2014  16:04:00        8.928       76.973       -0.761       22.767       26.766       26.901      518.323      716.409      723.642        0.398        0.098       77.489        9.927        0.016      351.333       33.161      860.468
07/16/2014  16:05:00       18.714       32.811       -4.871       25.801       24.265       17.200      665.703      588.772      295.831        0.150        0.078       37.773       12.013        0.101      351.484       33.425      860.455
07/16/2014  16:06:00       37.286        8.275       15.318       33.580       34.199       29.473     1127.637     1169.564      868.653        0.243        0.158       38.193       24.183        0.401      351.416       33.306      860.434
07/16/2014  16:07:00       56.427       10.617       31.336       31.084       20.774       21.754      966.226      431.567      473.218        0.307        0.094       57.417       15.232        0.070      351.120       32.791      860.412
07/16/2014  16:08:00       25.375       27.135       13.770       28.094       18.732       20.179      789.289      350.882      407.212        0.156        0.077       37.151        8.377        0.051      351.209       32.946      860.404
07/16/2014  16:09:00      -17.143       25.096       -9.727       18.572       16.619       15.281      344.905      276.180      233.524        0.094        0.043       30.392        9.907        0.106      351.504       33.460      860.379
07/16/2014  16:10:00      -26.328       56.930      -17.583       30.846       31.008       25.345      951.495      961.468      642.348        0.340        0.128       62.723       15.880        0.064      351.551       33.543      860.358
07/16/2014  16:11:00      -51.044       -1.557      -31.539       18.677       22.654       17.639      348.822      513.225      311.146        0.239        0.059       51.068       12.370        0.059      351.421       33.315      860.354
07/16/2014  16:12:00       -8.127       50.495      -30.539       36.526       40.444       12.679     1334.168     1635.677      160.763        0.334        0.157       51.145       10.183        0.040      351.331       33.159      860.347
07/16/2014  16:13:00       15.057       -5.668       -2.045       44.286       34.093       29.645     1961.259     1162.307      878.816        0.213        0.200       16.089       21.552        1.794      351.427       33.326      860.321
07/16/2014  16:14:00        7.979      -32.051       10.066       27.802       43.980       24.226      772.970     1934.223      586.918        0.224        0.165       33.029       16.598        0.253      351.558       33.554      860.283
07/16/2014  16:15:00      -58.130     -126.291        0.339       30.632       52.268       24.164      938.325     2731.940      583.881        1.179        0.213      139.027       18.236        0.017      351.426       33.321      860.254
07/16/2014  16:16:00      -35.682       10.085       19.294       38.207       71.949       32.867     1459.755     5176.652     1080.243        0.473        0.386       37.080       37.884        1.044      351.797       33.972      860.235
07/16/2014  16:17:00      -36.484       -1.730       -7.902       43.965       34.315       26.984     1932.924     1177.539      728.133        0.262        0.192       36.525       20.036        0.301      351.779       33.941      860.220
07/16/2014  16:18:00      -54.603       48.337        6.852       55.844       64.813       31.848     3118.540     4200.735     1014.286        0.685        0.417       72.924       29.128        0.160      351.821       34.013      860.196
07/16/2014  16:19:00      -55.546       54.546        1.390       36.075       37.387       29.759     1301.401     1397.760      885.606        0.482        0.179       77.849       25.606        0.108      351.792       33.964      860.189
07/16/2014  16:20:00        4.203       24.223        3.193       30.061       27.800       27.418      903.687      772.829      751.756        0.152        0.121       24.585       13.500        0.302      351.884       34.124      860.178
07/16/2014  16:21:00       -1.962       11.543       15.742       21.661       27.506       19.463      469.216      756.591      378.826        0.099        0.080       11.709       13.206        1.272      352.090       34.482      860.154
07/16/2014  16:22:00        3.625       54.114        8.418       15.340       47.251       17.543      235.314     2232.670      307.745        0.289        0.139       54.236       24.316        0.201      351.887       34.127      860.140
07/16/2014  16:23:00        9.942       46.257       11.808       25.820       29.663       20.835      666.667      879.865      434.085        0.218        0.099       47.313       18.344        0.150      351.694       33.791      860.130
07/16/2014  16:24:00       46.078       42.701       13.523       22.856       28.573       21.626      522.410      816.443      467.705        0.297        0.090       62.821       13.191        0.044      351.387       33.254      860.111
07/16/2014  16:25:00       36.475        0.418       29.495       30.769       13.817       18.485      946.738      190.899      341.711        0.184        0.074       36.477       11.693        0.103      351.186       32.907      860.103
07/16/2014  16:26:00       10.761       19.854        8.410       24.425       17.825       18.179      596.577      317.740      330.471        0.091        0.062       22.583        9.226        0.167      351.232       32.986      860.101
07/16/2014  16:27:00      -46.985       53.008       14.448       54.926       40.077       28.488     3016.891     1606.163      811.552        0.533        0.272       70.834       33.333        0.221      351.439       33.347      860.082
07/16/2014  16:28:00      -88.722       47.042      -21.035       40.470       44.651       31.506     1637.835     1993.755      992.637        0.757        0.231      100.422       20.423        0.041      351.593       33.615      860.074
07/16/2014  16:29:00       -4.247       48.207       14.832       30.762       31.777       26.068      946.280     1009.795      679.533        0.260        0.132       48.394       19.278        0.159      352.020       34.360      860.054
07/16/2014  16:30:00      -12.373       73.272       -0.546       16.957       26.166       21.788      287.556      684.665      474.698        0.348        0.072       74.309        8.591        0.013      351.678       33.763      860.038
07/16/2014  16:31:00       45.855       48.920        3.399       18.167       23.490       17.155      330.043      551.761      294.300        0.284        0.059       67.051       11.698        0.030      351.662       33.734      860.023
07/16/2014  16:32:00       26.788       35.273       -6.288       17.641       18.578       14.150      311.198      345.138      200.222        0.143        0.043       44.292       14.020        0.100      351.695       33.794      860.001
07/16/2014  16:33:00        7.716      -10.528        2.829       18.166       23.055       19.072      329.986      531.524      363.726        0.070        0.061       13.053       14.989        1.319      351.876       34.108      859.984
07/16/2014  16:34:00       20.159      -23.402       -1.327       19.991       22.863       24.925      399.646      522.718      621.275        0.125        0.077       30.888       18.933        0.376      351.697       33.796      859.971
07/16/2014  16:35:00       28.618       29.126       29.560       35.425       26.027       34.225     1254.932      677.381     1171.360        0.282        0.155       40.833       20.087        0.242      351.628       33.676      859.952
07/16/2014  16:36:00       51.069       51.313       22.619       36.200       36.750       29.701     1310.449     1350.587      882.163        0.465        0.177       72.396       14.472        0.040      351.443       33.353      859.937
07/16/2014  16:37:00      -15.642       93.073       -5.845       28.791       50.407       21.758      828.925     2540.878      473.405        0.639        0.192       94.378       24.199        0.066      351.717       33.831      859.917
07/16/2014  16:38:00        8.124      120.567      -13.089       20.551       35.956       20.541      422.328     1292.799      421.952        0.845        0.107      120.840       14.830        0.015      351.584       33.598      859.888
07/16/2014  16:39:00       63.130       52.174        5.843       39.873       36.005       30.167     1589.843     1296.332      910.067        0.527        0.190       81.900       20.055        0.060      351.495       33.445      859.872
07/16/2014  16:40:00      103.823       25.103       -4.530       29.650       31.514       29.538      879.142      993.163      872.478        0.709        0.137      106.814       13.334        0.016      351.461       33.385      859.857
07/16/2014  16:41:00       21.403       -4.301       22.229       33.231       20.809       22.073     1104.284      433.034      487.202        0.150        0.101       21.831       15.809        0.524      351.974       34.281      859.839
07/16/2014  16:42:00       21.091      -24.135       34.269       18.671       39.949       18.451      348.624     1595.907      340.425        0.224        0.114       32.052       14.006        0.191      351.607       33.640      859.830
07/16/2014  16:43:00       -0.489      -12.456       20.864       24.153       33.686       20.304      583.365     1134.753      412.240        0.136        0.107       12.465       12.410        0.991      352.167       34.617      859.797
07/16/2014  16:44:00      -40.570      -61.446       -8.363       66.417       72.254       43.075     4411.238     5220.667     1855.449        0.849        0.574       73.631       22.147        0.090      352.017       34.355      859.763
07/16/2014  16:45:00       16.322      -40.997       10.014       36.814       63.909       31.000     1355.246     4084.368      960.997        0.422        0.320       44.126       27.884        0.399      352.072       34.452      859.751
07/16/2014  16:46:00      -10.861        9.758      -12.527       22.455       29.998       22.079      504.225      899.886      487.466        0.113        0.095       14.601        9.946        0.464      352.165       34.614      859.725
07/16/2014  16:47:00      -12.041       34.131       10.748       84.078       27.176       32.403     7069.043      738.537     1049.963        0.514        0.443       36.192       38.083        1.107      351.894       34.141      859.708
07/16/2014  16:48:00       56.268       20.497        4.484       48.813       77.250       29.302     2382.736     5967.500      858.581        0.641        0.460       59.885        7.777        0.017      351.608       33.643      859.709
07/16/2014  16:49:00       39.513      -40.762        2.335       26.554       52.584       29.929      705.135     2765.099      895.734        0.380        0.218       56.770       31.756        0.313      351.489       33.434      859.687
07/16/2014  16:50:00       28.012      -11.230       23.278       31.089       15.334       20.485      966.506      235.125      419.651        0.154        0.081       30.179        9.268        0.094      351.762       33.911      859.674
07/16/2014  16:51:00       10.486       -2.718       31.864       32.368       55.851       33.635     1047.659     3119.308     1131.309        0.321        0.265       10.832       29.076        7.205      351.646       33.707      859.669
07/16/2014  16:52:00       -3.992      -39.351       -9.084       38.819       46.035       18.798     1506.880     2119.179      353.372        0.281        0.199       39.552       14.128        0.128      351.712       33.824      859.658
07/16/2014  16:53:00      -12.047       23.170       35.849       22.898       24.003       16.355      524.314      576.127      267.474        0.167        0.068       26.115       13.498        0.267      352.032       34.383      859.637
07/16/2014  16:54:00      -33.572       32.915        4.284       31.096       27.963       30.259      966.931      781.930      915.608        0.245        0.133       47.015       27.663        0.346      352.097       34.496      859.635
07/16/2014  16:55:00       -8.254       13.154        1.143       47.775       23.049       22.633     2282.477      531.243      512.242        0.178        0.166       15.529       12.111        0.608      351.994       34.317      859.631
07/16/2014  16:56:00       32.993        3.394        6.866       19.035       24.321       19.843      362.323      591.496      393.748        0.125        0.067       33.167       14.443        0.190      351.288       33.084      859.629
07/16/2014  16:57:00        9.418       13.941       -4.512       32.778       29.700       16.191     1074.398      882.078      262.160        0.126        0.111       16.824       11.876        0.498      351.886       34.127      859.641
07/16/2014  16:58:00       -3.411       53.012        3.154       27.826       33.963       19.476      774.263     1153.512      379.310        0.257        0.115       53.121       14.717        0.077      351.774       33.930      859.644
07/16/2014  16:59:00       49.469       74.275       -2.298       49.650       54.059       33.853     2465.154     2922.336     1146.039        0.725        0.327       89.241       27.328        0.094      351.754       33.897      859.628
07/16/2014  17:00:00       26.555       88.171       12.697       42.784       98.159       46.920     1830.475     9635.150     2201.441        1.115        0.683       92.084       58.794        0.408      351.917       34.180      859.614
07/16/2014  17:01:00       -7.138      118.445       -9.579       30.418       55.882       31.426      925.251     3122.777      987.568        0.960        0.252      118.659       29.486        0.062      351.670       33.751      859.612
07/16/2014  17:02:00      -49.701       80.656        3.717       52.583       44.413       31.512     2765.023     1972.547      992.992        0.736        0.287       94.740       30.800        0.106      351.769       33.923      859.594
07/16/2014  17:03:00        7.516      120.620       -5.984       65.871       95.769       37.989     4338.941     9171.606     1443.152        1.479        0.748      120.853       51.760        0.183      351.727       33.848      859.589
07/16/2014  17:04:00       -4.485      133.462      -14.657       53.282       65.244       33.851     2838.979     4256.750     1145.905        1.314        0.412      133.538       35.808        0.072      351.713       33.824      859.591
07/16/2014  17:05:00      -11.228       48.091       -5.758       56.928       41.844       31.734     3240.849     1750.922     1007.047        0.423        0.300       49.384       25.115        0.259      351.746       33.882      859.596
07/16/2014  17:06:00      -46.147       31.560        1.207       45.283       70.578       30.214     2050.557     4981.213      912.894        0.553        0.397       55.907       33.491        0.359      351.983       34.295      859.588
07/16/2014  17:07:00      -80.841      175.843      -27.419       46.099       55.923       34.306     2125.149     3127.376     1176.891        2.232        0.321      193.536       16.351        0.007      351.662       33.733      859.582
07/16/2014  17:08:00     -116.699       70.481      -10.685       64.034       60.028       33.507     4100.347     3603.411     1122.686        1.376        0.441      136.331       32.131        0.056      351.806       33.985      859.576
07/16/2014  17:09:00      -83.500      -16.893       -9.647       33.625       33.630       26.793     1130.640     1131.000      717.843        0.516        0.149       85.191       24.625        0.084      351.738       33.869      859.559
07/16/2014  17:10:00      -83.276       53.716       -8.639       42.669       64.783       30.524     1820.667     4196.885      931.720        0.842        0.347       99.097       22.889        0.053      351.647       33.708      859.550
07/16/2014  17:11:00      -54.793      198.169      -28.936       53.825       76.603       30.998     2897.099     5867.991      960.867        2.642        0.486      205.604       30.244        0.022      351.587       33.602      859.554
07/16/2014  17:12:00      -43.824      189.294       -9.246       47.305       57.638       35.568     2237.726     3322.162     1265.094        2.233        0.341      194.301       30.564        0.025      351.553       33.546      859.538
07/16/2014  17:13:00       31.877      246.199      -41.219       53.314       41.778       27.510     2842.381     1745.417      756.783        3.434        0.267      248.254       21.853        0.008      351.546       33.529      859.509
07/16/2014  17:14:00      -37.508      225.668      -27.446       34.053       44.397       21.981     1159.606     1971.084      483.150        2.835        0.181      228.764       20.332        0.008      351.534       33.508      859.507
07/16/2014  17:15:00      -50.427      123.364      -16.604       41.537       60.824       33.912     1725.326     3699.501     1149.997        1.230        0.329      133.272       28.282        0.045      351.618       33.658      859.515
07/16/2014  17:16:00       -9.346       86.439        2.277       50.085       67.730       39.072     2508.513     4587.350     1526.656        0.809        0.431       86.943       36.804        0.179      351.676       33.760      859.508
07/16/2014  17:17:00      -22.173       89.818       -9.481       19.374       31.940       21.508      375.345     1020.156      462.610        0.525        0.093       92.514       18.210        0.039      351.585       33.601      859.501
07/16/2014  17:18:00       46.916       97.312       -3.923       44.636       42.091       33.529     1992.390     1771.671     1124.222        0.829        0.244      108.031       21.911        0.041      351.595       33.617      859.482
07/16/2014  17:19:00       56.319       88.376      -13.444       63.893       52.110       31.493     4082.252     2715.469      991.801        0.947        0.389      104.796       27.912        0.071      351.674       33.756      859.466
07/16/2014  17:20:00      -24.238       62.188      -16.200       17.937       25.477       12.060      321.728      649.082      145.434        0.292        0.056       66.745       11.644        0.030      351.632       33.682      859.466
07/16/2014  17:21:00     -106.331       23.296       -7.483       47.855       62.844       31.273     2290.074     3949.351      977.986        0.956        0.361      108.852       24.708        0.052      351.734       33.861      859.469
07/16/2014  17:22:00     -152.347       17.999      -12.610       72.688       67.900       33.177     5283.504     4610.389     1100.720        1.734        0.550      153.406       38.822        0.064      351.770       33.919      859.476
07/16/2014  17:23:00      -82.992       36.130       -5.321       64.303       43.325       37.526     4134.875     1877.086     1408.201        0.782        0.371       90.516       42.686        0.222      351.776       33.936      859.468
07/16/2014  17:24:00      -38.585      -26.731       16.494       73.927       45.867       32.404     5465.147     2103.791     1050.003        0.555        0.431       46.940       18.646        0.158      351.735       33.863      859.448
07/16/2014  17:25:00      -91.138      -31.209        2.962       50.338       29.918       26.787     2533.869      895.080      717.552        0.672        0.207       96.333       29.757        0.095      351.708       33.816      859.445
07/16/2014  17:26:00      -65.765      -54.974       13.176       95.090       60.312       42.952     9042.120     3637.527     1844.887        1.102        0.726       85.716       43.262        0.255      351.726       33.847      859.430
07/16/2014  17:27:00       -3.787       24.204        5.986       60.256       72.382       48.841     3630.813     5239.132     2385.446        0.594        0.563       24.499       24.178        0.974      351.601       33.628      859.425
07/16/2014  17:28:00      -74.904      116.547       -2.776       48.139       51.527       37.534     2317.365     2655.044     1408.806        1.279        0.319      138.541       29.053        0.044      351.691       33.785      859.443
07/16/2014  17:29:00     -100.707      168.961      -26.120       55.106       54.358       31.786     3036.658     2954.768     1010.377        2.319        0.350      196.697       35.646        0.033      351.649       33.711      859.446
07/16/2014  17:30:00     -120.019       83.781      -21.120       41.942       48.775       29.435     1759.106     2379.049      866.439        1.344        0.250      146.369       32.268        0.049      351.708       33.815      859.445
07/16/2014  17:31:00      -43.896      111.026       -8.001       35.796       43.558       24.328     1281.322     1897.303      591.835        0.904        0.189      119.388       18.873        0.025      351.679       33.764      859.426
07/16/2014  17:32:00      -88.394       35.992      -10.072       40.040       57.266       19.714     1603.237     3279.440      388.661        0.724        0.264       95.440       12.685        0.018      351.784       33.949      859.422
07/16/2014  17:33:00     -138.438       32.945      -22.915       66.542       80.280       33.971     4427.802     6444.867     1154.021        1.640        0.601      142.304       29.449        0.043      351.827       34.021      859.408
07/16/2014  17:34:00     -155.887        0.513      -18.422       33.118       58.527       24.152     1096.799     3425.379      583.297        1.487        0.255      155.888       12.181        0.006      351.747       33.884      859.399
07/16/2014  17:35:00     -118.127      -30.904      -15.416       76.955       41.006       25.277     5922.008     1681.464      638.950        1.169        0.412      122.103       30.939        0.064      351.825       34.019      859.394
07/16/2014  17:36:00      -85.477      -19.180       -2.912       25.240       30.384       23.206      637.063      923.208      538.506        0.489        0.105       87.603       19.878        0.051      351.907       34.163      859.378
07/16/2014  17:37:00      -47.066       10.400       -8.621       23.021       25.451       18.246      529.982      647.762      332.908        0.195        0.076       48.201       14.085        0.085      351.779       33.939      859.376
07/16/2014  17:38:00      -40.667       12.816      -14.239       29.077       27.754       27.758      845.451      770.293      770.508        0.220        0.119       42.639       27.199        0.407      351.662       33.734      859.355
07/16/2014  17:39:00       60.095       -3.699        8.310       31.198       22.094       25.696      973.323      488.132      660.305        0.291        0.106       60.208       14.229        0.056      350.597       31.879      859.339
07/16/2014  17:40:00      -17.448        8.234        5.705       20.712       17.813       15.323      428.974      317.296      234.804        0.069        0.049       19.294        9.666        0.251      351.174       32.885      859.335
07/16/2014  17:41:00      -76.770        9.700       -6.075       21.344       24.398       12.725      455.586      595.244      161.929        0.362        0.061       77.380        6.636        0.007      351.752       33.892      859.330
07/16/2014  17:42:00      -73.597       -5.942        1.685       44.672       38.183       25.158     1995.618     1457.914      632.921        0.477        0.204       73.837       18.506        0.063      351.940       34.219      859.328
07/16/2014  17:43:00      -65.100      -11.154        0.156       46.263       36.811       19.390     2140.236     1355.078      375.989        0.412        0.194       66.048       20.155        0.093      352.003       34.330      859.328
07/16/2014  17:44:00     -110.870        8.192       -1.210       62.887       34.299       25.789     3954.716     1176.403      665.070        0.908        0.290      111.172       30.024        0.073      351.867       34.092      859.324
07/16/2014  17:45:00      -89.309       63.018       -9.752       33.446       58.596       27.498     1118.604     3433.510      756.142        0.867        0.265      109.304       24.060        0.048      351.860       34.080      859.334
07/16/2014  17:46:00      -23.368       62.114        6.788       34.975       48.928       26.010     1223.256     2393.988      676.505        0.437        0.215       66.364       32.857        0.245      351.878       34.112      859.317
07/16/2014  17:47:00     -124.191        0.852      -15.887       52.855       68.914       32.828     2793.700     4749.097     1077.694        1.215        0.431      124.193       32.570        0.069      352.027       34.372      859.316
07/16/2014  17:48:00      -99.514        3.669       -2.376       81.041       37.046       41.808     6567.687     1372.373     1747.944        0.980        0.484       99.582       51.420        0.267      352.021       34.361      859.320
07/16/2014  17:49:00     -148.570      -20.211      -13.540       86.856       60.989       36.535     7544.015     3719.717     1334.790        1.763        0.630      149.938       37.178        0.061      351.958       34.249      859.305
07/16/2014  17:50:00     -140.705      -31.852       -9.202       45.894       45.596       30.720     2106.275     2079.011      943.697        1.301        0.256      144.266       26.939        0.035      351.905       34.160      859.309
07/16/2014  17:51:00     -187.848       23.263      -13.574       54.988       38.741       27.317     3023.630     1500.829      746.227        2.064        0.264      189.283       25.338        0.018      351.830       34.027      859.301
07/16/2014  17:52:00     -112.334      -18.723       -7.638       45.263       33.174       33.337     2048.759     1100.528     1111.382        0.864        0.213      113.884       30.884        0.074      351.972       34.275      859.284
07/16/2014  17:53:00     -171.441       39.481       -2.821       68.425       51.580       32.412     4682.035     2660.498     1050.561        1.967        0.420      175.928       32.444        0.034      351.783       33.945      859.266
07/16/2014  17:54:00     -175.855       51.630      -12.863       30.416       27.752       19.045      925.140      770.193      362.701        1.791        0.103      183.277       17.194        0.009      351.709       33.817      859.267
07/16/2014  17:55:00     -146.008      -19.218      -10.715       51.480       38.162       25.455     2650.236     1456.329      647.982        1.328        0.238      147.268       27.354        0.035      351.875       34.106      859.263
07/16/2014  17:56:00      -90.659       28.574       -7.038       41.585       34.430       21.745     1729.328     1185.405      472.861        0.624        0.169       95.056       23.628        0.062      351.888       34.130      859.257
07/16/2014  17:57:00     -109.789       -3.019      -16.482       39.426       38.763       26.463     1554.423     1502.560      700.274        0.805        0.188      109.830       18.381        0.028      352.065       34.439      859.250
07/16/2014  17:58:00      -64.051       90.492       -8.137       59.596       60.299       29.899     3551.638     3635.999      893.932        1.022        0.404      110.866       26.480        0.057      351.863       34.085      859.249
07/16/2014  17:59:00      -47.142       -8.784       20.129       67.469       46.113       36.483     4552.102     2126.405     1331.018        0.536        0.400       47.954       42.073        0.770      352.030       34.377      859.243
07/16/2014  18:00:00      -79.630      -43.232       -5.889       36.417       30.115       25.318     1326.234      906.917      640.989        0.556        0.144       90.609       18.859        0.043      351.977       34.285      859.256
07/16/2014  18:01:00      -62.673      -28.884       -8.504       11.366       11.890       10.863      129.190      141.384      118.000        0.261        0.019       69.009        8.056        0.014      351.836       34.037      859.250
07/16/2014  18:02:00      -43.268        5.382        3.775       23.216       19.446       12.710      538.996      378.154      161.532        0.150        0.054       43.601       13.326        0.093      351.869       34.095      859.243
07/16/2014  18:03:00        2.205       58.323        5.034       19.049       32.506       19.885      362.846     1056.616      395.405        0.262        0.091       58.365       15.011        0.066      351.773       33.929      859.232
07/16/2014  18:04:00       29.924       40.274        1.948       21.716       29.276       25.974      471.569      857.069      674.624        0.226        0.100       50.174       17.260        0.118      351.583       33.597      859.222
07/16/2014  18:05:00       30.494      -11.460       32.946       34.821       40.504       39.034     1212.485     1640.592     1523.619        0.326        0.219       32.576       30.256        0.863      351.417       33.309      859.217
07/16/2014  18:06:00       26.952       -0.232       39.250       30.264       19.512       19.316      915.929      380.718      373.124        0.197        0.083       26.953       11.278        0.175      351.549       33.538      859.200
07/16/2014  18:07:00       14.887       -0.232       25.266       27.092       35.060       23.390      733.997     1229.219      547.096        0.168        0.126       14.889       19.237        1.669      351.357       33.204      859.185
07/16/2014  18:08:00       22.903       16.561        2.157       27.463       28.209       24.448      754.217      795.726      597.720        0.148        0.107       28.263       13.959        0.244      351.109       32.772      859.184
07/16/2014  18:09:00       12.005       58.128       -7.376       30.866       66.901       21.941      952.706     4475.769      481.408        0.474        0.295       59.355       28.549        0.231      351.730       33.852      859.183
07/16/2014  18:10:00       -7.512       78.518        6.850       17.673       39.992       21.280      312.318     1599.379      452.841        0.432        0.118       78.877       24.487        0.096      351.775       33.933      859.181
07/16/2014  18:11:00      -15.106       68.425        0.484       10.171       15.525       14.227      103.447      241.038      202.417        0.273        0.027       70.073        6.740        0.009      351.778       33.936      859.173
07/16/2014  18:12:00      -23.985       21.177       16.209       23.682       26.061       16.915      560.833      679.168      286.124        0.141        0.076       31.996       10.935        0.117      352.262       34.783      859.169
07/16/2014  18:13:00      -89.224      -59.778       14.240       94.314       73.619       51.176     8895.185     5419.705     2619.015        1.433        0.847      107.397       47.764        0.198      351.925       34.193      859.153
07/16/2014  18:14:00     -162.466     -109.520        1.790       99.562       69.390       47.121     9912.523     4815.014     2220.403        2.767        0.847      195.933       49.708        0.064      352.022       34.361      859.140
07/16/2014  18:15:00      -84.978      -48.090        2.064       85.171       72.117       45.028     7254.027     5200.933     2027.560        1.201        0.724       97.642       46.707        0.229      352.100       34.500      859.127
07/16/2014  18:16:00     -143.336      -59.373       -7.913       88.473       54.370       40.943     7827.450     2956.058     1676.315        1.829        0.623      155.146       31.229        0.041      352.103       34.503      859.116
07/16/2014  18:17:00     -191.366      -54.796       -2.676       65.713       45.906       31.055     4318.194     2107.385      964.391        2.351        0.369      199.057       22.878        0.013      352.020       34.358      859.125
07/16/2014  18:18:00     -109.527      -60.975        3.900       66.449       49.179       27.658     4415.464     2418.590      764.938        1.166        0.380      125.356       31.290        0.062      352.022       34.362      859.133
07/16/2014  18:19:00     -115.399     -111.832        1.632       76.252       45.610       37.660     5814.373     2080.257     1418.244        1.757        0.466      160.696       39.056        0.059      351.996       34.318      859.132
07/16/2014  18:20:00     -154.900      -46.165      -12.070       32.484       50.056       27.339     1055.201     2505.652      747.417        1.529        0.215      161.633       21.060        0.017      351.959       34.254      859.130
07/16/2014  18:21:00      -70.799       34.084      -11.440       38.070       39.174       25.108     1449.305     1534.610      630.435        0.496        0.181       78.576       22.601        0.083      352.094       34.489      859.140
07/16/2014  18:22:00      -57.413      131.404       -6.173       60.801       97.534       35.680     3696.812     9512.825     1273.052        1.754        0.724      143.399       48.011        0.112      351.976       34.281      859.146
07/16/2014  18:23:00        6.700       70.246        2.942       37.963       62.648       31.756     1441.165     3924.723     1008.451        0.568        0.319       70.565       28.248        0.160      351.930       34.201      859.151
07/16/2014  18:24:00       37.332        9.258       31.880       47.308       28.062       21.640     2238.050      787.452      468.311        0.299        0.175       38.463       18.724        0.237      351.488       33.430      859.130
07/16/2014  18:25:00       36.816       36.915       42.537       44.098       40.722       27.209     1944.673     1658.319      740.331        0.443        0.217       52.136       30.410        0.340      351.298       33.101      859.110
07/16/2014  18:26:00       48.360       13.356        0.907       47.211       46.659       37.424     2228.902     2177.089     1400.547        0.416        0.290       50.170       15.340        0.093      351.669       33.747      859.103
07/16/2014  18:27:00       28.196       -4.770       15.235       27.017       27.953       16.732      729.939      781.389      279.960        0.142        0.090       28.596        8.717        0.093      351.613       33.648      859.094
07/16/2014  18:28:00       15.576       21.127       15.273       15.682       24.246       13.555      245.911      587.880      183.743        0.097        0.051       26.248        8.369        0.102      351.353       33.196      859.086
07/16/2014  18:29:00      -17.787        7.091       12.458       29.348       20.896       15.828      861.327      436.651      250.541        0.103        0.077       19.148       15.940        0.693      351.524       33.494      859.093
07/16/2014  18:30:00       -2.701      -28.503       21.924       24.385       36.905       18.247      594.612     1361.977      332.966        0.179        0.114       28.631       18.220        0.405      351.720       33.837      859.100
07/16/2014  18:31:00        9.365      -10.588       35.761       19.499       47.265       14.237      380.226     2233.976      202.691        0.215        0.141       14.136       17.664        1.561      351.677       33.761      859.104
07/16/2014  18:32:00      -26.782       26.662        8.993       39.759       30.035       26.873     1580.808      902.113      722.139        0.236        0.160       37.791       16.561        0.192      351.569       33.574      859.121
07/16/2014  18:33:00      -75.565       27.323       -4.942       56.261       24.799       18.809     3165.345      614.969      353.783        0.531        0.207       80.353       12.674        0.025      351.905       34.159      859.127
07/16/2014  18:34:00     -127.840      -13.988       -2.295       46.621       39.431       29.615     2173.486     1554.786      877.071        1.057        0.230      128.603       26.284        0.042      352.139       34.569      859.125
07/16/2014  18:35:00      -84.624      -36.100       12.780       61.649       47.529       33.683     3800.605     2259.038     1134.550        0.791        0.360       92.002       26.473        0.083      352.175       34.632      859.129
07/16/2014  18:36:00     -158.300      -50.128        3.559       54.808       60.242       39.645     3003.862     3629.039     1571.713        1.789        0.410      166.047       34.194        0.042      351.991       34.308      859.139
07/16/2014  18:37:00     -136.561      -36.385       -8.673       33.061       48.380       19.357     1092.998     2340.668      374.691        1.193        0.190      141.325       14.065        0.010      352.047       34.407      859.141
07/16/2014  18:38:00      -83.388      -18.159       -4.981       45.974       36.307       19.176     2113.614     1318.224      367.707        0.555        0.190       85.343       12.652        0.022      351.986       34.300      859.139
07/16/2014  18:39:00      -65.266       -4.452        4.721       28.952       23.552       16.940      838.202      554.674      286.955        0.299        0.084       65.417       15.771        0.058      352.064       34.438      859.139
07/16/2014  18:40:00      -87.329      -30.151      -10.982       13.950       27.304       13.876      194.594      745.510      192.551        0.489        0.057       92.387        5.581        0.004      352.047       34.408      859.144
07/16/2014  18:41:00      -44.271       23.151        1.839       28.803       56.602       19.183      829.629     3203.819      367.983        0.345        0.220       49.959       14.983        0.090      351.740       33.871      859.139
07/16/2014  18:42:00       -2.834      125.527      -13.650       32.833       41.227       23.095     1077.977     1699.631      533.373        0.963        0.166      125.559       17.512        0.019      351.885       34.121      859.138
07/16/2014  18:43:00       -6.533       84.301       -6.009       20.893       17.206       11.751      436.509      296.061      138.084        0.403        0.044       84.554        7.421        0.008      351.925       34.194      859.135
07/16/2014  18:44:00       -2.692       22.746       12.157       21.010       26.124       12.995      441.427      682.450      168.864        0.098        0.065       22.904        4.394        0.037      351.616       33.654      859.140
07/16/2014  18:45:00      -79.124      -43.998        6.327       69.534       34.578       24.273     4834.930     1195.658      589.156        0.743        0.331       90.534       22.382        0.061      351.890       34.133      859.141
07/16/2014  18:46:00       -7.478      -19.453        7.881       47.719       21.029       18.477     2277.103      442.227      341.411        0.178        0.153       20.841       16.754        0.646      351.598       33.624      859.150
07/16/2014  18:47:00     -131.061      -48.119        5.185       80.919       56.741       34.327     6547.811     3219.586     1178.343        1.523        0.547      139.615       34.925        0.063      351.910       34.167      859.164
07/16/2014  18:48:00     -160.177      -19.661       -1.214       64.003       81.523       32.500     4096.344     6645.960     1056.259        1.892        0.590      161.379       21.869        0.018      351.947       34.230      859.168
07/16/2014  18:49:00     -194.881       10.693      -26.618       42.987       56.817       28.592     1847.915     3228.207      817.527        2.235        0.295      195.174       17.497        0.008      351.908       34.160      859.185
07/16/2014  18:50:00     -231.584       45.767      -38.881       64.802       81.682       34.736     4199.242     6671.872     1206.606        3.466        0.604      236.063       38.589        0.027      351.908       34.160      859.196
07/16/2014  18:51:00     -135.500       53.420      -22.034       62.122       48.672       41.653     3859.144     2368.951     1735.003        1.483        0.398      145.650       30.893        0.045      351.876       34.106      859.196
07/16/2014  18:52:00     -102.283       91.571      -15.095       61.854       55.212       38.987     3825.869     3048.347     1519.985        1.373        0.420      137.285       32.580        0.056      351.834       34.035      859.215
07/16/2014  18:53:00     -185.816      140.980      -43.424      101.315       88.527       41.081    10264.634     7836.958     1687.658        3.803        0.989      233.244       40.481        0.030      351.875       34.103      859.229
07/16/2014  18:54:00     -153.962      131.899      -23.474       96.502       75.562       45.299     9312.540     5709.576     2052.002        2.936        0.854      202.735       53.465        0.070      351.845       34.051      859.226
07/16/2014  18:55:00     -152.639       49.398       -5.348      111.752       97.232       57.094    12488.530     9454.039     3259.703        2.548        1.260      160.433       51.230        0.102      351.824       34.014      859.237
07/16/2014  18:56:00     -145.526      136.489      -20.631       73.600       71.697       39.495     5416.998     5140.469     1559.855        2.617        0.606      199.517       29.003        0.021      351.730       33.851      859.236
07/16/2014  18:57:00     -149.051       96.516       -9.586       65.203       52.461       38.931     4251.446     2752.193     1515.629        2.007        0.426      177.571       31.333        0.031      351.712       33.819      859.271
07/16/2014  18:58:00     -137.333      268.885      -35.229      103.389      107.537       61.751    10689.303    11564.266     3813.139        5.923        1.303      301.927       55.308        0.034      351.805       33.980      859.318
07/16/2014  18:59:00     -178.574      467.252      -61.702      143.288      151.284       91.555    20531.366    22886.833     8382.286       15.290        2.590      500.213       79.029        0.025      351.554       33.545      859.321
07/16/2014  19:00:00     -273.435      306.244      -58.529      158.455      154.741       90.006    25108.135    23944.696     8101.079       11.455        2.858      410.551       87.658        0.046      351.450       33.362      859.301
07/16/2014  19:01:00     -141.329      146.385      -11.156      162.223      159.236       84.767    26316.242    25356.197     7185.510        5.018        2.943      203.476      109.607        0.290      351.481       33.417      859.295
07/16/2014  19:02:00     -276.256      348.185      -55.189      166.196      161.798       86.708    27621.093    26178.443     7518.219       13.094        3.066      444.466      102.494        0.053      351.378       33.238      859.340
07/16/2014  19:03:00     -328.986       95.313      -38.684      202.650      185.925       94.924    41066.977    34567.981     9010.609       10.171        4.232      342.515       90.902        0.070      351.322       33.139      859.354
07/16/2014  19:04:00     -303.547      168.841      -60.931      181.821      201.618      120.821    33058.789    40649.721    14597.626       10.632        4.415      347.344      103.067        0.088      351.248       33.009      859.349
07/16/2014  19:05:00     -494.222      244.180      -82.401      229.075      226.270      112.825    52475.503    51197.997    12729.468       21.351        5.820      551.253      118.058        0.046      351.218       32.955      859.368
07/16/2014  19:06:00     -437.975      181.769      -52.752      187.702      185.176      116.597    35232.159    34290.066    13594.872       15.536        4.156      474.196       82.059        0.030      351.229       32.977      859.401
07/16/2014  19:07:00     -422.127      143.422      -55.848      216.458      144.917      112.788    46853.893    21000.859    12721.218       14.121        4.029      445.826      107.775        0.058      351.236       32.988      859.426
07/16/2014  19:08:00     -342.424      147.444      -46.616      187.084      130.649       88.312    35000.465    17069.280     7798.957       10.051        2.993      372.819       88.396        0.056      351.250       33.013      859.434
07/16/2014  19:09:00     -298.694       98.382      -30.128      152.585      170.149      101.100    23282.297    28950.703    10221.203        8.112        3.123      314.479       88.093        0.078      351.259       33.029      859.466
07/16/2014  19:10:00     -316.548      118.736      -27.407      171.197      154.731       90.299    29308.503    23941.767     8153.820        8.822        3.070      338.084       88.695        0.069      351.216       32.953      859.488
07/16/2014  19:11:00     -471.731      126.885      -52.419      196.185      219.090      113.856    38488.434    48000.492    12963.248       17.040        4.973      488.498      115.297        0.056      351.126       32.795      859.508
07/16/2014  19:12:00     -257.223      110.158       -7.979      182.858      171.940      112.504    33437.007    29563.214    12657.180        7.700        3.783      279.819      116.698        0.174      351.129       32.803      859.531
07/16/2014  19:13:00     -298.246      166.855      -40.831      233.957      203.005      109.506    54735.682    41210.829    11991.485       11.318        5.397      341.748      122.855        0.129      351.071       32.699      859.571
07/16/2014  19:14:00     -312.935       50.171      -41.761      137.849      175.420       86.303    19002.303    30772.218     7448.253        7.969        2.861      316.931       60.352        0.036      351.058       32.678      859.583
07/16/2014  19:15:00     -294.230      118.205      -21.817      190.881      183.102      102.756    36435.557    33526.252    10558.706        9.075        4.026      317.086       94.162        0.088      351.013       32.600      859.616
07/16/2014  19:16:00     -316.082      108.886      -22.246      192.821      172.952      101.172    37179.907    29912.525    10235.750        9.478        3.866      334.312       87.212        0.068      350.979       32.540      859.632
07/16/2014  19:17:00     -164.767       37.619       -6.215      111.708      112.264       82.435    12478.771    12603.178     6795.499        3.023        1.594      169.007       60.917        0.130      351.028       32.627      859.625
07/16/2014  19:18:00     -283.700       91.633      -54.100      186.430      128.789       84.509    34756.123    16586.533     7141.780        7.513        2.924      298.131       76.797        0.066      350.948       32.487      859.640
07/16/2014  19:19:00     -259.964      -23.018      -35.212      207.090      197.483       80.285    42886.306    38999.641     6445.707        7.882        4.417      260.981       86.021        0.109      350.921       32.441      859.660
07/16/2014  19:20:00     -282.069       86.721      -32.809      122.915      158.613       81.381    15108.092    25158.213     6622.916        6.752        2.344      295.099       63.727        0.047      350.930       32.456      859.682
07/16/2014  19:21:00     -255.957       95.549      -43.483      139.582      157.339       72.133    19483.079    24755.465     5203.178        6.298        2.472      273.210       86.567        0.100      350.952       32.495      859.697
07/16/2014  19:22:00     -176.300       -0.143      -16.476      105.740       76.239       49.545    11180.904     5812.410     2454.719        2.540        0.972      176.300       57.853        0.108      350.946       32.484      859.739
07/16/2014  19:23:00     -262.377       40.333      -19.428      158.241      141.064       72.053    25040.205    19899.020     5191.660        6.048        2.507      265.459       74.299        0.078      350.938       32.471      859.771
07/16/2014  19:24:00     -251.000      115.335      -42.833      115.112       96.504       61.971    13250.678     9312.990     3840.443        5.227        1.320      276.230       56.709        0.042      350.952       32.493      859.804
07/16/2014  19:25:00     -188.790        1.297      -29.259      115.713      133.193       70.058    13389.514    17740.253     4908.083        3.626        1.802      188.795       64.071        0.115      350.966       32.519      859.808
07/16/2014  19:26:00     -207.813       97.279      -18.021      133.565      111.538       72.774    17839.510    12440.728     5296.069        4.427        1.779      229.454       63.217        0.076      350.879       32.369      859.826
07/16/2014  19:27:00     -274.491      -18.228      -37.618      131.983      134.549       61.024    17419.381    18103.326     3723.934        5.816        1.962      275.095       56.263        0.042      350.845       32.310      859.815
07/16/2014  19:28:00     -242.304      110.170      -23.788      120.853      182.660       64.800    14605.358    33364.526     4198.998        6.178        2.608      266.174       61.942        0.054      350.778       32.190      859.813
07/16/2014  19:29:00     -315.024       48.226      -60.589      180.202      158.028       81.097    32472.640    24972.923     6576.674        8.462        3.201      318.694       76.069        0.057      350.738       32.121      859.847
07/16/2014  19:30:00     -253.020      115.163      -48.040      194.721      158.744       83.786    37916.154    25199.642     7020.162        7.485        3.507      277.996       68.076        0.060      350.629       31.932      859.832
07/16/2014  19:31:00     -245.699      214.618      -44.293      143.384      228.591       93.998    20558.946    52253.837     8835.550        9.500        4.082      326.235       98.987        0.092      350.602       31.883      859.821
07/16/2014  19:32:00     -348.065      111.720      -42.283      253.979      186.148       94.145    64505.207    34651.032     8863.307       12.170        5.401      365.555      121.066        0.110      350.577       31.840      859.811
07/16/2014  19:33:00     -345.124      135.098      -52.476      193.751      128.895       75.109    37539.483    16613.945     5641.414        9.994        2.990      370.624       83.822        0.051      350.575       31.836      859.805
07/16/2014  19:34:00     -246.496      152.362      -34.979      188.117      163.566       95.463    35388.098    26753.712     9113.117        7.821        3.563      289.784       92.360        0.102      350.584       31.852      859.801
07/16/2014  19:35:00     -266.215      193.815      -47.933      170.793      127.684       82.034    29170.316    16303.186     6729.565        8.146        2.610      329.294       84.264        0.065      350.582       31.849      859.800
07/16/2014  19:36:00     -305.959      144.000      -50.286      123.150      183.908       74.073    15166.038    33822.276     5486.780        8.566        2.724      338.152       69.334        0.042      350.579       31.842      859.796
07/16/2014  19:37:00     -268.669       74.827      -61.251      106.027      158.750       67.849    11241.695    25201.556     4603.479        6.128        2.052      278.894       44.990        0.026      350.563       31.816      859.788
07/16/2014  19:38:00     -385.647      -56.740      -44.123      226.323      171.279       95.454    51222.146    29336.369     9111.546       12.176        4.484      389.799      102.985        0.070      350.538       31.771      859.771
07/16/2014  19:39:00     -332.576      105.256      -45.162      154.258      154.602       92.267    23795.444    23901.631     8513.164        8.996        2.811      348.835       94.753        0.074      350.516       31.732      859.769
07/16/2014  19:40:00     -322.530       29.345      -32.313      178.725      233.003       90.057    31942.760    54290.560     8110.215       10.012        4.717      323.862      107.350        0.110      350.480       31.671      859.745
07/16/2014  19:41:00     -328.759      -22.836      -40.815      209.758      161.064       82.042    43998.468    25941.629     6730.844        9.346        3.834      329.552       40.714        0.015      350.412       31.556      859.726
07/16/2014  19:42:00     -323.720       37.962      -21.053      214.990      169.577       90.709    46220.720    28756.263     8228.134        9.493        4.160      325.938      103.991        0.102      350.391       31.519      859.726
07/16/2014  19:43:00     -281.650      -20.380      -28.735      131.858      159.035       73.521    17386.605    25292.109     5405.358        6.432        2.404      282.387       53.242        0.036      350.350       31.448      859.706
07/16/2014  19:44:00     -318.905      140.747      -43.744      181.001      205.924      102.649    32761.383    42404.701    10536.841       10.455        4.285      348.583       75.501        0.047      350.315       31.386      859.685
07/16/2014  19:45:00     -444.426        6.382      -55.111      232.381      180.430       94.601    54000.778    32554.970     8949.384       14.803        4.775      444.472       91.764        0.043      350.329       31.409      859.658
07/16/2014  19:46:00     -392.865       13.735      -44.327      215.384      159.442       78.616    46390.227    25421.596     6180.509       11.723        3.900      393.105       92.738        0.056      350.350       31.447      859.618
07/16/2014  19:47:00     -270.318       56.612      -18.636      218.371      159.741       85.865    47686.087    25517.062     7372.741        7.858        4.029      276.182       73.349        0.071      350.375       31.491      859.584
07/16/2014  19:48:00     -184.117       41.296      -50.602      183.227       99.680       66.764    33572.177     9936.045     4457.401        4.306        2.398      188.692       36.549        0.038      350.410       31.552      859.557
07/16/2014  19:49:00     -402.776       27.096      -48.261      177.598      194.385       96.414    31541.092    37785.574     9295.612       12.194        3.931      403.686       79.913        0.039      350.417       31.564      859.547
07/16/2014  19:50:00     -260.302      115.905      -35.313      147.645      156.096       79.881    21799.174    24365.886     6381.007        6.748        2.627      284.940       83.160        0.085      350.432       31.587      859.532
07/16/2014  19:51:00     -142.086      -28.063        6.138      147.217      120.365       63.359    21672.843    14487.732     4014.391        3.059        2.009      144.831       72.557        0.251      350.432       31.590      859.523
07/16/2014  19:52:00     -260.427      -16.527      -10.474      115.272      128.970       63.898    13287.730    16633.379     4082.906        5.110        1.700      260.951       52.684        0.041      350.416       31.561      859.537
07/16/2014  19:53:00     -155.582       -9.837        0.041      126.046       78.697       54.959    15887.562     6193.191     3020.514        2.470        1.255      155.893       66.567        0.182      350.438       31.602      859.541
07/16/2014  19:54:00     -134.599      -69.849      -17.148       95.077       77.065       49.798     9039.561     5939.076     2479.825        2.037        0.873      151.643       35.184        0.054      350.441       31.604      859.566
07/16/2014  19:55:00     -204.808       17.032      -14.597      138.352       99.227       57.338    19141.397     9845.908     3287.605        3.736        1.614      205.515       57.687        0.079      350.454       31.627      859.589
07/16/2014  19:56:00     -122.894       45.803       -0.580       84.122       91.120       59.422     7076.479     8302.878     3530.950        1.805        0.946      131.152       47.909        0.133      350.464       31.646      859.626
07/16/2014  19:57:00      -78.643      -32.366      -13.838       91.416       55.434       37.874     8356.868     3072.961     1434.408        1.014        0.643       85.043       39.782        0.219      350.435       31.597      859.643
07/16/2014  19:58:00     -191.803      -28.556      -16.383       88.115       93.443       56.805     7764.231     8731.614     3226.864        2.879        0.986      193.917       37.599        0.038      350.487       31.685      859.675
07/16/2014  19:59:00     -213.893     -106.958        7.395      123.913       85.732       69.320    15354.310     7349.956     4805.229        4.237        1.375      239.145       72.197        0.091      350.462       31.640      859.725
07/16/2014  20:00:00     -101.813     -152.997        1.170      147.225       78.284       56.710    21675.302     6128.409     3216.060        3.239        1.551      183.777       61.284        0.111      350.498       31.705      859.760
07/16/2014  20:01:00      -50.472     -133.893       22.517       91.775       67.744       54.435     8422.687     4589.191     2963.115        1.848        0.799      143.090       53.274        0.139      350.485       31.682      859.810
07/16/2014  20:02:00      -99.379     -198.617        3.348      125.595      120.015       55.303    15774.176    14403.626     3058.391        4.128        1.662      222.092       56.038        0.064      350.563       31.817      859.840
07/16/2014  20:03:00     -113.320     -164.253      -16.683       78.386       98.477       36.217     6144.405     9697.774     1311.661        2.862        0.858      199.551       32.378        0.026      350.583       31.850      859.867
07/16/2014  20:04:00      -37.358      -50.574        6.881       47.766       45.855       28.394     2281.634     2102.718      806.202        0.459        0.260       62.875       22.484        0.128      350.528       31.761      859.903
07/16/2014  20:05:00      -15.660      -94.899        9.125       48.460       57.025       29.481     2348.329     3251.892      869.155        0.790        0.323       96.183       13.767        0.020      350.450       31.623      859.910
07/16/2014  20:06:00       18.084     -158.180       -7.112       68.698      110.197       53.769     4719.372    12143.451     2891.052        2.257        0.988      159.211       53.517        0.113      350.538       31.775      859.940
07/16/2014  20:07:00       28.439     -229.587       -9.296      100.909      109.477       63.644    10182.724    11985.267     4050.513        3.991        1.311      231.342       49.523        0.046      350.515       31.734      859.944
07/16/2014  20:08:00     -113.559     -154.943       13.691      155.764       94.989       62.942    24262.434     9022.901     3961.648        3.716        1.862      192.102       54.395        0.080      350.612       31.903      859.999
07/16/2014  20:09:00     -140.600     -174.643       -8.014      117.514      103.935       55.983    13809.594    10802.540     3134.103        3.903        1.387      224.206       60.286        0.072      350.601       31.884      860.021
07/16/2014  20:10:00     -172.765     -295.836       -2.450      127.139      113.467       69.593    16164.263    12874.677     4843.248        7.562        1.694      342.588       61.706        0.032      350.604       31.887      860.089
07/16/2014  20:11:00     -142.011     -310.403      -15.481      110.508      132.409       56.664    12212.092    17532.030     3210.768        7.485        1.648      341.346       51.831        0.023      350.594       31.871      860.127
07/16/2014  20:12:00     -124.605     -249.726       -5.527      113.883      106.370       51.445    12969.381    11314.649     2646.632        5.242        1.347      279.087       53.055        0.036      350.589       31.862      860.161
07/16/2014  20:13:00     -146.831     -146.874       -9.535      166.100       91.587       48.650    27589.213     8388.223     2366.860        4.078        1.917      207.681       33.633        0.026      350.576       31.839      860.169
07/16/2014  20:14:00       23.221     -203.861      -17.086      101.249      156.715       69.836    10251.361    24559.437     4877.066        4.103        1.984      205.179       36.007        0.031      350.409       31.550      860.224
07/16/2014  20:15:00      -15.175     -453.091       -8.987      182.475      208.798      104.282    33297.188    43596.556    10874.787       14.667        4.388      453.345       86.769        0.037      349.973       30.791      860.223
07/16/2014  20:16:00       54.217     -338.429       -5.160      167.374      139.769       81.369    28013.966    19535.449     6620.922        8.582        2.709      342.744       72.469        0.045      349.557       30.069      860.262
07/16/2014  20:17:00      -37.241     -368.624      -20.468      137.281      229.250       98.639    18846.068    52555.474     9729.638       10.939        4.057      370.500       85.371        0.053      349.312       29.645      860.242
07/16/2014  20:18:00      118.883     -342.771       11.535      213.550      181.743      105.069    45603.429    33030.691    11039.488       11.070        4.484      362.802       95.136        0.069      349.363       29.731      860.247
07/16/2014  20:19:00      -31.945     -193.739      -15.130      163.379      190.496       82.956    26692.842    36288.857     6881.627        5.431        3.493      196.355       79.473        0.164      349.286       29.602      860.224
07/16/2014  20:20:00      145.011     -281.618      -14.213      166.914      200.324       87.660    27860.235    40129.731     7684.290        8.809        3.784      316.760       88.477        0.078      349.112       29.297      860.222
07/16/2014  20:21:00       61.280     -262.161       -1.004      156.250      218.852       93.271    24414.009    47896.024     8699.421        7.673        4.050      269.228       73.434        0.074      349.032       29.160      860.225
07/16/2014  20:22:00      101.523     -317.932       26.841      241.632      242.456      125.304    58385.941    58784.806    15701.027       12.246        6.644      333.747      114.697        0.118      348.988       29.082      860.151
07/16/2014  20:23:00      112.731     -293.649       26.174      193.683      295.572      142.563    37513.186    87362.700    20324.207       12.238        7.260      314.544      155.589        0.245      348.948       29.013      860.137
07/16/2014  20:24:00       26.392     -451.495      -15.957      208.585      200.114      113.796    43507.596    40045.774    12949.472       15.063        4.825      452.265       79.502        0.031      348.881       28.898      860.134
07/16/2014  20:25:00      -42.229     -244.524       17.035      126.161      149.273       87.740    15916.522    22282.509     7698.234        5.387        2.295      248.144       71.632        0.083      348.875       28.888      860.084
07/16/2014  20:26:00       47.054     -304.669        5.321      153.743      165.088       75.371    23636.784    27254.046     5680.804        7.581        2.829      308.282       70.688        0.053      348.841       28.827      860.095
07/16/2014  20:27:00      -31.613     -254.994      -27.652      156.974      140.584       84.970    24640.803    19763.951     7219.880        5.919        2.581      256.946       75.532        0.086      348.821       28.793      860.115
07/16/2014  20:28:00       22.134     -207.655       24.852      181.225      209.030       98.323    32842.374    43693.519     9667.326        6.520        4.310      208.832      100.146        0.230      348.822       28.796      860.112
07/16/2014  20:29:00       71.695     -301.934       -7.211      187.832      202.503      101.273    35281.005    41007.514    10256.277        9.143        4.327      310.330       94.533        0.093      348.745       28.662      860.130
07/16/2014  20:30:00      -60.246     -160.044       22.581      127.689      221.051       75.705    16304.454    48863.691     5731.193        5.031        3.545      171.008       98.745        0.333      348.856       28.855      860.200
07/16/2014  20:31:00      -56.207     -336.096      -28.407      154.514      215.212       78.423    23874.600    46316.217     6150.095        9.662        3.817      340.764       88.834        0.068      348.868       28.874      860.266
07/16/2014  20:32:00       24.830     -293.618       -8.889      147.341      189.924       77.549    21709.369    36071.247     6013.813        7.534        3.190      294.666       81.772        0.077      348.824       28.799      860.331
07/16/2014  20:33:00      -37.847     -258.249        5.940      100.968      140.299       61.238    10194.473    19683.939     3750.039        5.089        1.681      261.007       45.966        0.031      348.749       28.670      860.375
07/16/2014  20:34:00      107.059     -382.097      -15.951      170.126      177.248      105.359    28942.944    31416.832    11100.618       11.457        3.573      396.812       80.640        0.041      348.652       28.502      860.368
07/16/2014  20:35:00       13.306     -228.804        0.166      145.372      114.814       95.762    21132.902    13182.221     9170.335        4.800        2.174      229.190       82.960        0.131      348.761       28.689      860.355
07/16/2014  20:36:00       37.170     -346.502      -23.717      214.703      195.324       77.960    46097.330    38151.298     6077.706       10.615        4.516      348.490       81.815        0.055      348.743       28.658      860.385
07/16/2014  20:37:00       95.318     -333.549      -33.741      203.781      151.397      104.759    41526.645    22921.094    10974.441        9.844        3.771      346.901       99.973        0.083      348.702       28.588      860.337
07/16/2014  20:38:00       20.796     -155.763       -7.167      100.134       78.340       60.016    10026.738     6137.156     3601.934        2.225        0.988      157.145       39.370        0.063      348.796       28.752      860.378
07/16/2014  20:39:00        6.381      -78.938       -4.281       42.263       65.342       41.135     1786.195     4269.558     1692.072        0.702        0.387       79.195       39.976        0.255      348.895       28.924      860.397
07/16/2014  20:40:00      -54.169     -262.645       -6.396      129.483      205.258       78.215    16765.903    42130.780     6117.525        6.847        3.251      268.173       90.518        0.114      348.785       28.732      860.384
07/16/2014  20:41:00       -2.629     -160.075      -14.462      115.176      106.369       68.898    13265.523    11314.379     4746.870        2.758        1.466      160.097       51.179        0.102      348.789       28.739      860.347
07/16/2014  20:42:00      -59.229     -386.861       -6.983      121.525      166.009       80.804    14768.261    27558.964     6529.359       10.103        2.443      391.369       68.912        0.031      348.922       28.968      860.357
07/16/2014  20:43:00      -23.892      -96.065        2.802      119.209       91.227       61.303    14210.762     8322.320     3758.031        1.804        1.315       98.992       48.351        0.239      349.014       29.128      860.338
07/16/2014  20:44:00      -15.901     -150.071       15.744      154.241      107.435       79.337    23790.175    11542.229     6294.340        3.232        2.081      150.911       55.568        0.136      349.043       29.178      860.335
07/16/2014  20:45:00      -33.437     -211.383      -14.739      112.397      110.195       75.824    12633.049    12143.005     5749.206        3.827        1.526      214.011       58.844        0.076      349.082       29.244      860.333
07/16/2014  20:46:00      -90.186     -234.777       -1.945      153.447      165.693       78.487    23545.856    27454.094     6160.197        6.020        2.858      251.503       64.174        0.065      349.153       29.367      860.332
07/16/2014  20:47:00       45.254     -258.897      -22.539      113.671       97.991       56.187    12921.147     9602.203     3156.930        4.763        1.284      262.823       47.593        0.033      349.120       29.311      860.347
07/16/2014  20:48:00      -10.601     -168.812      -29.061      107.743       92.560       53.822    11608.533     8567.444     2896.853        2.626        1.154      169.145       31.453        0.035      349.147       29.359      860.348
07/16/2014  20:49:00       -0.588     -154.414       13.218      104.610       94.819       72.736    10943.234     8990.602     5290.475        2.462        1.261      154.415       50.955        0.109      349.132       29.333      860.354
07/16/2014  20:50:00      -28.366     -149.581       14.505      126.523       96.834       63.891    16008.032     9376.731     4082.015        2.642        1.473      152.247       39.507        0.067      349.180       29.416      860.392
07/16/2014  20:51:00       75.674     -220.575       14.732      107.492      147.016       79.962    11554.426    21613.680     6393.979        4.707        1.978      233.195       79.225        0.115      349.180       29.415      860.413
07/16/2014  20:52:00       86.740     -154.494       -3.569      114.946      117.916       60.048    13212.581    13904.252     3605.756        3.106        1.536      177.178       50.430        0.081      349.186       29.427      860.423
07/16/2014  20:53:00      -45.227     -187.603       10.576      117.495      133.609       64.894    13805.174    17851.311     4211.240        3.660        1.793      192.978       65.935        0.117      349.234       29.511      860.455
07/16/2014  20:54:00       20.825     -112.363       12.465      110.769      109.730       54.535    12269.773    12040.768     2974.063        2.024        1.364      114.276       51.577        0.204      349.286       29.601      860.472
07/16/2014  20:55:00     -110.856      -72.687       -4.022       91.714       69.304       48.365     8411.536     4803.068     2339.134        1.657        0.778      132.561       34.169        0.066      349.325       29.670      860.494
07/16/2014  20:56:00       14.451      -74.188       28.552      123.910      126.694       62.746    15353.673    16051.438     3937.073        2.093        1.767       75.583       46.707        0.382      349.300       29.624      860.514
07/16/2014  20:57:00       51.955     -155.789      -15.845       97.580      117.168       58.524     9521.828    13728.304     3425.067        2.694        1.334      164.224       51.187        0.097      349.303       29.629      860.540
07/16/2014  20:58:00       60.289     -195.284       -0.652       92.739      121.595       74.820     8600.578    14785.438     5597.988        3.537        1.449      204.378       59.402        0.084      349.297       29.619      860.539
07/16/2014  20:59:00       31.552     -240.970      -18.098      142.609      113.619       67.913    20337.248    12909.280     4612.218        4.862        1.893      243.027       51.706        0.045      349.334       29.682      860.576
07/16/2014  21:00:00       22.597     -220.838        6.660      120.361      148.419       76.917    14486.782    22028.231     5916.291        4.587        2.122      221.991       86.325        0.151      349.348       29.707      860.604
07/16/2014  21:01:00      181.057     -214.238       -0.302      137.145      158.904       90.574    18808.789    25250.481     8203.660        6.546        2.613      280.499       98.424        0.123      349.435       29.858      860.610
07/16/2014  21:02:00       64.251     -192.899      -21.121      134.379      158.656       94.853    18057.841    25171.799     8997.071        4.699        2.611      203.318      103.937        0.261      349.441       29.868      860.649
07/16/2014  21:03:00        2.420     -149.588       16.564      152.203      164.887      113.335    23165.605    27187.876    12844.840        4.291        3.160      149.607       93.306        0.389      349.473       29.923      860.655
07/16/2014  21:04:00       52.516     -178.050        6.539      102.265      100.199       70.769    10458.102    10039.934     5008.223        3.000        1.275      185.633       48.528        0.068      349.454       29.892      860.727
07/16/2014  21:05:00      119.456     -137.137        9.362      134.657      122.923       76.705    18132.474    15110.182     5883.587        3.614        1.956      181.869       83.556        0.211      349.504       29.979      860.749
07/16/2014  21:06:00        4.614     -108.576       13.912       74.832      106.542       47.762     5599.893    11351.256     2281.246        1.561        0.962      108.674       53.204        0.240      349.483       29.942      860.799
07/16/2014  21:07:00      113.928     -112.200       20.311      106.928       81.958       59.979    11433.558     6717.184     3597.480        2.386        1.087      159.902       69.483        0.189      349.501       29.974      860.814
07/16/2014  21:08:00        9.790      -32.055       45.055       58.785      108.573       57.931     3455.694    11788.064     3355.980        1.087        0.930       33.516       68.120        4.131      349.395       29.790      860.841
07/16/2014  21:09:00       32.616     -123.373       36.220       96.640      151.935       79.123     9339.336    23084.208     6260.448        2.813        1.934      127.611       91.131        0.510      349.357       29.725      860.852
07/16/2014  21:10:00       86.162     -144.693        9.858       70.359      120.487       62.813     4950.420    14517.016     3945.518        2.593        1.171      168.405       67.225        0.159      349.523       30.011      860.889
07/16/2014  21:11:00       42.514     -140.358      -11.483       98.912      106.263       70.057     9783.633    11291.830     4907.924        2.381        1.299      146.655       69.752        0.226      349.585       30.118      860.908
07/16/2014  21:12:00       15.537      -58.444       23.110       52.594       54.697       36.259     2766.079     2991.743     1314.710        0.563        0.354       60.474       25.910        0.184      349.593       30.137      860.948
07/16/2014  21:13:00       32.636      -50.713        8.910       39.966       52.923       28.625     1597.293     2800.891      819.398        0.447        0.261       60.307       30.114        0.249      349.499       29.973      860.984
07/16/2014  21:14:00       22.531      -28.238       21.499       48.537       46.672       32.408     2355.879     2178.244     1050.250        0.367        0.279       36.125       24.642        0.465      349.516       30.002      861.010
07/16/2014  21:15:00        7.818      -48.445       24.830       60.164       91.328       50.635     3619.688     8340.752     2563.871        0.877        0.726       49.072       49.328        1.010      349.608       30.162      861.027
07/16/2014  21:16:00      -77.707      -72.765       20.410       83.015       67.715       36.082     6891.466     4585.312     1301.889        1.226        0.639      106.457       32.004        0.090      349.741       30.391      861.049
07/16/2014  21:17:00     -129.901     -106.698        0.066       73.765       73.906       38.491     5441.317     5462.057     1481.549        2.032        0.619      168.103       16.962        0.010      349.761       30.424      861.059
07/16/2014  21:18:00     -131.783     -112.071        2.671       78.680       81.608       42.039     6190.585     6659.794     1767.293        2.227        0.731      172.993       37.149        0.046      349.760       30.424      861.052
07/16/2014  21:19:00      -62.374     -119.355       -0.351       50.433       72.549       36.943     2543.483     5263.313     1364.806        1.365        0.459      134.671       38.202        0.080      349.747       30.402      861.053
07/16/2014  21:20:00     -106.415     -102.599       -2.142       69.609       62.494       28.125     4845.427     3905.510      791.021        1.570        0.477      147.820       30.286        0.042      349.772       30.446      861.070
07/16/2014  21:21:00      -70.591     -155.334        5.802       81.127       48.357       32.964     6581.518     2338.379     1086.643        1.957        0.500      170.622       33.691        0.039      349.748       30.401      861.071
07/16/2014  21:22:00      -75.445     -194.054        0.428       42.563       43.693       30.509     1811.616     1909.099      930.798        2.400        0.233      208.204       25.796        0.015      349.802       30.495      861.096
07/16/2014  21:23:00      -95.880      -85.736        0.414       85.628       79.690       46.466     7332.212     6350.529     2159.129        1.619        0.792      128.622       45.476        0.125      349.803       30.498      861.111
07/16/2014  21:24:00     -121.990      -53.123        8.431      110.933       70.965       41.582    12306.123     5036.088     1729.087        1.842        0.954      133.055       45.655        0.118      349.769       30.437      861.136
07/16/2014  21:25:00     -123.655      -10.630        4.585       73.078       59.723       30.000     5340.409     3566.819      899.984        1.261        0.490      124.111       34.312        0.076      349.679       30.283      861.159
07/16/2014  21:26:00     -201.950        9.953      -11.528       60.847       52.907       36.245     3702.370     2799.167     1313.701        2.441        0.391      202.195       35.567        0.031      349.624       30.186      861.180
07/16/2014  21:27:00     -185.035       -7.117      -18.237       73.204       44.976       38.404     5358.897     2022.816     1474.892        2.174        0.443      185.172       39.671        0.046      349.589       30.126      861.200
07/16/2014  21:28:00     -174.139       22.962      -15.543       62.220       43.752       23.179     3871.321     1914.279      537.268        1.871        0.316      175.646       20.153        0.013      349.470       29.923      861.207
07/16/2014  21:29:00      -57.897        4.668        7.456       32.095       25.439       21.190     1030.068      647.120      449.011        0.278        0.106       58.085       15.447        0.071      349.485       29.950      861.219
07/16/2014  21:30:00       24.903       21.265       46.612       34.021       56.283       36.891     1157.441     3167.784     1360.920        0.446        0.284       32.747       30.363        0.860      349.093       29.269      861.219
07/16/2014  21:31:00       10.626      -86.680      -16.053       32.161       49.796       27.906     1034.310     2479.633      778.755        0.609        0.215       87.329       18.806        0.046      349.197       29.449      861.241
07/16/2014  21:32:00      -19.890      -20.991       15.738       46.844       29.132       23.602     2194.344      848.672      557.049        0.234        0.180       28.918       29.681        1.053      349.514       29.998      861.295
07/16/2014  21:33:00      -46.443      -26.854       14.809       64.437       40.754       27.499     4152.128     1660.918      756.177        0.483        0.328       53.648       26.934        0.252      349.494       29.962      861.307
07/16/2014  21:34:00      -91.986      -56.966       -9.123       46.589       59.834       26.199     2170.542     3580.089      686.392        0.911        0.322      108.196       26.462        0.060      349.525       30.017      861.314
07/16/2014  21:35:00      -48.991      -21.177       -0.436       32.642       45.204       22.929     1065.513     2043.436      525.725        0.324        0.182       53.372       20.866        0.153      349.473       29.928      861.308
07/16/2014  21:36:00     -111.128        8.759       -2.533       77.303       31.040       25.663     5975.778      963.485      658.578        1.001        0.380      111.473       22.848        0.042      349.370       29.748      861.315
07/16/2014  21:37:00     -217.390       -3.158      -11.450       55.726       69.796       35.021     3105.438     4871.491     1226.487        2.830        0.460      217.413       32.265        0.022      349.469       29.917      861.313
07/16/2014  21:38:00     -119.029      -34.757        0.852       82.529       61.323       29.830     6811.095     3760.453      889.826        1.342        0.573      123.999       27.952        0.051      349.438       29.865      861.316
07/16/2014  21:39:00     -164.828      -56.225       -0.473       87.292       56.840       37.558     7619.813     3230.790     1410.574        2.129        0.613      174.154       38.249        0.048      349.436       29.858      861.322
07/16/2014  21:40:00     -117.433       -9.461        6.048       93.347       68.505       40.084     8713.582     4692.993     1606.740        1.446        0.751      117.813       30.701        0.068      349.466       29.914      861.338
07/16/2014  21:41:00      -55.000      -46.035       21.719       79.213       47.985       28.079     6274.655     2302.565      788.423        0.749        0.468       71.723       32.648        0.207      349.457       29.899      861.395
07/16/2014  21:42:00        9.574      -32.845        9.837       45.149       44.080       27.600     2038.436     1943.049      761.758        0.300        0.237       34.212       26.280        0.590      349.240       29.521      861.458
07/16/2014  21:43:00      124.373       80.596       44.529       56.471       39.282       50.720     3188.932     1543.112     2572.490        1.562        0.365      148.204       28.063        0.036      349.008       29.120      861.518
07/16/2014  21:44:00       75.658       71.570       66.381       76.602       52.262       47.642     5867.885     2731.334     2269.728        1.306        0.543      104.146       38.602        0.137      348.736       28.648      861.561
07/16/2014  21:45:00       98.169       24.842       35.900      124.032       59.448       48.850    15383.820     3534.124     2386.346        1.642        1.065      101.264       38.241        0.143      348.666       28.526      861.599
07/16/2014  21:46:00       29.482       -1.725       31.961       45.401       58.928       40.574     2061.260     3472.541     1646.238        0.454        0.359       29.532       31.979        1.173      348.462       28.177      861.636
07/16/2014  21:47:00       43.145      -10.504       37.454       48.760       46.261       36.396     2377.559     2140.059     1324.639        0.461        0.292       44.405       29.747        0.449      348.410       28.085      861.664
07/16/2014  21:48:00       32.993        2.390       14.528       55.425       64.925       28.451     3071.951     4215.199      809.433        0.470        0.405       33.080       20.934        0.400      348.516       28.269      861.689
07/16/2014  21:49:00       45.469       39.588       36.557       52.564       45.901       33.665     2762.970     2106.884     1133.346        0.549        0.300       60.288       22.780        0.143      348.614       28.437      861.698
07/16/2014  21:50:00      133.682       75.240       20.948       51.047       42.699       39.263     2605.826     1823.178     1541.551        1.497        0.299      153.401       28.827        0.035      348.522       28.279      861.707
07/16/2014  21:51:00       77.466       42.522        8.026       42.370       29.017       23.312     1795.255      841.965      543.463        0.553        0.159       88.369       12.057        0.019      348.508       28.255      861.715
07/16/2014  21:52:00       -8.214       80.585      -16.813       23.094       48.155       15.033      533.332     2318.934      225.992        0.496        0.154       81.003       19.645        0.059      348.449       28.152      861.720
07/16/2014  21:53:00       -7.861      107.373      -22.532       33.771       38.580       12.832     1140.481     1488.428      164.657        0.745        0.140      107.660       15.357        0.020      348.389       28.048      861.723
07/16/2014  21:54:00      -26.707       71.618      -15.790       26.192       16.861        9.976      685.999      284.293       99.527        0.358        0.053       76.435        9.025        0.014      348.354       27.989      861.729
07/16/2014  21:55:00      -15.320        2.381       -0.156       12.755       16.305        8.621      162.701      265.843       74.323        0.037        0.025       15.504        6.927        0.200      348.470       28.188      861.739
07/16/2014  21:56:00       -4.801       -1.579       12.881        9.949       10.174        7.795       98.976      103.512       60.766        0.023        0.013        5.054        5.343        1.118      348.417       28.099      861.759
07/16/2014  21:57:00        0.623      -35.798       -2.766       14.237       20.871       18.277      202.687      435.617      334.039        0.113        0.049       35.803        7.129        0.040      348.179       27.686      861.774
07/16/2014  21:58:00      -13.629      -40.981        7.719       28.477       28.855       30.524      810.924      832.610      931.712        0.225        0.129       43.188       19.262        0.199      348.206       27.734      861.779
07/16/2014  21:59:00       55.313      -82.104      -19.444       34.123       36.959       23.656     1164.390     1365.964      559.613        0.663        0.154       98.997       20.647        0.043      348.373       28.022      861.801
07/16/2014  22:00:00      -11.841      -53.020       -2.728       34.540       22.586       17.395     1193.004      510.111      302.590        0.248        0.100       54.326       10.140        0.035      348.483       28.211      861.815
07/16/2014  22:01:00      -31.039      -14.845       12.228       36.961       31.245       16.059     1366.149      976.273      257.893        0.197        0.130       34.407       12.742        0.137      348.582       28.383      861.798
07/16/2014  22:02:00     -120.631      -11.583       -9.605       24.615       40.660       14.340      605.901     1653.253      205.643        0.862        0.123      121.186       11.532        0.009      348.817       28.790      861.766
07/16/2014  22:03:00     -182.555      -20.306       -4.505       76.398       48.726       30.990     5836.605     2374.263      960.376        2.146        0.459      183.681       24.891        0.018      348.764       28.697      861.746
07/16/2014  22:04:00     -263.242       42.337      -24.042       84.294       62.838       42.431     7105.459     3948.645     1800.356        4.226        0.643      266.625       36.797        0.019      349.249       29.535      861.704
07/16/2014  22:05:00     -150.290       61.985      -16.667       81.370       79.072       39.274     6621.080     6252.328     1542.455        2.056        0.721      162.571       35.914        0.049      349.289       29.605      861.683
07/16/2014  22:06:00      -86.888       -1.964       11.527       97.380       67.642       49.974     9482.850     4575.374     2497.366        1.212        0.828       86.910       53.602        0.380      349.181       29.421      861.679
07/16/2014  22:07:00     -320.293      -43.110      -14.568       90.114      105.464       58.031     8120.614    11122.560     3367.606        6.363        1.131      323.181       52.894        0.027      349.312       29.646      861.693
07/16/2014  22:08:00     -288.762     -114.251       -3.984      144.853       92.491       58.779    20982.317     8554.571     3454.938        6.472        1.650      310.542       60.234        0.038      349.293       29.612      861.698
07/16/2014  22:09:00     -236.173      -66.231        0.149      133.790      102.967       62.273    17899.737    10602.150     3877.865        4.627        1.619      245.284       66.234        0.073      349.287       29.600      861.696
07/16/2014  22:10:00     -195.972      -57.851       11.335      100.339      102.940       48.943    10067.991    10596.680     2395.381        3.247        1.153      204.333       44.591        0.048      349.273       29.576      861.721
07/16/2014  22:11:00     -181.717      -61.937       -8.145       85.915       66.682       39.844     7381.368     4446.451     1587.565        2.517        0.671      191.982       41.741        0.047      349.367       29.742      861.752
07/16/2014  22:12:00     -188.590      -89.178        3.910       87.411       74.321       27.544     7640.734     5523.619      758.689        2.873        0.696      208.612       30.583        0.021      349.321       29.662      861.770
07/16/2014  22:13:00     -155.918     -136.019        0.303       85.376       47.053       45.461     7289.029     2214.031     2066.674        2.719        0.578      206.909       36.384        0.031      349.266       29.564      861.774
07/16/2014  22:14:00     -104.648      -92.906        9.774       78.149       76.112       43.511     6107.251     5793.111     1893.223        1.673        0.690      139.938       43.876        0.098      349.220       29.487      861.797
07/16/2014  22:15:00     -114.124      -65.373        6.996       70.756       46.610       25.021     5006.405     2172.536      626.070        1.257        0.390      131.522       26.949        0.042      349.289       29.605      861.790
07/16/2014  22:16:00      -79.230      -63.982        0.086       38.072       40.346       22.968     1449.510     1627.834      527.533        0.699        0.180      101.838       14.491        0.020      349.291       29.612      861.775
07/16/2014  22:17:00      -57.305      -60.789        4.385       40.990       31.022       21.246     1680.161      962.389      451.375        0.505        0.155       83.541       21.499        0.066      349.286       29.604      861.780
07/16/2014  22:18:00     -121.808     -113.022       -2.667       73.230       54.121       35.654     5362.671     2929.120     1271.235        1.859        0.478      166.166       33.872        0.042      349.239       29.520      861.775
07/16/2014  22:19:00     -111.365      -98.994       -2.754       49.699       58.307       32.187     2469.948     3399.750     1035.978        1.456        0.345      149.003       20.361        0.019      349.282       29.596      861.766
07/16/2014  22:20:00     -160.334     -100.292       -2.353       79.851       45.814       33.749     6376.151     2098.956     1138.998        2.269        0.481      189.118       36.268        0.037      349.277       29.585      861.752
07/16/2014  22:21:00      -86.518      -59.630        9.741       77.006       49.556       34.666     5929.975     2455.827     1201.714        1.036        0.479      105.077       32.655        0.097      349.198       29.450      861.738
07/16/2014  22:22:00      -81.691      -73.407        9.484       46.363       36.737       25.793     2149.501     1349.595      665.284        0.816        0.208      109.827       21.459        0.038      349.219       29.487      861.735
07/16/2014  22:23:00      -31.712      -64.392        5.143       58.563       34.275       23.065     3429.660     1174.760      532.008        0.516        0.257       71.778       25.319        0.124      349.255       29.547      861.722
07/16/2014  22:24:00     -161.155      -97.674       -2.038       70.480       59.370       31.547     4967.443     3524.780      995.207        2.250        0.474      188.444       24.326        0.017      349.205       29.460      861.713
07/16/2014  22:25:00     -179.640      -59.692      -11.459       72.993       55.162       40.183     5327.954     3042.871     1614.705        2.297        0.499      189.297       42.215        0.050      349.128       29.326      861.722
07/16/2014  22:26:00      -56.802      -36.499       15.109       58.395       46.449       37.201     3410.022     2157.537     1383.919        0.587        0.348       67.518       30.823        0.208      349.033       29.164      861.712
07/16/2014  22:27:00      -18.959      -19.492       17.588       47.926       53.195       33.541     2296.940     2829.743     1124.987        0.365        0.313       27.192       20.900        0.591      349.106       29.292      861.674
07/16/2014  22:28:00      -93.252      -65.354        2.331       51.767       66.370       31.586     2679.806     4404.927      997.651        1.053        0.404      113.873       28.371        0.062      349.116       29.306      861.662
07/16/2014  22:29:00     -210.309     -103.896        1.431       82.278       89.389       41.579     6769.737     7990.330     1728.825        3.575        0.824      234.572       36.637        0.024      349.063       29.213      861.674
07/16/2014  22:30:00     -322.960      -41.446      -24.396      115.046       86.090       54.338    13235.636     7411.514     2952.631        6.510        1.180      325.608       57.525        0.031      349.018       29.135      861.658
07/16/2014  22:31:00     -316.428      -59.864      -10.608       87.284       97.620       45.278     7618.447     9529.619     2050.104        6.151        0.960      322.041       40.516        0.016      348.974       29.057      861.647
07/16/2014  22:32:00     -343.972      -51.999      -28.550      167.107      102.828       63.258    27924.672    10573.688     4001.570        8.216        2.125      347.881       79.533        0.052      348.984       29.075      861.645
07/16/2014  22:33:00     -338.507      -79.434      -18.260      127.686      109.081       57.109    16303.842    11898.642     3261.445        7.634        1.573      347.702       50.168        0.021      349.032       29.158      861.640
07/16/2014  22:34:00     -348.099        3.811      -31.884      151.936      110.523       66.812    23084.479    12215.263     4463.781        8.098        1.988      348.120       73.289        0.044      349.015       29.127      861.611
07/16/2014  22:35:00     -309.866     -125.300       -2.142      141.041      102.039       66.253    19892.700    10411.924     4389.502        7.320        1.735      334.241       65.624        0.039      349.019       29.136      861.617
07/16/2014  22:36:00     -205.113      -26.815        1.594      101.255      102.383       55.897    10252.521    10482.284     3124.422        3.332        1.193      206.858       48.104        0.054      348.977       29.065      861.583
07/16/2014  22:37:00     -360.951      -95.729      -16.333      113.557      120.512       68.440    12895.135    14523.136     4683.972        8.590        1.605      373.429       56.874        0.023      348.977       29.065      861.588
07/16/2014  22:38:00     -425.750     -151.771       -9.444      116.210      106.239       57.814    13504.716    11286.643     3342.430       11.625        1.407      451.993       55.475        0.015      348.948       29.013      861.590
07/16/2014  22:39:00     -336.913      -53.635      -14.151      166.844      111.966       69.513    27837.021    12536.422     4832.067        8.089        2.260      341.155       84.455        0.061      348.948       29.014      861.599
07/16/2014  22:40:00     -304.264      -57.046       -7.520      115.724      104.162       61.682    13392.153    10849.636     3804.636        6.196        1.402      309.565       61.662        0.040      348.948       29.013      861.592
07/16/2014  22:41:00     -258.949      -54.744       -5.918      151.635      111.748       65.011    22993.045    12487.719     4226.365        5.489        1.985      264.673       78.142        0.087      348.918       28.962      861.572
07/16/2014  22:42:00     -411.611      -84.902      -16.252      134.246      118.326       63.470    18021.972    14001.019     4028.492       10.647        1.803      420.276       54.976        0.017      348.932       28.987      861.563
07/16/2014  22:43:00     -424.785     -104.351       -6.556      181.731       98.442       70.401    33026.059     9690.737     4956.299       11.951        2.384      437.414       78.050        0.032      348.913       28.954      861.556
07/16/2014  22:44:00     -360.443     -104.438       -5.449      180.378      115.801       63.608    32536.151    13409.986     4046.011        9.541        2.500      375.268       71.550        0.036      348.941       29.003      861.535
07/16/2014  22:45:00     -339.203      -98.510       -5.530      165.965      108.100       59.522    27544.461    11685.590     3542.922        8.377        2.139      353.218       69.917        0.039      348.933       28.987      861.521
07/16/2014  22:46:00     -388.829     -100.811      -20.403      128.826      123.074       64.285    16596.201    15147.165     4132.607        9.881        1.794      401.685       63.767        0.025      348.921       28.967      861.497
07/16/2014  22:47:00     -367.270      -52.895      -24.382      142.675      139.960       68.324    20356.098    19588.900     4668.210        9.144        2.231      371.059       63.746        0.030      348.916       28.957      861.496
07/16/2014  22:48:00     -313.207     -132.932      -10.888      134.496      117.150       58.195    18089.244    13724.178     3386.635        7.554        1.760      340.249       55.696        0.027      348.913       28.954      861.485
07/16/2014  22:49:00     -290.248      -56.336       -6.830      146.581      120.517       59.915    21485.997    14524.343     3589.783        6.352        1.980      295.665       63.426        0.046      348.889       28.910      861.470
07/16/2014  22:50:00     -354.551      -33.871       -0.480      203.720      130.054       74.326    41502.034    16914.166     5524.307        9.538        3.197      356.165       95.031        0.071      348.866       28.873      861.475
07/16/2014  22:51:00     -360.768      -84.957      -16.605      135.452      122.405       61.320    18347.336    14982.898     3760.118        8.736        1.855      370.636       55.648        0.023      348.885       28.903      861.475
07/16/2014  22:52:00     -407.375      -96.208      -24.188      156.466      143.193       73.712    24481.487    20504.229     5433.405       11.310        2.521      418.581       82.833        0.039      348.901       28.932      861.466
07/16/2014  22:53:00     -444.507     -104.836       -4.968      158.686      140.120       77.549    25181.250    19633.569     6013.834       12.971        2.541      456.703       80.345        0.031      348.884       28.902      861.431
07/16/2014  22:54:00     -471.214     -112.871      -27.512      124.847      142.628       52.020    15586.854    20342.762     2706.057       13.708        1.932      484.543       43.782        0.008      348.891       28.914      861.434
07/16/2014  22:55:00     -410.089      -66.346      -26.595      161.991      121.882       69.330    26241.071    14855.220     4806.648       10.958        2.295      415.422       70.286        0.029      348.856       28.852      861.438
07/16/2014  22:56:00     -306.390      -68.063      -12.655      135.469      141.899       66.262    18351.770    20135.213     4390.656        7.076        2.144      313.859       59.059        0.035      348.841       28.828      861.404
07/16/2014  22:57:00     -357.047      -41.996       -7.846      161.578       97.443       67.569    26107.365     9495.093     4565.614        8.473        2.008      359.508       83.336        0.054      348.810       28.774      861.386
07/16/2014  22:58:00     -385.998      -99.523       -7.779      151.450      122.614       69.272    22937.036    15034.234     4798.545       10.086        2.138      398.621       76.206        0.037      348.801       28.757      861.379
07/16/2014  22:59:00     -410.742      -73.220      -10.495      142.586      108.637       72.051    20330.767    11801.916     5191.281       10.574        1.866      417.217       71.328        0.029      348.824       28.797      861.368
07/16/2014  23:00:00     -265.767      -90.692      -15.375      177.467      131.792       64.908    31494.582    17369.192     4213.061        6.607        2.654      280.815       71.349        0.065      348.814       28.783      861.342
07/16/2014  23:01:00     -322.896      -28.159       -5.915      160.065      110.076       65.230    25620.715    12116.799     4254.976        7.353        2.100      324.122       76.175        0.055      348.800       28.756      861.336
07/16/2014  23:02:00     -375.499      -62.897      -16.689      124.643       98.890       60.269    15535.806     9779.306     3632.403        8.708        1.447      380.730       60.591        0.025      348.808       28.770      861.327
07/16/2014  23:03:00     -232.496      -87.551       -4.557      116.522      106.984       56.239    13577.360    11445.576     3162.782        4.496        1.409      248.434       66.810        0.072      348.776       28.715      861.306
07/16/2014  23:04:00     -303.879      -57.989       -7.270      130.073      114.137       61.788    16918.909    13027.194     3817.815        6.475        1.688      309.362       62.145        0.040      348.768       28.700      861.288
07/16/2014  23:05:00     -345.725      -38.764      -21.431      168.016       98.285       67.551    28229.515     9659.882     4563.172        8.196        2.123      347.892       70.660        0.041      348.802       28.761      861.280
07/16/2014  23:06:00     -379.144      -11.312      -14.007      165.213      106.565       68.605    27295.341    11356.130     4706.602        9.371        2.168      379.312       66.876        0.031      348.800       28.756      861.284
07/16/2014  23:07:00     -274.982      -31.887      -15.524      113.508       90.680       63.046    12884.078     8222.933     3974.764        5.097        1.254      276.825       63.521        0.053      348.755       28.680      861.274
07/16/2014  23:08:00     -406.269     -135.079       -8.342      149.139      119.119       66.338    22242.583    14189.442     4400.787       11.209        2.042      428.136       72.408        0.029      348.739       28.654      861.266
07/16/2014  23:09:00     -335.022      -56.642       -7.301      125.375      100.784       50.751    15718.907    10157.489     2575.684        7.197        1.423      339.777       53.397        0.025      348.711       28.604      861.273
07/16/2014  23:10:00     -220.565      -37.506       -0.190      119.275       84.259       62.021    14226.451     7099.554     3846.631        3.761        1.259      223.731       66.258        0.088      348.670       28.534      861.266
07/16/2014  23:11:00     -428.137      -57.610      -24.477      151.197      119.853       74.647    22860.623    14364.834     5572.105       11.500        2.140      431.996       76.752        0.032      348.718       28.616      861.267
07/16/2014  23:12:00     -307.281      -61.126       -7.120      215.700      126.397       74.634    46526.625    15976.149     5570.279        8.313        3.404      313.301       89.866        0.082      348.687       28.562      861.262
07/16/2014  23:13:00     -363.344      -74.748      -20.818      147.309      116.838       63.743    21699.845    13651.013     4063.201        8.872        1.971      370.953       66.444        0.032      348.691       28.569      861.280
07/16/2014  23:14:00     -276.295      -39.350       -4.284      123.258      103.565       60.839    15192.563    10725.637     3701.372        5.376        1.481      279.083       60.388        0.047      348.674       28.540      861.275
07/16/2014  23:15:00     -298.565      -98.436        7.704      143.075      134.441       63.898    20470.585    18074.431     4083.016        7.075        2.131      314.374       74.661        0.056      348.677       28.546      861.274
07/16/2014  23:16:00     -257.275      -35.129        1.112      119.977       97.434       62.222    14394.523     9493.410     3871.571        4.759        1.388      259.662       59.472        0.052      348.653       28.504      861.284
07/16/2014  23:17:00     -390.798      -69.534      -30.279      146.000      116.595       63.373    21315.914    13594.333     4016.099        9.869        1.946      396.936       68.780        0.030      348.698       28.581      861.283
07/16/2014  23:18:00     -330.806     -103.067      -14.165      146.965      124.076       73.071    21598.781    15394.737     5339.444        8.129        2.117      346.490       68.344        0.039      348.686       28.560      861.274
07/16/2014  23:19:00     -356.769      -14.138      -22.872      166.460       83.516       60.199    27709.032     6974.866     3623.923        8.315        1.915      357.049       72.052        0.041      348.704       28.592      861.286
07/16/2014  23:20:00     -241.938      -35.568       -9.642      144.757       99.065       54.128    20954.450     9813.831     2929.871        4.679        1.685      244.538       57.373        0.055      348.647       28.492      861.297
07/16/2014  23:21:00     -291.884      -83.457      -13.398      180.289      117.294       73.661    32504.031    13757.951     5425.949        7.200        2.584      303.581       88.977        0.086      348.677       28.545      861.286
07/16/2014  23:22:00     -389.167      -55.959      -17.112      143.457      118.661       62.317    20580.052    14080.444     3883.396        9.670        1.927      393.169       68.875        0.031      348.696       28.578      861.279
07/16/2014  23:23:00     -321.217      -48.667       -8.794      124.899      121.905       60.500    15599.736    14860.912     3660.195        6.987        1.706      324.883       62.000        0.036      348.690       28.567      861.285
07/16/2014  23:24:00     -409.921       -8.731      -29.047      160.919      112.299       62.327    25894.794    12611.045     3884.657       10.566        2.120      410.014       70.624        0.030      348.696       28.577      861.292
07/16/2014  23:25:00     -328.774      -91.654      -14.810      143.327      123.169       70.811    20542.703    15170.659     5014.222        7.871        2.036      341.310       62.629        0.034      348.667       28.527      861.281
07/16/2014  23:26:00     -356.406      -49.923       -8.388      148.631      122.330       74.469    22091.108    14964.516     5545.615        8.609        2.130      359.886       74.686        0.043      348.667       28.528      861.281
07/16/2014  23:27:00     -418.998      -93.328      -15.135      130.731      101.225       66.327    17090.549    10246.525     4399.316       10.811        1.587      429.266       65.785        0.023      348.674       28.538      861.271
07/16/2014  23:28:00     -459.821      -68.964      -20.230      150.225      122.267       70.383    22567.442    14949.181     4953.725       12.953        2.124      464.964       78.216        0.028      348.678       28.545      861.278
07/16/2014  23:29:00     -321.837      -86.439       -9.981      125.854      108.436       64.327    15839.204    11758.406     4137.992        7.144        1.587      333.243       60.919        0.033      348.677       28.546      861.269
07/16/2014  23:30:00     -290.807      -18.380      -10.904      131.516      108.795       70.129    17296.377    11836.460     4918.061        5.953        1.703      291.387       75.762        0.068      348.657       28.510      861.263
07/16/2014  23:31:00     -383.080      -64.729      -18.289      158.124      129.836       69.666    25003.128    16857.342     4853.362        9.898        2.336      388.510       51.897        0.018      348.682       28.555      861.261
07/16/2014  23:32:00     -308.506      -68.666      -30.917      145.624      100.801       68.912    21206.226    10160.876     4748.881        6.847        1.806      316.056       58.116        0.034      348.674       28.539      861.263
07/16/2014  23:33:00     -362.465      -65.299      -20.342      119.411      149.147       71.109    14259.093    22244.908     5056.546        8.880        2.078      368.300       59.482        0.026      348.661       28.516      861.249
07/16/2014  23:34:00     -343.435      -73.288      -11.899      107.692      112.005       50.686    11597.669    12545.085     2569.072        7.508        1.336      351.168       51.690        0.022      348.651       28.500      861.257
07/16/2014  23:35:00     -236.480      -44.744        2.120      134.814      109.939       60.304    18174.690    12086.648     3636.545        4.591        1.695      240.675       65.856        0.075      348.577       28.371      861.258
07/16/2014  23:36:00     -231.074      -63.176        7.473      142.136       88.147       60.295    20202.540     7769.806     3635.546        4.452        1.580      239.555       65.841        0.076      348.605       28.420      861.257
07/16/2014  23:37:00     -312.662      -84.659      -13.563      179.810      115.711       75.844    32331.578    13389.046     5752.338        7.828        2.574      323.921       87.094        0.072      348.675       28.540      861.250
07/16/2014  23:38:00     -304.283      -74.652      -20.124      157.224       83.157       54.740    24719.450     6915.166     2996.426        6.659        1.732      313.306       61.593        0.039      348.627       28.460      861.252
07/16/2014  23:39:00     -299.527      -54.450      -20.100      134.677       91.025       65.771    18137.868     8285.640     4325.769        6.191        1.537      304.436       63.852        0.044      348.653       28.502      861.261
07/16/2014  23:40:00     -282.057      -42.478      -13.107      118.176      107.829       61.606    13965.680    11627.167     3795.277        5.545        1.469      285.238       65.684        0.053      348.651       28.498      861.251
07/16/2014  23:41:00     -267.366      -15.059       -4.114      136.109       89.350       56.258    18525.777     7983.444     3164.954        5.070        1.484      267.790       63.630        0.056      348.632       28.467      861.248
07/16/2014  23:42:00     -283.677      -55.794      -10.422      111.555       98.275       56.687    12444.534     9657.911     3213.397        5.450        1.266      289.112       55.449        0.037      348.663       28.520      861.244
07/16/2014  23:43:00     -119.261       -3.355        9.003      137.380       70.115       52.552    18873.391     4916.079     2761.713        2.043        1.328      119.309       49.206        0.170      348.605       28.420      861.239
07/16/2014  23:44:00     -360.628     -107.591      -38.085      136.399      144.178       53.277    18604.684    20787.297     2838.417        9.265        2.112      376.335       49.320        0.017      348.665       28.525      861.246
07/16/2014  23:45:00     -284.712      -40.863       -8.586      134.907      126.443       60.631    18199.993    15987.714     3676.081        6.033        1.893      287.630       67.589        0.055      348.630       28.464      861.241
07/16/2014  23:46:00     -276.441     -107.592      -20.363      146.347      110.111       55.817    21417.527    12124.376     3115.496        6.253        1.833      296.641       52.420        0.031      348.637       28.476      861.240
07/16/2014  23:47:00     -236.276      -60.352       -2.129      149.196      107.841       55.937    22259.366    11629.616     3128.966        4.824        1.851      243.862       46.623        0.037      348.638       28.476      861.235
07/16/2014  23:48:00     -235.234      -51.352       -5.897      135.439       69.633       51.249    18343.850     4848.795     2626.426        4.191        1.291      240.773       64.283        0.071      348.624       28.453      861.239
07/16/2014  23:49:00     -320.311      -84.842      -13.352      138.647      125.237       63.438    19223.036    15684.399     4024.393        7.445        1.947      331.357       51.593        0.024      348.628       28.459      861.233
07/16/2014  23:50:00     -377.227      -60.974      -22.453      131.038      131.722       66.156    17170.857    17350.605     4376.640        9.270        1.945      382.123       67.903        0.032      348.649       28.496      861.226
07/16/2014  23:51:00     -302.460      -65.135       -9.896      136.110      162.890       63.016    18525.997    26533.248     3971.069        7.242        2.452      309.394       53.950        0.030      348.629       28.460      861.218
07/16/2014  23:52:00     -331.617       -6.554      -16.473      127.203       97.123       63.999    16180.656     9432.818     4095.852        6.999        1.485      331.682       70.532        0.045      348.625       28.455      861.231
07/16/2014  23:53:00     -251.443      -80.207       -0.139      159.702      103.915       60.364    25504.602    10798.321     3643.851        5.479        1.997      263.925       56.979        0.047      348.593       28.400      861.228
07/16/2014  23:54:00     -325.797      -77.317      -17.652      194.705      123.950       66.298    37910.088    15363.546     4395.384        8.504        2.883      334.845       76.666        0.052      348.604       28.418      861.212
07/16/2014  23:55:00     -353.537      -57.929      -11.634      153.608      112.248       69.525    23595.312    12599.687     4833.692        8.475        2.051      358.252       75.478        0.044      348.596       28.402      861.217
07/16/2014  23:56:00     -333.835      -50.483      -14.822      148.387      120.089       61.153    22018.703    14421.383     3739.722        7.719        2.009      337.631       70.245        0.043      348.594       28.400      861.236
07/16/2014  23:57:00     -374.686      -48.961      -29.570      141.865      132.068       66.722    20125.792    17441.838     4451.868        9.283        2.101      377.871       73.895        0.038      348.591       28.393      861.253
07/16/2014  23:58:00     -201.470      -32.846      -11.578       86.595       64.989       49.705     7498.645     4223.573     2470.546        2.800        0.710      204.130       43.270        0.045      348.551       28.325      861.256
07/16/2014  23:59:00     -129.683      -16.759        5.369       94.004       80.075       47.052     8836.779     6412.083     2213.859        1.729        0.873      130.761       53.294        0.166      348.519       28.273      861.269
